[[{"header":{"parameterUnit":"m.s-1","parameterCategory":1,"la1":31.0,"la2":29.5877,"lo1":-88.7671,"lo2":-86.6584,"dx":0.0162,"dy":0.0185,"nx":115,"ny":88,"refTime":"2022-12-23T06:00:00:Z","depth":0,"parameterNumber":2,"parameterNumberName":"U-component_of_WINDS"},"data":[0.0,0.0,0.0,0.0,0.0,0.0,0.0,0.0,0.0,0.0,0.0,0.0,0.0,0.0,0.0,0.0,0.0,0.0,0.0,0.0,0.0,0.0,0.0,0.0,0.0,0.0,0.0,0.0,0.0,0.0,0.0,0.0,0.0,0.0,0.0,0.0,0.0,0.0,0.0,0.0,0.0,0.0,0.0,0.0,0.0,0.0,0.0,0.0,0.0,0.0,0.0,0.0,0.0,0.0,0.0,0.0,0.0,0.0,0.0,0.0,0.0,0.0,0.0,0.0,0.0,0.0,0.0,0.0,0.0,0.0,0.0,0.0,0.0,0.0,0.0,0.0,0.0,0.0,0.0,0.0,0.0,0.0,0.0,0.0,0.0,0.0,0.0,0.0,0.0,0.0,0.0,0.0,0.0,0.0,0.0,0.0,0.0,0.0,0.0,0.0,0.0,0.0,0.0,0.0,0.0,0.0,0.0,0.0,0.0,0.0,0.0,0.0,0.0,0.0,0.0,0.0,0.0,0.0,0.0,0.0,0.0,0.0,0.0,0.0,0.0,0.0,0.0,0.0,0.0,0.0,0.0,0.0,0.0,0.0,0.0,0.0,0.0,0.0,0.0,0.0,0.0,0.0,0.0,0.0,0.0,0.0,0.0,0.0,0.0,0.0,0.0,0.0,0.0,0.0,0.0,0.0,0.0,0.0,0.0,0.0,0.0,0.0,0.0,0.0,0.0,0.0,0.0,0.0,0.0,0.0,0.0,0.0,0.0,0.0,0.0,0.0,0.0,0.0,0.0,0.0,0.0,0.0,0.0,0.0,0.0,0.0,0.0,0.0,0.0,0.0,0.0,0.0,0.0,0.0,0.0,0.0,0.0,0.0,0.0,0.0,0.0,0.0,0.0,0.0,0.0,0.0,0.0,0.0,0.0,0.0,0.0,0.0,0.0,0.0,0.0,0.0,0.0,0.0,0.0,0.0,0.0,0.0,0.0,0.0,0.0,0.0,0.0,0.0,0.0,0.0,0.0,0.0,0.0,0.0,0.0,0.0,0.0,0.0,0.0,0.0,0.0,0.0,0.0,0.0,0.0,0.0,0.0,0.0,0.0,0.0,0.0,0.0,0.0,0.0,0.0,0.0,0.0,0.0,0.0,0.0,0.0,0.0,0.0,0.0,0.0,0.0,0.0,0.0,0.0,0.0,0.0,0.0,0.0,0.0,0.0,0.0,0.0,0.0,0.0,0.0,0.0,0.0,0.0,0.0,0.0,0.0,0.0,0.0,0.0,0.0,0.0,0.0,0.0,0.0,0.0,0.0,0.0,0.0,0.0,0.0,0.0,0.0,0.0,0.0,0.0,0.0,0.0,0.0,0.0,0.0,0.0,0.0,0.0,0.0,0.0,0.0,0.0,0.0,0.0,0.0,0.0,0.0,0.0,0.0,0.0,0.0,0.0,0.0,0.0,0.0,0.0,0.0,0.0,0.0,0.0,0.0,0.0,0.0,0.0,0.0,0.0,0.0,0.0,0.0,0.0,0.0,0.0,0.0,0.0,0.0,0.0,0.0,0.0,0.0,0.0,0.0,0.0,0.0,0.0,0.0,0.0,0.0,0.0,0.0,0.0,0.0,0.0,0.0,0.0,0.0,0.0,0.0,0.0,0.0,0.0,0.0,0.0,0.0,0.0,0.0,0.0,0.0,0.0,0.0,0.0,0.0,0.0,0.0,0.0,0.0,0.0,0.0,0.0,0.0,0.0,0.0,0.0,0.0,0.0,0.0,0.0,0.0,0.0,0.0,0.0,0.0,0.0,0.0,0.0,0.0,0.0,0.0,0.0,0.0,0.0,0.0,0.0,0.0,0.0,0.0,0.0,0.0,0.0,0.0,0.0,0.0,0.0,0.0,0.0,0.0,0.0,0.0,0.0,0.0,0.0,0.0,0.0,0.0,0.0,0.0,0.0,0.0,0.0,0.0,0.0,0.0,0.0,0.0,0.0,0.0,0.0,0.0,0.0,0.0,0.0,0.0,0.0,0.0,0.0,0.0,0.0,0.0,0.0,0.0,0.0,0.0,0.0,0.0,0.0,0.0,0.0,0.0,0.0,0.0,0.0,0.0,0.0,0.0,0.0,0.0,0.0,0.0,0.0,0.0,0.0,0.0,0.0,0.0,0.0,0.0,0.0,0.0,0.0,0.0,0.0,0.0,0.0,0.0,0.0,0.0,0.0,0.0,0.0,0.0,0.0,0.0,0.0,0.0,0.0,0.0,0.0,0.0,0.0,0.0,0.0,0.0,0.0,0.0,0.0,0.0,0.0,0.0,0.0,0.0,0.0,0.0,0.0,0.0,0.0,0.0,0.0,0.0,0.0,0.0,0.0,0.0,0.0,0.0,0.0,0.0,0.0,0.0,0.0,0.0,0.0,0.0,0.0,0.0,0.0,0.0,0.0,0.0,0.0,0.0,0.0,0.0,0.0,0.0,0.0,0.0,0.0,0.0,0.0,0.0,0.0,0.0,0.0,0.0,0.0,0.0,0.0,0.0,0.0,0.0,0.0,0.0,0.0,0.0,0.0,0.0,0.0,0.0,0.0,0.0,0.0,0.0,0.0,0.0,0.0,0.0,0.0,0.0,0.0,0.0,0.0,0.0,0.0,0.0,0.0,0.0,0.0,0.0,0.0,0.0,0.0,0.0,0.0,0.0,0.0,0.0,0.0,0.0,0.0,0.0,0.0,0.0,0.0,0.0,0.0,0.0,0.0,0.0,0.0,0.0,0.0,0.0,0.0,0.0,0.0,0.0,0.0,0.0,0.0,0.0,0.0,0.0,0.0,0.0,0.0,0.0,0.0,0.0,0.0,0.0,0.0,0.0,0.0,0.0,0.0,0.0,0.0,0.0,0.0,0.0,0.0,0.0,0.0,0.0,0.0,0.0,0.0,0.0,0.0,0.0,0.0,0.0,0.0,0.0,0.0,0.0,0.0,0.0,0.0,0.0,0.0,0.0,0.0,0.0,0.0,0.0,0.0,0.0,0.0,0.0,0.0,0.0,0.0,0.0,0.0,0.0,0.0,0.0,0.0,0.0,0.0,0.0,0.0,0.0,0.0,0.0,0.0,0.0,0.0,0.0,0.0,0.0,0.0,0.0,0.0,0.0,0.0,0.0,0.0,0.0,0.0,0.0,0.0,0.0,0.0,0.0,0.0,0.0,0.0,0.0,0.0,0.0,0.0,0.0,0.0,0.0,0.0,0.0,0.0,0.0,0.0,0.0,0.0,0.0,0.0,0.0,0.0,0.0,0.0,0.0,0.0,0.0,0.0,0.0,0.0,0.0,0.0,0.0,0.0,0.0,0.0,0.0,0.0,0.0,0.0,0.0,0.0,0.0,0.0,0.0,0.0,0.0,0.0,0.0,0.0,0.0,0.0,0.0,0.0,0.0,0.0,0.0,0.0,0.0,0.0,0.0,0.0,0.0,0.0,0.0,0.0,0.0,0.0,0.0,0.0,0.0,0.0,0.0,0.0,0.0,0.0,0.0,0.0,0.0,0.0,0.0,0.0,0.0,0.0,0.0,0.0,0.0,0.0,0.0,0.0,0.0,0.0,0.0,0.0,0.0,0.0,0.0,0.0,0.0,0.0,0.0,0.0,0.0,0.0,0.0,0.0,0.0,0.0,0.0,0.0,0.0,0.0,0.0,0.0,0.0,0.0,0.0,0.0,0.0,0.0,0.0,0.0,0.0,0.0,0.0,0.0,0.0,0.0,0.0,0.0,0.0,0.0,0.0,0.0,0.0,0.0,0.0,0.0,0.0,0.0,0.0,0.0,0.0,0.0,0.0,0.0,0.0,0.0,0.0,0.0,0.0,0.0,0.0,0.0,0.0,0.0,0.0,0.0,0.0,0.0,0.0,0.0,0.0,0.0,0.0,0.0,0.0,0.0,0.0,0.0,0.0,0.0,0.0,0.0,0.0,0.0,0.0,0.0,0.0,0.0,0.0,0.0,0.0,0.0,0.0,0.0,0.0,0.0,0.0,0.0,0.0,0.0,0.0,0.0,0.0,0.0,0.0,0.0,0.0,0.0,0.0,0.0,0.0,0.0,0.0,0.0,0.0,0.0,0.0,0.0,0.0,0.0,0.0,0.0,0.0,0.0,0.0,0.0,0.0,0.0,0.0,0.0,0.0,0.0,0.0,0.0,0.0,0.0,0.0,0.0,0.0,0.0,0.0,0.0,0.0,0.0,0.0,0.0,0.0,0.0,0.0,0.0,0.0,1.4343,0.0,0.0,0.0,1.3025,0.0,0.0,0.0,0.0,0.0,0.0,0.0,0.0,0.0,0.0,0.0,0.0,0.0,0.0,0.0,0.0,0.0,0.0,0.0,0.0,0.0,0.0,0.0,0.0,0.0,0.0,0.0,0.0,0.0,0.0,0.0,0.0,0.0,0.0,0.0,0.0,0.0,0.0,0.0,0.0,0.0,0.0,0.0,0.0,0.0,0.0,0.0,0.0,0.0,0.0,0.0,0.0,0.0,0.0,0.0,0.0,0.0,0.0,0.0,0.0,0.0,0.0,0.0,0.0,0.0,0.0,0.0,0.0,0.0,0.0,0.0,0.0,0.0,0.0,0.0,0.0,0.0,0.0,0.0,0.0,0.0,0.0,0.0,0.0,0.0,0.0,0.0,0.0,0.0,0.0,0.0,0.0,0.0,0.0,0.0,0.0,0.0,0.0,0.0,0.0,0.0,0.0,0.0,0.0,0.0,0.0,0.0,0.0,0.0,0.0,1.5523,1.348,1.7905,1.7895,1.2742,0.0,0.0,0.0,0.0,0.0,0.0,0.0,0.0,0.0,0.0,0.0,0.0,0.0,0.0,0.0,0.0,0.0,0.0,0.0,0.0,0.0,0.0,0.0,0.0,0.0,0.0,0.0,0.0,0.0,0.0,0.0,0.0,0.0,0.0,0.0,0.0,0.0,0.0,0.0,0.0,0.0,0.0,0.0,0.0,0.0,0.0,0.0,0.0,0.0,0.0,0.0,0.0,0.0,0.0,0.0,0.0,0.0,0.0,0.0,0.0,0.0,0.0,0.0,0.0,0.0,0.0,0.0,0.0,0.0,0.0,0.0,0.0,0.0,0.0,0.0,0.0,0.0,0.0,0.0,0.0,0.0,0.0,0.0,0.0,0.0,0.0,0.0,0.0,0.0,0.0,0.0,0.0,0.0,0.0,0.0,0.0,0.0,0.0,0.0,0.0,0.0,0.0,0.0,0.0,0.0,0.0,0.0,0.0,0.0,0.0,0.0,0.0,1.9487,1.946,1.4247,0.0,0.0,0.0,0.0,0.0,0.0,0.0,0.0,0.0,0.0,0.0,0.0,0.0,0.0,0.0,0.0,0.0,0.0,0.0,0.0,0.0,0.0,0.0,0.0,0.0,0.0,0.0,0.0,0.0,0.0,0.0,0.0,0.0,0.0,0.0,0.0,0.0,0.0,0.0,0.0,0.0,0.0,0.0,0.0,0.0,0.0,0.0,0.0,0.0,0.0,0.0,0.0,0.0,0.0,0.0,0.0,0.0,0.0,0.0,0.0,0.0,0.0,0.0,0.0,0.0,0.0,0.0,0.0,0.0,0.0,0.0,0.0,0.0,0.0,0.0,0.0,0.0,0.0,0.0,0.0,0.0,0.0,0.0,0.0,0.0,0.0,0.0,0.0,0.0,0.0,0.0,0.0,0.0,0.0,0.0,0.0,0.0,0.0,0.0,0.0,0.0,0.0,0.0,0.0,0.0,0.0,0.0,0.0,0.0,0.0,1.4663,1.8245,1.9398,0.0,1.885,0.0,0.0,0.0,0.0,0.0,0.0,0.0,0.0,0.0,0.0,0.0,0.0,0.0,0.0,0.0,0.0,0.0,0.0,0.0,0.0,0.0,0.0,0.0,0.0,0.0,0.0,0.0,0.0,0.0,0.0,0.0,0.0,0.0,0.0,0.0,0.0,0.0,0.0,0.0,0.0,0.0,0.0,0.0,0.0,0.0,0.0,0.0,0.0,0.0,0.0,0.0,0.0,0.0,0.0,0.0,0.0,0.0,0.0,0.0,0.0,0.0,0.0,0.0,0.0,0.0,0.0,0.0,0.0,0.0,0.0,0.0,0.0,0.0,0.0,0.0,0.0,0.0,0.0,0.0,0.0,0.0,0.0,0.0,0.0,0.0,0.0,0.0,0.0,0.0,0.0,0.0,0.0,0.0,0.0,0.0,0.0,0.0,0.0,0.0,0.0,0.0,0.0,0.0,0.0,0.0,0.0,0.0,0.0,0.0,0.0,1.6371,1.9495,1.975,1.8846,0.0,0.0,0.0,0.0,0.0,0.0,0.0,0.0,0.0,0.0,0.0,0.0,0.0,0.0,0.0,0.0,0.0,0.0,0.0,0.0,0.0,0.0,0.0,0.0,0.0,0.0,0.0,0.0,0.0,0.0,0.0,0.0,0.0,0.0,0.0,0.0,0.0,0.0,0.0,0.0,0.0,0.0,0.0,0.0,0.0,0.0,0.0,0.0,0.0,0.0,0.0,0.0,0.0,0.0,0.0,0.0,0.0,0.0,0.0,0.0,0.0,0.0,0.0,0.0,0.0,0.0,0.0,0.0,0.0,0.0,0.0,0.0,0.0,0.0,0.0,0.0,0.0,0.0,0.0,0.0,0.0,0.0,0.0,0.0,0.0,0.0,0.0,0.0,0.0,0.0,0.0,0.0,0.0,0.0,0.0,0.0,0.0,0.0,0.0,0.0,0.0,0.0,0.0,0.0,0.0,0.0,0.0,0.0,0.0,0.0,1.6516,1.8156,2.0795,2.0012,1.84,1.6102,0.0,0.0,0.0,0.0,0.0,0.0,0.0,0.0,0.0,0.0,0.0,0.0,0.0,0.0,0.0,0.0,0.0,0.0,0.0,0.0,0.0,0.0,0.0,0.0,0.0,0.0,0.0,0.0,0.0,0.0,0.0,0.0,0.0,0.0,0.0,0.0,0.0,0.0,0.0,0.0,0.0,0.0,0.0,0.0,0.0,0.0,0.0,0.0,0.0,0.0,0.0,0.0,0.0,0.0,0.0,0.0,0.0,0.0,0.0,0.0,0.0,0.0,0.0,0.0,0.0,0.0,0.0,0.0,0.0,0.0,0.0,0.0,0.0,0.0,0.0,0.0,0.0,0.0,0.0,0.0,0.0,0.0,0.0,0.0,0.0,0.0,0.0,0.0,0.0,0.0,0.0,0.0,0.0,0.0,0.0,0.0,0.0,0.0,0.0,0.0,0.0,0.0,0.0,0.0,0.0,0.0,0.0,0.0,2.0688,1.8792,1.9428,2.3054,2.0164,1.8763,0.0,0.0,0.0,0.0,0.0,0.0,0.0,0.0,0.0,0.0,0.0,0.0,0.0,0.0,0.0,0.0,0.0,0.0,0.0,0.0,0.0,0.0,0.0,0.0,0.0,0.0,0.0,0.0,0.0,0.0,0.0,0.0,0.0,0.0,0.0,0.0,0.0,0.0,0.0,0.0,0.0,0.0,0.0,0.0,0.0,0.0,0.0,0.0,0.0,0.0,0.0,0.0,0.0,0.0,0.0,0.0,0.0,0.0,0.0,0.0,0.0,0.0,0.0,0.0,0.0,0.0,0.0,0.0,0.0,0.0,0.0,0.0,0.0,0.0,0.0,0.0,0.0,0.0,0.0,0.0,0.0,0.0,0.0,0.0,0.0,0.0,0.0,0.0,0.0,0.0,0.0,0.0,0.0,0.0,0.0,0.0,0.0,0.0,0.0,0.0,0.0,0.0,0.0,0.0,0.0,0.0,0.0,0.0,0.0,1.8189,1.9924,2.1244,2.2132,2.133,2.0543,0.0,0.0,0.0,0.0,0.0,0.0,0.0,0.0,0.0,0.0,0.0,0.0,0.0,0.0,0.0,0.0,0.0,0.0,0.0,0.0,0.0,0.0,0.0,0.0,0.0,0.0,0.0,0.0,0.0,0.0,0.0,0.0,0.0,0.0,0.0,0.0,0.0,0.0,0.0,0.0,0.0,0.0,0.0,0.0,0.0,0.0,0.0,0.0,0.0,0.0,0.0,0.0,0.0,0.0,0.0,0.0,0.0,0.0,0.0,0.0,0.0,0.0,0.0,0.0,0.0,0.0,0.0,0.0,0.0,0.0,0.0,0.0,0.0,0.0,0.0,0.0,0.0,0.0,0.0,0.0,0.0,0.0,0.0,0.0,0.0,0.0,0.0,0.0,0.0,0.0,0.0,0.0,0.0,0.0,0.0,0.0,0.0,0.0,0.0,0.0,0.0,0.0,0.0,0.0,0.0,0.0,0.0,0.0,0.0,1.8946,2.247,2.3898,2.3093,2.2556,2.1526,0.0,0.0,0.0,0.0,0.0,0.0,0.0,0.0,0.0,0.0,0.0,0.0,0.0,0.0,0.0,0.0,0.0,0.0,0.0,0.0,0.0,0.0,0.0,0.0,0.0,0.0,0.0,0.0,0.0,0.0,0.0,0.0,0.0,0.0,0.0,0.0,0.0,0.0,0.0,0.0,0.0,0.0,0.0,0.0,0.0,0.0,0.0,0.0,0.0,0.0,0.0,0.0,0.0,0.0,0.0,0.0,0.0,0.0,0.0,0.0,0.0,0.0,0.0,0.0,0.0,0.0,0.0,0.0,0.0,0.0,0.0,0.0,0.0,0.0,0.0,0.0,0.0,0.0,0.0,0.0,0.0,0.0,0.0,0.0,0.0,0.0,0.0,0.0,0.0,0.0,0.0,0.0,0.0,0.0,0.0,0.0,0.0,0.0,0.0,0.0,0.0,0.0,0.0,0.0,0.0,0.0,0.0,0.0,1.8177,2.3764,2.637,2.7056,2.6244,2.3638,2.149,0.0,0.0,0.0,0.0,0.0,0.0,0.0,0.0,0.0,0.0,0.0,0.0,0.0,0.0,0.0,0.0,0.0,0.0,0.0,0.0,0.0,0.0,0.0,0.0,0.0,0.0,0.0,0.0,0.0,0.0,0.0,0.0,0.0,0.0,0.0,0.0,0.0,0.0,0.0,0.0,0.0,0.0,0.0,0.0,0.0,0.0,0.0,0.0,0.0,0.0,0.0,0.0,0.0,0.0,0.0,0.0,0.0,0.0,0.0,0.0,0.0,0.0,0.0,0.0,0.0,0.0,0.0,0.0,0.0,0.0,0.0,0.0,0.0,0.0,0.0,0.0,0.0,0.0,0.0,0.0,0.0,0.0,0.0,0.0,0.0,0.0,0.0,0.0,0.0,0.0,0.0,0.0,0.0,0.0,0.0,0.0,0.0,0.0,0.0,0.0,0.0,0.0,0.0,0.0,0.0,0.0,0.0,0.0,0.0,2.2331,2.4704,2.586,2.5543,2.3364,2.2248,0.0,0.0,0.0,0.0,0.0,0.0,0.0,0.0,0.0,0.0,0.0,0.0,0.0,0.0,0.0,0.0,0.0,0.0,0.0,0.0,0.0,0.0,0.0,0.0,0.0,0.0,0.0,0.0,0.0,0.0,0.0,0.0,0.0,0.0,0.0,0.0,0.0,0.0,0.0,0.0,0.0,0.0,0.0,0.0,0.0,0.0,0.0,0.0,0.0,0.0,0.0,0.0,0.0,0.0,0.0,0.0,0.0,0.0,0.0,0.0,0.0,0.0,0.0,0.0,0.0,0.0,0.0,0.0,0.0,0.0,0.0,0.0,0.0,0.0,0.0,0.0,0.0,0.0,0.0,0.0,0.0,0.0,0.0,0.0,0.0,0.0,0.0,0.0,0.0,0.0,0.0,0.0,0.0,0.0,0.0,0.0,0.0,0.0,0.0,0.0,0.0,0.0,0.0,0.0,0.0,0.0,0.0,0.0,0.0,2.3592,2.5817,2.6914,2.6596,2.4714,2.3626,2.3412,0.0,0.0,0.0,0.0,0.0,0.0,0.0,0.0,0.0,0.0,0.0,0.0,0.0,0.0,0.0,0.0,0.0,0.0,0.0,0.0,0.0,0.0,0.0,0.0,0.0,0.0,0.0,0.0,0.0,0.0,0.0,0.0,0.0,0.0,0.0,0.0,0.0,0.0,0.0,0.0,0.0,0.0,0.0,0.0,0.0,0.0,0.0,0.0,0.0,0.0,0.0,0.0,0.0,0.0,0.0,0.0,0.0,0.0,0.0,0.0,0.0,0.0,0.0,0.0,0.0,0.0,0.0,0.0,0.0,0.0,0.0,0.0,0.0,0.0,0.0,0.0,0.0,0.0,0.0,0.0,0.0,0.0,0.0,0.0,0.0,0.0,0.0,0.0,0.0,0.0,0.0,0.0,0.0,0.0,0.0,0.0,0.0,0.0,0.0,0.0,0.0,0.0,0.0,0.0,0.0,0.0,0.0,0.0,2.69,2.9236,2.9946,2.8867,2.7249,2.5469,0.0,0.0,0.0,0.0,0.0,0.0,0.0,0.0,0.0,0.0,0.0,0.0,0.0,0.0,0.0,0.0,0.0,0.0,0.0,0.0,0.0,0.0,0.0,0.0,0.0,0.0,0.0,0.0,0.0,0.0,0.0,0.0,0.0,0.0,0.0,0.0,0.0,0.0,0.0,0.0,0.0,0.0,0.0,0.0,0.0,0.0,0.0,0.0,0.0,0.0,0.0,0.0,0.0,0.0,0.0,0.0,0.0,0.0,0.0,0.0,0.0,0.0,0.0,0.0,0.0,0.0,0.0,0.0,0.0,0.0,0.0,0.0,0.0,0.0,0.0,0.0,0.0,0.0,0.0,0.0,0.0,0.0,0.0,0.0,0.0,0.0,0.0,0.0,0.0,0.0,0.0,0.0,0.0,0.0,0.0,0.0,0.0,0.0,0.0,0.0,0.0,0.0,0.0,0.0,0.0,0.0,0.0,0.0,0.0,2.945,3.0777,3.0963,2.9965,2.7642,2.6066,0.0,0.0,0.0,0.0,0.0,0.0,0.0,0.0,0.0,0.0,0.0,0.0,0.0,0.0,0.0,0.0,0.0,0.0,0.0,0.0,0.0,0.0,0.0,0.0,0.0,0.0,0.0,0.0,0.0,0.0,0.0,0.0,0.0,0.0,0.0,0.0,0.0,0.0,0.0,0.0,0.0,0.0,0.0,0.0,0.0,0.0,0.0,0.0,0.0,0.0,0.0,0.0,0.0,0.0,0.0,0.0,0.0,0.0,0.0,0.0,0.0,0.0,0.0,0.0,0.0,0.0,0.0,0.0,0.0,0.0,0.0,0.0,0.0,0.0,0.0,0.0,0.0,0.0,0.0,0.0,0.0,0.0,0.0,0.0,0.0,0.0,0.0,0.0,0.0,0.0,0.0,0.0,0.0,0.0,0.0,0.0,0.0,0.0,0.0,0.0,0.0,0.0,0.0,0.0,0.0,0.0,0.0,0.0,2.8696,3.1552,3.2488,3.2648,3.2006,2.9454,2.7497,0.0,0.0,0.0,0.0,0.0,0.0,0.0,0.0,0.0,0.0,0.0,0.0,0.0,0.0,0.0,0.0,0.0,0.0,0.0,0.0,0.0,0.0,0.0,0.0,0.0,0.0,0.0,0.0,0.0,0.0,0.0,0.0,0.0,0.0,0.0,0.0,0.0,0.0,0.0,0.0,0.0,0.0,0.0,0.0,0.0,0.0,0.0,0.0,0.0,0.0,0.0,0.0,0.0,0.0,0.0,0.0,0.0,0.0,0.0,0.0,0.0,0.0,0.0,0.0,0.0,0.0,0.0,0.0,0.0,0.0,0.0,0.0,0.0,0.0,0.0,0.0,0.0,0.0,0.0,0.0,0.0,0.0,0.0,0.0,0.0,0.0,0.0,0.0,0.0,0.0,0.0,0.0,0.0,0.0,0.0,0.0,0.0,0.0,0.0,0.0,0.0,0.0,0.0,0.0,0.0,0.0,0.0,0.0,3.0005,3.3368,3.4141,3.4384,3.4141,3.1834,2.9302,0.0,0.0,0.0,0.0,0.0,0.0,0.0,0.0,0.0,0.0,0.0,0.0,0.0,0.0,0.0,0.0,0.0,0.0,0.0,0.0,0.0,0.0,0.0,0.0,0.0,0.0,0.0,0.0,0.0,0.0,0.0,0.0,0.0,0.0,0.0,0.0,0.0,0.0,0.0,0.0,0.0,0.0,0.0,0.0,0.0,0.0,0.0,0.0,0.0,0.0,0.0,0.0,0.0,0.0,0.0,0.0,0.0,0.0,0.0,0.0,0.0,0.0,0.0,0.0,0.0,0.0,0.0,0.0,0.0,0.0,0.0,0.0,0.0,0.0,0.0,0.0,0.0,0.0,0.0,0.0,0.0,0.0,0.0,0.0,0.0,0.0,0.0,0.0,0.0,0.0,0.0,0.0,0.0,0.0,0.0,0.0,0.0,0.0,0.0,0.0,0.0,0.0,0.0,0.0,0.0,0.0,0.0,0.0,3.1736,3.5055,3.4635,3.4288,3.418,3.2403,3.0388,0.0,0.0,0.0,0.0,0.0,0.0,0.0,0.0,0.0,0.0,0.0,0.0,0.0,0.0,0.0,0.0,0.0,0.0,0.0,0.0,0.0,0.0,0.0,0.0,0.0,0.0,0.0,0.0,0.0,0.0,0.0,0.0,0.0,0.0,0.0,0.0,0.0,0.0,0.0,0.0,0.0,0.0,0.0,0.0,0.0,0.0,0.0,0.0,1.9929,0.0,0.0,0.0,0.0,0.0,0.0,0.0,0.0,0.0,0.0,0.0,0.0,0.0,0.0,0.0,0.0,0.0,0.0,0.0,0.0,0.0,0.0,0.0,0.0,0.0,0.0,0.0,0.0,0.0,0.0,0.0,0.0,0.0,0.0,0.0,0.0,0.0,0.0,0.0,0.0,0.0,0.0,0.0,0.0,0.0,0.0,0.0,0.0,0.0,0.0,0.0,0.0,0.0,0.0,0.0,0.0,0.0,0.0,0.0,3.3113,3.5582,3.52,3.4916,3.4795,3.3943,3.1987,0.0,0.0,0.0,0.0,0.0,0.0,0.0,0.0,0.0,0.0,0.0,0.0,0.0,0.0,0.0,0.0,0.0,0.0,0.0,0.0,0.0,0.0,0.0,0.0,0.0,0.0,0.0,0.0,0.0,0.0,0.0,0.0,0.0,0.0,0.0,0.0,0.0,0.0,0.0,0.0,0.0,0.0,0.0,0.0,0.0,0.0,0.0,0.0,0.0,0.0,0.0,0.0,0.0,0.0,0.0,0.0,0.0,0.0,0.0,0.0,0.0,0.0,0.0,0.0,0.0,0.0,0.0,0.0,0.0,0.0,0.0,0.0,0.0,0.0,0.0,0.0,0.0,0.0,0.0,0.0,0.0,0.0,0.0,0.0,0.0,0.0,0.0,0.0,0.0,0.0,0.0,0.0,0.0,0.0,0.0,0.0,0.0,0.0,0.0,0.0,0.0,0.0,0.0,0.0,0.0,0.0,0.0,3.3096,3.4265,3.581,3.5765,3.5622,3.5507,3.5507,3.3445,2.9145,0.0,0.0,0.0,0.0,0.0,0.0,0.0,0.0,0.0,0.0,0.0,0.0,0.0,0.0,0.0,0.0,0.0,0.0,0.0,0.0,0.0,0.0,0.0,0.0,0.0,0.0,0.0,0.0,0.0,0.0,0.0,0.0,0.0,0.0,0.0,0.0,0.0,0.0,1.781,1.9961,0.0,0.0,0.0,0.0,0.0,0.0,0.0,0.0,2.2426,0.0,0.0,0.0,0.0,0.0,0.0,0.0,0.0,0.0,0.0,0.0,0.0,0.0,0.0,0.0,0.0,0.0,0.0,0.0,0.0,0.0,0.0,0.0,0.0,0.0,0.0,0.0,0.0,0.0,0.0,0.0,0.0,0.0,0.0,0.0,0.0,0.0,0.0,0.0,0.0,0.0,0.0,0.0,0.0,0.0,0.0,0.0,0.0,0.0,0.0,0.0,0.0,0.0,0.0,0.0,0.0,3.408,3.4253,3.5116,3.6717,3.6026,3.5584,3.5507,3.5507,3.3662,2.9844,0.0,0.0,0.0,0.0,0.0,0.0,0.0,0.0,0.0,0.0,0.0,0.0,0.0,0.0,0.0,0.0,0.0,0.0,0.0,0.0,0.0,0.0,0.0,0.0,0.0,0.0,0.0,0.0,0.0,0.0,0.0,0.0,0.0,0.0,0.0,0.0,0.0,0.0,0.0,2.2981,2.4306,0.0,0.0,0.0,0.0,0.0,0.0,0.0,0.0,2.2779,0.0,0.0,0.0,0.0,0.0,0.0,0.0,0.0,0.0,0.0,0.0,0.0,0.0,0.0,0.0,0.0,0.0,0.0,0.0,0.0,0.0,0.0,0.0,0.0,0.0,0.0,0.0,0.0,0.0,0.0,0.0,0.0,0.0,0.0,0.0,0.0,0.0,0.0,0.0,0.0,0.0,0.0,0.0,0.0,0.0,0.0,0.0,0.0,0.0,0.0,0.0,0.0,0.0,0.0,0.0,3.366,3.4808,3.6071,3.7604,3.6425,3.5905,3.6213,3.5776,3.3752,0.0,0.0,0.0,0.0,0.0,0.0,0.0,0.0,0.0,0.0,0.0,0.0,0.0,0.0,0.0,0.0,0.0,0.0,0.0,0.0,0.0,0.0,0.0,0.0,0.0,0.0,0.0,0.0,0.0,0.0,0.0,0.0,0.0,0.0,0.0,0.0,0.0,0.0,0.0,0.0,2.5625,2.6835,3.0152,0.0,0.0,0.0,0.0,0.0,0.0,2.5597,2.4039,0.0,0.0,0.0,0.0,0.0,0.0,0.0,0.0,0.0,0.0,0.0,0.0,0.0,0.0,0.0,0.0,0.0,0.0,0.0,0.0,0.0,0.0,0.0,0.0,0.0,0.0,0.0,0.0,0.0,0.0,0.0,0.0,0.0,0.0,0.0,0.0,0.0,0.0,0.0,0.0,0.0,0.0,0.0,0.0,0.0,0.0,0.0,0.0,0.0,0.0,0.0,0.0,0.0,0.0,0.0,3.3138,3.5048,3.6845,3.8496,3.6844,3.6223,3.687,3.6067,3.378,0.0,0.0,0.0,0.0,0.0,0.0,0.0,0.0,0.0,0.0,0.0,0.0,0.0,0.0,0.0,0.0,0.0,0.0,0.0,0.0,0.0,0.0,0.0,0.0,0.0,0.0,0.0,0.0,0.0,0.0,0.0,0.0,0.0,0.0,0.0,0.0,0.0,0.0,0.0,0.0,0.0,2.9379,3.1905,3.4226,0.0,0.0,0.0,0.0,2.9918,2.7712,0.0,0.0,0.0,0.0,0.0,0.0,0.0,0.0,0.0,0.0,0.0,0.0,0.0,0.0,0.0,0.0,0.0,0.0,0.0,0.0,0.0,0.0,0.0,0.0,0.0,0.0,0.0,0.0,0.0,0.0,0.0,0.0,0.0,0.0,0.0,0.0,0.0,0.0,0.0,0.0,0.0,0.0,0.0,0.0,0.0,0.0,0.0,0.0,0.0,0.0,0.0,0.0,0.0,0.0,0.0,0.0,3.3189,3.501,3.7078,3.9296,3.7168,3.6235,3.6954,3.6076,3.3838,0.0,0.0,0.0,0.0,0.0,0.0,0.0,0.0,0.0,0.0,0.0,0.0,0.0,0.0,0.0,0.0,0.0,0.0,0.0,0.0,0.0,0.0,0.0,0.0,0.0,0.0,0.0,0.0,0.0,0.0,0.0,0.0,0.0,0.0,0.0,0.0,0.0,0.0,0.0,0.0,0.0,3.1809,3.1252,3.328,3.4128,0.0,0.0,3.314,3.1693,3.1025,0.0,0.0,0.0,0.0,0.0,0.0,0.0,0.0,0.0,0.0,0.0,0.0,0.0,0.0,0.0,0.0,0.0,0.0,0.0,0.0,0.0,0.0,0.0,0.0,0.0,0.0,0.0,0.0,0.0,0.0,0.0,0.0,0.0,0.0,0.0,0.0,0.0,0.0,0.0,0.0,0.0,0.0,0.0,0.0,0.0,0.0,0.0,0.0,0.0,0.0,0.0,0.0,0.0,0.0,0.0,3.0392,3.3268,3.5546,3.7944,4.0351,3.7539,3.656,3.775,3.6962,3.4967,0.0,0.0,0.0,0.0,0.0,0.0,0.0,0.0,0.0,0.0,0.0,0.0,0.0,0.0,0.0,0.0,0.0,0.0,0.0,0.0,0.0,0.0,0.0,0.0,0.0,0.0,0.0,0.0,0.0,0.0,0.0,0.0,0.0,0.0,0.0,0.0,0.0,0.0,0.0,0.0,0.0,0.0,3.3026,3.451,0.0,0.0,0.0,3.4118,3.3093,0.0,0.0,0.0,0.0,0.0,0.0,0.0,0.0,0.0,0.0,0.0,0.0,0.0,0.0,0.0,0.0,0.0,0.0,0.0,0.0,0.0,0.0,0.0,0.0,0.0,0.0,0.0,0.0,0.0,0.0,0.0,0.0,0.0,0.0,0.0,0.0,0.0,0.0,0.0,0.0,0.0,0.0,0.0,0.0,0.0,0.0,0.0,0.0,0.0,0.0,0.0,0.0,0.0,0.0,0.0,0.0,0.0,3.3597,3.6011,3.8535,4.0937,3.7773,3.6777,3.8359,3.7637,0.0,0.0,0.0,0.0,0.0,0.0,0.0,0.0,0.0,0.0,0.0,0.0,0.0,0.0,0.0,0.0,0.0,0.0,0.0,0.0,0.0,0.0,0.0,0.0,0.0,0.0,0.0,1.7426,0.0,0.0,0.0,0.0,0.0,0.0,0.0,0.0,0.0,0.0,0.0,0.0,0.0,0.0,3.1332,3.4363,3.5647,3.5966,0.0,0.0,3.5063,3.405,3.3529,3.2747,0.0,0.0,0.0,0.0,0.0,0.0,0.0,0.0,0.0,0.0,0.0,0.0,0.0,0.0,0.0,0.0,0.0,0.0,0.0,0.0,0.0,0.0,0.0,0.0,0.0,0.0,0.0,0.0,0.0,0.0,0.0,0.0,0.0,0.0,0.0,0.0,0.0,0.0,0.0,0.0,0.0,0.0,0.0,0.0,0.0,0.0,0.0,0.0,0.0,0.0,0.0,0.0,0.0,0.0,3.1905,3.4461,3.6226,3.8379,4.0801,3.7734,3.6836,3.8516,3.7695,3.624,0.0,0.0,0.0,0.0,0.0,0.0,0.0,0.0,0.0,0.0,0.0,0.0,0.0,0.0,0.0,0.0,0.0,0.0,0.0,0.0,0.0,0.0,0.0,0.0,0.0,0.0,0.0,0.0,0.0,0.0,0.0,0.0,0.0,0.0,0.0,0.0,0.0,0.0,0.0,0.0,0.0,3.4453,3.3961,3.5942,3.6897,0.0,3.5948,3.6019,3.4437,3.457,3.421,3.2409,0.0,0.0,0.0,0.0,0.0,0.0,0.0,0.0,0.0,0.0,0.0,0.0,0.0,0.0,0.0,0.0,0.0,0.0,0.0,0.0,0.0,0.0,0.0,0.0,0.0,0.0,0.0,0.0,0.0,0.0,0.0,0.0,0.0,0.0,0.0,0.0,0.0,0.0,0.0,0.0,0.0,0.0,0.0,0.0,0.0,0.0,0.0,0.0,0.0,0.0,0.0,0.0,0.0,3.2507,3.4584,3.6195,3.8338,4.0762,3.8203,3.7324,3.8574,3.8769,3.7971,0.0,0.0,0.0,0.0,0.0,0.0,0.0,0.0,0.0,0.0,0.0,0.0,0.0,0.0,0.0,0.0,0.0,0.0,0.0,0.0,0.0,0.0,0.0,0.0,0.0,0.0,0.0,0.0,2.5351,2.5091,2.2959,0.0,0.0,0.0,0.0,0.0,0.0,0.0,0.0,0.0,0.0,3.4585,3.5236,3.6171,0.0,0.0,3.6669,3.6497,3.582,3.6204,3.6127,3.4895,3.6237,0.0,0.0,0.0,0.0,0.0,0.0,0.0,0.0,0.0,0.0,0.0,0.0,0.0,0.0,0.0,0.0,0.0,0.0,0.0,0.0,0.0,0.0,0.0,0.0,0.0,0.0,0.0,0.0,0.0,0.0,0.0,0.0,0.0,0.0,0.0,0.0,0.0,0.0,0.0,0.0,0.0,0.0,0.0,0.0,0.0,0.0,0.0,0.0,0.0,0.0,0.0,0.0,3.357,3.532,3.6646,3.8473,4.0847,3.849,3.7637,3.8516,3.9434,3.9169,0.0,0.0,0.0,0.0,0.0,0.0,0.0,0.0,0.0,0.0,0.0,0.0,0.0,0.0,0.0,0.0,0.0,0.0,0.0,0.0,0.0,0.0,0.0,0.0,0.0,0.0,0.0,0.0,2.6737,2.6774,2.487,0.0,0.0,0.0,0.0,0.0,0.0,0.0,0.0,0.0,0.0,3.5134,3.6252,3.6778,3.7146,3.7414,3.7431,3.7285,3.6976,3.7257,3.7386,3.7055,0.0,0.0,0.0,0.0,0.0,0.0,0.0,0.0,0.0,0.0,0.0,0.0,0.0,0.0,0.0,0.0,0.0,0.0,0.0,0.0,0.0,0.0,0.0,0.0,0.0,0.0,0.0,1.5258,0.0,0.0,1.5343,0.0,0.0,0.0,0.0,0.0,0.0,0.0,0.0,0.0,0.0,0.0,0.0,0.0,0.0,0.0,0.0,0.0,0.0,0.0,0.0,0.0,0.0,3.5194,3.6921,3.7679,3.895,4.0612,3.8444,3.7676,3.8476,3.9394,3.9434,3.8437,0.0,0.0,0.0,0.0,0.0,0.0,0.0,0.0,0.0,0.0,0.0,0.0,0.0,0.0,0.0,0.0,0.0,0.0,0.0,0.0,0.0,0.0,0.0,0.0,0.0,0.0,2.1119,2.4235,2.7274,0.0,0.0,0.0,0.0,0.0,0.0,0.0,0.0,0.0,3.6166,3.6613,3.6671,3.6724,3.7859,3.8347,3.7345,3.8252,3.8701,3.7661,3.7526,3.7753,0.0,0.0,0.0,0.0,0.0,0.0,0.0,0.0,0.0,0.0,0.0,0.0,0.0,0.0,0.0,0.0,0.0,0.0,0.0,0.0,0.0,0.0,0.0,0.0,0.0,0.0,0.0,2.134,2.1843,0.0,0.0,0.0,0.0,0.0,0.0,0.0,0.0,0.0,0.0,0.0,3.2777,3.2695,0.0,0.0,0.0,0.0,0.0,0.0,0.0,0.0,0.0,0.0,0.0,0.0,3.6647,3.7709,3.8507,3.9769,4.1493,4.0796,4.0578,4.0996,4.1308,4.1074,4.0137,0.0,0.0,0.0,0.0,0.0,0.0,0.0,0.0,0.0,0.0,0.0,0.0,0.0,0.0,0.0,0.0,0.0,0.0,0.0,0.0,0.0,0.0,0.0,0.0,0.0,2.6736,0.0,0.0,0.0,0.0,0.0,0.0,0.0,0.0,0.0,0.0,3.3981,3.5875,3.6727,3.7257,3.7777,3.8349,3.8827,3.9197,0.0,0.0,0.0,0.0,0.0,0.0,0.0,0.0,0.0,0.0,0.0,0.0,0.0,0.0,3.6109,3.2772,3.3284,3.4761,3.6374,0.0,0.0,0.0,0.0,0.0,0.0,0.0,0.0,0.0,0.0,0.0,0.0,0.0,0.0,2.6033,2.6677,2.668,0.0,0.0,0.0,0.0,0.0,0.0,0.0,0.0,3.3438,3.4654,3.6354,3.6893,3.6864,3.6559,3.9231,3.7154,0.0,0.0,0.0,0.0,0.0,0.0,0.0,0.0,3.8085,3.8558,3.9315,4.0442,4.1848,4.1986,4.2067,4.2214,4.2041,4.1797,4.1504,3.9648,3.8921,0.0,0.0,0.0,0.0,0.0,0.0,0.0,0.0,0.0,0.0,0.0,0.0,0.0,0.0,0.0,0.0,0.0,0.0,0.0,0.0,0.0,0.0,0.0,2.9852,0.0,0.0,0.0,0.0,0.0,0.0,0.0,0.0,0.0,3.3353,3.5374,3.7038,3.7286,3.8003,3.8772,3.9595,0.0,0.0,0.0,0.0,0.0,0.0,0.0,4.0772,3.917,3.9303,3.9053,3.7371,3.8205,3.9215,3.9496,0.0,0.0,3.6739,3.6467,3.6881,3.756,3.6453,3.5379,3.5408,3.5204,3.5238,0.0,0.0,0.0,0.0,2.7662,0.0,0.0,0.0,2.8776,2.9075,0.0,2.9604,0.0,0.0,0.0,0.0,3.2098,3.3394,0.0,0.0,3.72,3.8377,3.9808,3.9129,3.9166,3.9895,3.975,3.8625,3.6619,3.5388,0.0,0.0,0.0,0.0,0.0,0.0,3.9445,3.9458,4.0207,4.0995,4.1835,4.2038,4.2153,4.2213,4.168,4.1699,4.2285,4.0723,3.9805,3.9824,3.7256,0.0,0.0,0.0,0.0,0.0,0.0,0.0,0.0,0.0,0.0,0.0,0.0,0.0,0.0,0.0,0.0,0.0,0.0,0.0,0.0,2.9803,0.0,0.0,0.0,0.0,0.0,0.0,0.0,0.0,0.0,3.7887,3.6286,3.6704,3.7378,3.8209,0.0,0.0,0.0,0.0,4.1342,4.1377,4.1795,4.1812,4.1019,4.0933,4.0952,4.0858,0.0,0.0,3.6646,3.8302,4.0173,4.1001,4.1126,4.0607,3.9056,3.8358,3.8244,3.8693,3.8491,3.8188,3.7869,3.7983,3.82,3.3293,0.0,0.0,0.0,0.0,3.0396,3.0596,3.0968,3.0903,3.1265,3.1947,3.1938,0.0,0.0,0.0,0.0,0.0,0.0,3.6443,3.8865,3.8517,3.9496,4.157,4.0799,4.0543,4.0763,4.0698,4.0068,3.9024,3.9153,3.8952,3.8404,0.0,0.0,0.0,0.0,4.0041,4.0261,4.1604,4.247,4.272,4.3934,4.4369,4.3962,4.3853,4.334,4.2422,4.1894,4.1328,4.0703,4.1097,0.0,0.0,0.0,0.0,0.0,0.0,0.0,0.0,0.0,0.0,0.0,0.0,0.0,0.0,0.0,0.0,0.0,0.0,0.0,3.1502,3.4884,3.7024,0.0,0.0,0.0,0.0,0.0,0.0,0.0,0.0,0.0,3.9648,3.9237,3.9672,0.0,0.0,4.1039,4.295,4.2854,4.2577,4.2593,4.2716,0.0,4.247,4.3207,4.3399,4.2284,4.1131,3.9508,3.6777,3.8489,4.0803,4.2478,4.1882,4.0914,4.0529,4.0299,4.0266,4.0349,4.0042,3.9581,3.9104,3.8992,3.8911,3.552,3.4949,3.4044,3.3494,3.3179,3.3351,3.3669,3.4161,3.435,3.4839,3.5514,3.5688,3.5473,3.4921,3.4921,0.0,0.0,0.0,3.798,3.9696,3.9498,4.0348,4.194,4.1433,4.1468,4.2158,4.2081,4.1646,4.0855,4.1493,4.1779,4.165,0.0,4.0046,4.1705,4.1015,4.0712,4.0875,4.2321,4.3256,4.3605,4.4951,4.5507,4.5188,4.4938,4.4355,4.3457,4.2754,4.2305,4.209,4.3105,4.219,0.0,0.0,0.0,0.0,0.0,0.0,0.0,0.0,0.0,0.0,0.0,2.6193,2.5455,0.0,0.0,0.0,3.3037,3.421,3.5655,3.8416,0.0,0.0,0.0,0.0,0.0,0.0,0.0,3.4182,3.7873,4.1117,4.2047,4.1382,4.1185,4.2309,4.2059,4.2357,4.3991,0.0,4.3701,4.4032,4.3799,4.347,4.3162,4.3732,4.3865,4.2773,4.2058,4.0976,3.9122,4.042,4.2382,4.3818,4.3646,4.2949,4.2745,4.2855,4.3002,4.2965,4.187,4.0972,4.1056,4.0491,3.994,3.6675,3.6632,3.5449,3.5112,3.548,3.6146,3.6818,3.7595,3.8207,3.8825,3.9312,3.9807,3.9358,3.8289,3.836,0.0,3.8453,3.9194,3.9605,3.9693,4.0376,4.1117,4.1849,4.151,4.2221,4.3822,4.3855,4.3328,4.2362,4.2667,4.3193,4.3774,4.1595,4.0304,4.0052,4.0886,4.1338,4.1417,4.2543,4.3568,4.4393,4.5315,4.5815,4.589,4.5235,4.4922,4.4941,4.3457,4.293,4.3652,4.3574,4.3613,4.3926,0.0,0.0,0.0,0.0,0.0,0.0,0.0,0.0,0.0,0.0,0.0,0.0,0.0,0.0,3.4919,3.7226,0.0,3.9912,4.0722,0.0,0.0,0.0,4.0801,4.0009,4.1335,4.1388,3.9065,0.0,0.0,4.3666,4.3075,4.2285,4.1426,4.2587,4.3701,4.4283,4.4504,4.4816,4.5605,4.5028,4.4278,4.3816,4.3607,4.3499,4.3311,4.2946,4.2902,4.264,4.3398,4.4716,4.5773,4.5993,4.5755,4.5278,4.5516,4.6012,4.5975,4.4033,4.2567,4.3251,4.2714,4.214,3.5444,3.6056,3.6831,3.7166,3.7279,3.7466,3.7636,3.7789,3.7976,3.8138,3.8259,3.838,3.8277,3.8037,3.897,3.9373,3.9425,4.0569,4.1417,4.1982,4.2176,4.267,4.3456,4.335,4.3518,4.4076,4.6132,4.553,4.2665,4.3063,4.282,4.1825,4.1217,4.1768,4.329,4.2156,4.1763,4.2197,4.3156,4.4173,4.5259,4.5528,4.5719,4.5815,4.5666,4.5343,4.4863,4.4473,4.4062,4.3691,4.248,4.2988,4.5566,4.7138,0.0,0.0,0.0,0.0,0.0,0.0,0.0,0.0,0.0,3.4442,3.328,0.0,3.9744,0.0,3.976,4.0593,4.0742,4.2085,0.0,0.0,4.3481,4.3486,4.2811,4.2468,4.2492,4.3064,4.2689,4.2903,4.4231,4.4391,4.4316,4.4082,4.4277,4.5017,4.6422,4.6491,4.649,4.6799,4.6549,4.6297,4.6144,4.5547,4.526,4.607,4.5994,4.5918,4.6033,4.6415,4.6852,4.7052,4.6707,4.6396,4.6342,4.6599,4.704,4.748,4.6214,4.4875,4.4819,4.5617,4.6024,3.595,3.675,3.8252,3.9042,3.936,3.9377,3.9377,3.9394,3.9715,3.9868,3.9834,3.9529,3.9508,3.9816,4.0175,4.0329,4.0446,4.1423,4.2168,4.2566,4.293,4.3311,4.3759,4.4126,4.4397,4.4703,4.6034,4.5816,4.4237,4.3884,4.3376,4.2693,4.2429,4.2907,4.4002,4.2433,4.2127,4.3152,4.3969,4.4703,4.5342,4.5513,4.6046,4.6947,4.6192,4.6033,4.6505,4.5431,4.4961,4.5254,4.2695,4.2051,4.3965,4.6241,4.7806,0.0,0.0,0.0,0.0,0.0,0.0,0.0,0.0,0.0,0.0,0.0,4.1966,4.1533,4.1992,4.2275,4.222,4.3082,4.3808,4.4238,4.4257,4.4266,4.4257,4.3826,4.3591,4.3808,4.3555,4.3887,4.5156,4.5058,4.5019,4.5508,4.5508,4.5824,4.6737,4.7023,4.7472,4.8585,4.8068,4.7433,4.7337,4.6778,4.6567,4.7144,4.7375,4.7548,4.7969,4.793,4.8005,4.8381,4.7893,4.7407,4.7609,4.7647,4.7829,4.8031,4.7607,4.6947,4.6598,4.7466,4.7829,3.6876,3.7633,3.9155,4.0287,4.1043,4.1144,4.1266,4.1373,4.2016,4.2303,4.2252,4.161,4.1614,4.2095,4.1682,4.1491,4.1525,4.2252,4.2591,4.2625,4.3267,4.3572,4.3572,4.4299,4.4871,4.5356,4.4953,4.5166,4.5922,4.4725,4.43,4.4583,4.3981,4.3677,4.3631,4.2382,4.2482,4.3979,4.4808,4.5249,4.5268,4.5688,4.6737,4.8274,4.6904,4.6882,4.8502,4.6466,4.5909,4.7164,4.4258,4.2402,4.2266,4.4414,4.6406,0.0,4.561,0.0,0.0,0.0,0.0,0.0,0.0,0.0,0.0,4.214,4.2999,4.3859,4.389,4.3945,4.416,4.4199,4.4551,4.5371,4.4824,4.4667,4.538,4.5388,4.4863,4.3652,4.4297,4.5215,4.6074,4.543,4.5234,4.6055,4.623,4.6426,4.6797,4.7216,4.8204,5.0449,4.9548,4.851,4.8106,4.8048,4.8125,4.7971,4.8202,4.8606,4.9144,4.8874,4.8856,4.966,4.9144,4.8623,4.8993,4.8734,4.8508,4.871,4.8467,4.8245,4.8339,4.8579,4.8943,3.5357,3.6169,3.7646,3.8947,4.0205,4.0788,4.1445,4.21,4.2236,4.2303,4.2286,4.2134,4.2172,4.2275,4.278,4.3014,4.3047,4.3792,4.413,4.4147,4.4299,4.435,4.435,4.4512,4.4691,4.4814,4.5338,4.5262,4.4666,4.4888,4.4688,4.412,4.3436,4.362,4.4599,0.0,0.0,0.0,4.5363,4.6091,4.6129,4.7088,4.7798,4.8143,4.785,0.0,4.8312,4.7899,4.7514,4.7295,4.8652,0.0,0.0,0.0,0.0,0.0,0.0,0.0,0.0,0.0,0.0,0.0,4.364,4.3615,4.3188,4.3958,4.4798,4.5514,4.5105,4.5332,4.6719,4.6855,4.7207,4.8027,4.8008,4.7932,4.7984,4.7463,4.7012,4.6914,4.6348,4.6055,4.6308,4.6094,4.6094,4.6367,4.6308,4.707,4.8789,4.8633,4.9101,5.067,5.0567,5.0183,5.0086,5.1087,5.1395,5.0529,5.0106,5.0221,5.026,5.024,5.0202,5.0548,5.0019,4.9709,4.9859,4.9584,4.9556,5.0196,4.9288,4.8492,4.92,4.9878,5.0259,3.5906,3.6738,3.8121,3.9406,0.0,4.1181,4.1759,4.2153,4.2608,4.3037,4.342,4.3403,4.3403,4.3436,4.3826,4.3978,4.4012,4.4401,4.457,4.457,4.457,4.457,4.457,4.457,4.457,4.4626,4.4992,4.5128,4.4923,4.4871,4.4806,4.4569,4.3535,4.3483,4.4367,4.3919,4.3687,4.3758,4.5096,4.5779,4.5795,4.7097,4.824,4.9105,4.8477,0.0,0.0,0.0,0.0,0.0,0.0,0.0,0.0,4.6055,0.0,4.4961,4.6105,4.6558,4.6137,4.6113,4.595,4.5584,4.5956,4.5635,4.4406,4.5526,4.6451,4.6808,4.6869,4.7249,4.8029,4.8137,4.8463,4.9215,4.8972,4.8838,4.9097,4.8526,4.7996,4.7727,4.6918,4.6667,4.7851,4.8516,4.8398,4.7793,4.834,4.9043,4.9726,4.9668,5.0156,5.2056,5.1373,5.0702,5.0914,5.2896,5.3818,5.2377,5.1587,5.1144,5.076,5.0683,5.0856,5.1375,5.1503,5.1516,5.1299,5.0878,5.062,5.097,5.0922,5.0826,5.1312,5.1706,5.1765,3.6995,3.7661,3.8835,3.9757,4.0498,4.1132,4.1563,4.1804,4.2724,0.0,0.0,4.4145,4.4162,4.4152,4.4162,4.4253,4.4384,4.4384,4.444,4.457,4.457,4.457,4.457,4.457,4.457,4.457,4.457,4.4869,4.532,4.4869,4.4763,4.4953,4.3846,4.3318,4.3519,4.4195,4.4217,4.3684,4.4954,4.5634,4.5687,4.7099,4.8621,5.0221,4.9087,4.9221,5.076,4.949,4.9394,5.0741,4.9587,4.9596,5.1058,4.8236,4.5932,4.4738,4.5758,4.6504,4.6504,4.5987,4.5976,4.6693,4.7557,4.7383,4.5801,4.7012,4.791,4.8027,4.873,4.9118,4.9123,4.9183,4.9406,4.9975,4.9404,4.9287,4.9839,4.9412,4.8844,4.8302,4.7769,4.7952,5.0045,5.1172,5.123,4.9902,5.0332,5.1387,5.0976,5.0996,5.1621,5.3125,5.2775,5.1831,5.162,5.2781,5.4282,5.3205,5.2396,5.1702,5.1164,5.0837,5.1241,5.249,5.3163,5.3379,5.308,5.2496,5.2071,5.2192,5.2712,5.3327,5.3597,5.3847,5.3801,3.7338,3.7474,3.7669,3.8114,3.8726,3.8871,3.9619,4.093,4.1804,4.2264,4.2358,4.2359,4.2388,4.2358,4.2359,4.2785,4.3443,4.3502,4.3873,4.457,4.457,4.457,4.457,4.457,4.457,4.457,4.457,4.4626,4.472,4.4626,4.4669,4.4575,4.3786,4.3049,4.2504,4.3424,4.3987,4.3878,4.6135,4.7355,4.7383,4.8565,4.9504,5.0064,4.9928,5.0087,5.0683,5.0471,5.0471,5.0702,5.051,5.0528,5.069,4.8623,4.7472,4.7758,4.745,4.7246,4.7266,4.7944,4.8348,4.8412,4.9268,4.9414,4.8476,4.8574,4.9043,4.9726,4.9941,5.0254,5.0754,5.0875,5.0875,5.0892,5.0834,5.0815,5.0756,5.072,5.0529,5.0198,5.0394,5.0874,5.2337,5.3206,5.291,5.1426,5.1445,5.1933,5.3105,5.3476,5.3535,5.3965,5.4977,5.4914,5.3623,5.1992,5.2376,5.3068,5.2472,5.201,5.1896,5.1376,5.1702,5.3469,5.4701,5.5113,5.4823,5.4381,5.4468,5.5023,5.4484,5.3912,5.4988,5.6135,5.6639,3.7095,3.7225,3.8106,3.8676,3.8945,3.8945,3.9324,3.9975,4.0378,4.1119,4.1948,4.1981,4.1978,4.1976,4.2011,4.2189,4.2583,4.2583,4.2785,4.3196,4.3195,4.3195,4.3169,4.3166,4.3427,4.3889,4.3873,4.4138,4.457,4.457,4.457,4.4575,4.4085,4.3117,4.1866,4.3585,4.4418,4.4109,4.6232,4.7376,4.7404,4.8546,4.938,4.9746,4.9972,5.0298,5.0664,5.0683,5.0683,5.0683,5.1279,5.1337,5.0721,5.0394,5.049,5.0951,4.9533,4.8651,4.8644,4.9098,4.9364,4.9329,5.0169,5.0538,5.0132,5.0188,5.041,5.0801,5.084,5.0906,5.1127,5.1196,5.1145,5.0914,5.0933,5.1048,5.1375,5.1491,5.1318,5.0816,5.0815,5.1835,5.4262,5.4773,5.4334,5.2883,5.295,5.3926,5.5156,5.539,5.539,5.539,5.6074,5.6172,5.5312,5.4463,5.3343,5.2222,5.2356,5.228,5.1857,5.1549,5.3222,5.5662,5.6797,5.6986,5.6803,5.6488,5.6516,5.6652,5.6294,5.5933,5.6603,5.7389,5.7316,3.6664,3.6796,3.8414,3.9177,3.9424,3.9424,3.9424,3.9424,3.9424,4.0185,4.1295,4.1412,4.1392,4.1403,4.1419,4.1543,4.1674,4.1739,4.1788,4.1965,4.1964,4.198,4.2013,4.1989,4.2365,4.2958,4.2986,4.335,4.3931,4.3989,4.4121,4.4282,4.4192,4.3202,4.1543,4.3837,4.4688,4.4173,4.6081,4.7224,4.7407,4.8307,4.8953,4.9356,4.9758,5.0136,5.0565,5.0663,5.0683,5.0741,5.1722,5.1972,5.1356,5.2202,5.3047,5.3488,5.1739,5.0465,5.0287,5.0149,5.0091,5.0072,5.0687,5.1097,5.1069,5.1238,5.132,5.1333,5.1308,5.1245,5.1139,5.1305,5.126,5.101,5.1202,5.1606,5.2106,5.2183,5.2048,5.1508,5.1353,5.2469,5.4839,5.5688,5.5267,5.4563,5.4878,5.5664,5.6367,5.6543,5.6543,5.6601,5.6621,5.6406,5.6308,5.5898,5.4473,5.1591,5.2259,5.257,5.203,5.2415,5.4222,5.7124,5.8665,5.8684,5.8604,5.8246,5.8077,5.8178,5.8102,5.7976,5.7557,5.7777,5.7693,3.6258,3.6443,3.7468,3.8546,3.9265,3.9352,3.9337,3.9337,3.9352,3.9496,3.9666,3.9595,3.9655,3.9616,3.967,4.013,4.0826,4.0826,4.1198,4.1836,4.1992,4.196,4.1901,4.1923,4.2039,4.2094,4.2125,4.2205,4.2379,4.2316,4.2661,4.3343,4.348,4.3102,4.2494,4.3717,4.4153,4.3471,4.6031,4.7624,4.8159,4.8306,4.855,4.8911,4.9348,4.9717,5.0135,5.0504,5.0683,5.0741,5.1529,5.226,5.2856,5.3087,5.3857,5.5241,5.3914,5.2781,5.2068,5.1394,5.0912,5.0836,5.0952,5.1029,5.0951,5.1082,5.1145,5.1186,5.1228,5.123,5.1028,5.1684,5.2067,5.1875,5.251,5.3164,5.3087,5.3087,5.3222,5.3666,5.3201,5.3682,5.5303,5.5686,5.5745,5.5692,5.5755,5.6055,5.6348,5.6445,5.6484,5.6562,5.6621,5.6191,5.5527,5.4941,5.4473,5.3105,5.271,5.3177,5.3474,5.2531,5.2626,5.8027,5.9796,6.005,5.9627,5.935,5.9446,5.9548,5.9741,5.9834,5.8505,5.8015,5.7886,3.5278,3.5453,3.6462,3.7098,3.7482,3.7482,3.7482,3.7482,3.7482,3.789,3.8383,3.8472,3.8782,3.9352,3.9424,3.961,3.9935,3.992,4.013,4.0462,4.0477,4.0462,4.0493,4.0477,4.0708,4.1229,4.1213,4.1478,4.1917,4.1981,4.2458,4.3213,4.3289,4.3427,4.3673,4.4238,4.4507,4.461,4.5705,4.6584,4.7194,4.7937,4.8477,4.8863,4.9062,4.9326,4.97,4.9924,5.0321,5.1044,5.1871,5.2571,5.3163,5.4145,5.4972,5.5588,5.4684,5.3473,5.2165,5.1761,5.1337,5.0818,5.0818,5.0837,5.0818,5.1433,5.1799,5.1672,5.2085,5.2184,5.176,5.2414,5.2895,5.276,5.3049,5.3472,5.3933,5.3972,5.4222,5.4858,5.4818,5.4876,5.5513,5.5705,5.578,5.5996,5.6029,5.6135,5.6329,5.6405,5.6445,5.6582,5.6621,5.6445,5.5976,5.6328,5.5937,5.5234,5.4849,5.516,5.5415,5.2897,5.2779,5.8989,6.0242,6.0666,6.0358,6.0281,6.0344,6.0506,6.0246,5.9975,5.8781,5.8474,5.8326,3.4275,3.4428,3.5346,3.5974,3.6198,3.6198,3.6198,3.6198,3.6198,3.6604,3.7329,3.7343,3.7979,3.8943,3.9265,3.9424,3.9424,3.9424,3.9424,3.9424,3.9424,3.9424,3.9424,3.9424,3.9737,4.0239,4.0309,4.0638,4.1295,4.1543,4.1981,4.252,4.2831,4.3366,4.4138,4.4253,4.4558,4.5196,4.5394,4.5718,4.6293,4.7409,4.8194,4.8494,4.8748,4.9023,4.9326,4.9442,4.9995,5.1083,5.2069,5.2781,5.324,5.478,5.5684,5.5626,5.4953,5.3972,5.2665,5.2164,5.1664,5.1106,5.0856,5.0798,5.1125,5.1856,5.2337,5.2396,5.3243,5.3532,5.2626,5.3183,5.3626,5.3568,5.3722,5.4164,5.4741,5.4838,5.503,5.5588,5.5549,5.5684,5.5684,5.5703,5.5742,5.5821,5.584,5.5955,5.6249,5.644,5.6699,5.6894,5.709,5.7031,5.6777,5.7168,5.7344,5.7207,5.6797,5.7289,5.8007,5.5013,5.3954,6.0127,6.0608,6.0762,6.0646,6.0723,6.0772,6.0693,6.0425,5.9969,5.9309,5.9064,5.865,3.3154,3.3313,3.4345,3.5278,3.6198,3.6119,3.6119,3.596,3.6119,3.6198,3.629,3.6277,3.6852,3.7919,3.8782,3.9352,3.9424,3.9424,3.9424,3.9424,3.9424,3.9424,3.9424,3.9424,3.9424,3.9538,3.961,3.961,3.9681,4.0378,4.0758,4.0878,4.1722,4.2569,4.3421,4.3575,4.3848,4.4834,4.5314,4.5511,4.5648,4.6774,4.7409,4.7512,4.8389,4.8882,4.899,4.9319,4.9922,5.0711,5.1923,5.2796,5.3334,5.4818,5.5684,5.5626,5.4972,5.4511,5.4124,5.2855,5.1895,5.1741,5.1164,5.1029,5.1683,5.2279,5.2741,5.3106,5.4491,5.478,5.3606,5.401,5.4453,5.4491,5.5088,5.5453,5.5568,5.5511,5.5626,5.5684,5.5684,5.5684,5.5684,5.5684,5.5703,5.5722,5.5722,5.5857,5.6167,5.671,5.728,5.7674,5.8066,5.8281,5.7109,5.7734,5.8066,5.8105,5.8594,5.916,5.9765,6.0114,6.0527,6.0627,6.0742,6.08,6.08,6.0791,6.0795,6.0693,6.048,6.0049,5.987,5.9559,5.914,3.2339,3.3154,3.3471,3.3856,3.4178,3.4262,3.4165,3.4178,3.4249,3.465,3.521,3.521,3.5828,3.676,3.7161,3.813,3.9337,3.9424,3.9424,3.9424,3.9424,3.9424,3.9424,3.9424,3.9424,3.9424,3.9424,3.9424,3.9409,3.9737,4.0185,4.0783,4.1429,4.2746,4.4371,4.4673,4.5136,4.5865,4.5801,4.5401,4.5049,4.5749,4.6178,4.6257,4.7723,4.8493,4.8513,4.9159,5.0028,5.1101,5.2061,5.3281,5.4655,5.5357,5.5684,5.5665,5.5434,5.5049,5.447,5.3413,5.2491,5.1933,5.1664,5.1548,5.2049,5.2991,5.3837,5.4184,5.4991,5.528,5.5088,5.5107,5.5261,5.5318,5.5511,5.5684,5.5684,5.5684,5.5684,5.5684,5.5684,5.5684,5.578,5.5703,5.5684,5.5761,5.6179,5.6544,5.6819,5.7489,5.8104,5.8296,5.8568,5.8831,5.9101,5.9219,5.9551,5.9765,6.0137,6.0488,6.0996,6.1055,6.123,6.084,6.0858,6.08,6.08,6.08,6.08,6.0756,6.052,6.0455,6.046,6.0076,5.9545,3.1146,3.1789,3.1877,3.1877,3.1977,3.2339,3.2513,3.2525,3.2884,3.3471,3.4121,3.4191,3.4733,3.5588,3.5734,3.6618,3.8204,3.8383,3.8531,3.8855,3.887,3.9031,3.9352,3.9424,3.9424,3.9424,3.9424,3.9514,3.9723,3.9738,4.016,4.0928,4.1413,4.2669,4.4589,4.4657,4.5145,4.6235,4.5747,4.5093,4.4998,4.5299,4.5632,4.608,4.7492,4.8393,4.8415,4.916,5.0215,5.1459,5.2233,5.3483,5.526,5.564,5.5684,5.5684,5.5684,5.5491,5.4855,5.3836,5.2953,5.2375,5.2068,5.1991,5.2375,5.3683,5.4491,5.4934,5.5318,5.5684,5.5684,5.5684,5.5684,5.5684,5.5684,5.5684,5.5684,5.5684,5.5684,5.5684,5.5684,5.5915,5.6379,5.6263,5.634,5.6453,5.7078,5.7443,5.7643,5.8261,5.8873,5.905,5.9359,5.9832,6.0108,6.0351,6.0547,6.0762,6.082,6.1328,6.1582,6.164,6.1543,6.1133,6.0896,6.0819,6.08,6.08,6.08,6.08,6.0734,6.0649,6.0602,6.0472,6.0036,2.951,2.959,2.9396,2.967,2.9863,3.0765,3.1211,3.1376,3.2413,3.2859,3.3041,3.3043,3.37,3.4498,3.4664,3.5292,3.6053,3.6212,3.6774,3.7753,3.7814,3.8308,3.909,3.9017,3.9104,3.9294,3.9427,3.9828,4.0292,4.0382,4.0755,4.125,4.146,4.2386,4.3842,4.3544,4.4167,4.5783,4.528,4.497,4.5544,4.5674,4.5926,4.6568,4.7842,4.8569,4.8658,4.9382,5.049,5.1783,5.238,5.3409,5.4827,5.538,5.5643,5.5585,5.5645,5.5662,5.5472,5.4087,5.3203,5.3106,5.2452,5.2395,5.3203,5.4068,5.4895,5.5434,5.5626,5.5684,5.5684,5.5684,5.5684,5.5684,5.5684,5.5684,5.5684,5.5684,5.5722,5.578,5.5838,5.6494,5.7555,5.7497,5.7283,5.78,5.8158,5.8289,5.8393,5.9008,5.9527,5.9858,6.014,6.0539,6.0924,6.1269,6.1406,6.1523,6.1484,6.168,6.166,6.1699,6.1621,6.1283,6.0991,6.0908,6.0916,6.0916,6.08,6.08,6.08,6.08,6.071,6.0597,6.0512,2.9379,2.9407,2.9396,2.9396,2.9407,2.9863,2.9942,2.9973,3.0415,3.098,3.1686,3.1819,3.2476,3.3386,3.3641,3.3797,3.4095,3.4095,3.5047,3.6489,3.671,3.693,3.7161,3.7238,3.7572,3.8512,3.9993,4.0636,4.0487,4.0861,4.1205,4.1399,4.1911,4.2697,4.3731,4.4079,4.4977,4.6241,4.6042,4.6055,4.6439,4.6408,4.6505,4.6806,4.7523,4.8443,4.9538,5.0664,5.1449,5.2022,5.2651,5.3383,5.4112,5.4621,5.484,5.4902,5.514,5.5274,5.5141,5.4047,5.347,5.374,5.3259,5.3299,5.403,5.4797,5.5355,5.5643,5.5684,5.5684,5.5684,5.5684,5.5684,5.5684,5.5684,5.5703,5.578,5.5742,5.6013,5.6494,5.6588,5.7104,5.7934,5.7976,5.805,5.8396,5.8816,5.9123,5.9238,5.98,6.0377,6.0531,6.0839,6.0896,6.1032,6.1116,6.1242,6.1422,6.1562,6.166,6.168,6.1699,6.1621,6.1467,6.1162,6.0993,6.1023,6.0981,6.0872,6.0804,6.08,6.08,6.08,6.0723,6.0608,2.8381,2.8529,2.8369,2.8401,2.854,2.8921,2.9206,2.9276,2.9717,3.0354,3.0968,3.104,3.1715,3.2751,3.2941,3.3219,3.3671,3.3696,3.4401,3.5498,3.5629,3.5828,3.6146,3.6177,3.6633,3.7863,4.013,4.1037,4.0521,4.1367,4.1878,4.2162,4.2554,4.2967,4.3609,4.4018,4.4889,4.6164,4.6092,4.6385,4.6986,4.6938,4.6938,4.7242,4.7795,4.8744,4.996,5.129,5.2181,5.248,5.2944,5.3363,5.3777,5.396,5.418,5.4504,5.4737,5.4874,5.4753,5.3866,5.3413,5.3809,5.3517,5.3397,5.4052,5.4759,5.5218,5.5237,5.5375,5.5489,5.547,5.564,5.5684,5.5684,5.5684,5.5838,5.6049,5.6186,5.6436,5.6994,5.7316,5.8027,5.8858,5.8858,5.8954,5.9204,5.9642,5.9969,6.0089,6.0435,6.0685,6.08,6.08,6.0858,6.0896,6.0958,6.1016,6.1217,6.1406,6.1523,6.1601,6.168,6.166,6.1582,6.1353,6.1126,6.1117,6.1003,6.0906,6.0862,6.0819,6.08,6.08,6.08,6.0723,2.6728,2.6943,2.6592,2.6812,2.7219,2.8184,2.8561,2.887,2.9774,3.0262,3.0447,3.0485,3.1251,3.2359,3.2626,3.3283,3.4404,3.46,3.4537,3.4818,3.4821,3.5232,3.5846,3.5722,3.6088,3.7344,3.9586,4.0697,4.0611,4.1642,4.2701,4.3056,4.3195,4.3314,4.3334,4.3344,4.4358,4.5888,4.5619,4.6224,4.7815,4.7378,4.731,4.7919,4.8518,4.921,5.0039,5.1321,5.2401,5.3054,5.3188,5.3359,5.3586,5.3381,5.3624,5.4293,5.4413,5.4528,5.4365,5.3732,5.3404,5.3683,5.3445,5.3245,5.3596,5.4243,5.464,5.4659,5.4876,5.5069,5.5122,5.538,5.5599,5.5722,5.5838,5.6203,5.686,5.6975,5.7283,5.7607,5.8123,5.8927,6.0285,5.9919,6.0035,6.0358,6.0608,6.0608,6.0646,6.0704,6.0762,6.08,6.08,6.08,6.0858,6.0858,6.0896,6.0999,6.1196,6.1328,6.1484,6.1582,6.1699,6.1621,6.1514,6.1325,6.1196,6.1132,6.1041,6.101,6.0958,6.0839,6.0839,6.0896,6.0923,2.6943,2.6992,2.6894,2.6914,2.7012,2.7399,2.7461,2.7472,2.7854,2.8717,2.9188,2.9247,3.0057,3.1258,3.2253,3.2897,3.3538,3.4297,3.4726,3.4688,3.473,3.4793,3.4853,3.4312,3.4925,3.6452,3.7547,3.8725,4.0517,4.1439,4.2357,4.325,4.3344,4.3344,4.3344,4.3344,4.4343,4.5873,4.6045,4.6794,4.8303,4.8511,4.8528,4.8646,4.8882,4.9342,5.0051,5.1361,5.2419,5.3091,5.3206,5.323,5.3359,5.3272,5.3336,5.3582,5.3884,5.4292,5.4515,5.3848,5.3818,5.4754,5.379,5.3491,5.4126,5.4352,5.4503,5.4535,5.4609,5.4655,5.4733,5.5019,5.5336,5.5717,5.6198,5.672,5.7049,5.7588,5.8207,5.8842,5.9065,5.9738,6.0358,6.0631,6.0473,6.0704,6.08,6.08,6.08,6.08,6.08,6.08,6.08,6.08,6.08,6.08,6.08,6.0843,6.096,6.1074,6.1269,6.1445,6.1562,6.164,6.1543,6.1387,6.1393,6.1375,6.1283,6.1155,6.1106,6.1073,6.1135,6.1208,6.1161,2.7393,2.7529,2.7363,2.7393,2.7539,2.7549,2.7559,2.7549,2.7568,2.7927,2.8473,2.8619,2.9328,3.0591,3.1294,3.2379,3.3458,3.425,3.4848,3.5429,3.5416,3.5244,3.4698,3.3995,3.4532,3.5788,3.625,3.794,4.0027,4.1179,4.2179,4.3076,4.3344,4.3344,4.3344,4.3329,4.4051,4.5416,4.5992,4.6952,4.8306,4.8798,4.9001,4.9001,4.9018,4.93,5.0017,5.0801,5.1638,5.2527,5.2999,5.3206,5.3206,5.3206,5.3206,5.3243,5.372,5.4289,5.4509,5.4057,5.4204,5.469,5.3869,5.3588,5.3776,5.3943,5.3961,5.3925,5.4102,5.418,5.4282,5.4595,5.5104,5.566,5.6446,5.7111,5.7466,5.83,5.913,5.9784,6.0089,6.0181,6.0762,6.0781,6.08,6.08,6.08,6.08,6.08,6.08,6.08,6.08,6.08,6.08,6.08,6.08,6.08,6.0823,6.0843,6.0916,6.106,6.1285,6.1406,6.1484,6.1484,6.1482,6.1461,6.1448,6.1401,6.1303,6.1283,6.1254,6.129,6.1369,6.137,2.7949,2.8252,2.7881,2.7949,2.8232,2.8281,2.8203,2.8262,2.8213,2.8242,2.8271,2.8291,2.8971,3.011,3.0437,3.1691,3.3714,3.411,3.5257,3.5924,3.6157,3.5805,3.5073,3.5002,3.5244,3.5777,3.6157,3.7735,3.9619,4.0986,4.2029,4.2996,4.3344,4.3344,4.3344,4.3344,4.3849,4.4856,4.585,4.6678,4.7737,4.8513,4.9001,4.9018,4.9018,4.9249,4.9712,5.0138,5.0667,5.1825,5.2725,5.3164,5.3206,5.3206,5.3206,5.3329,5.3879,5.4367,5.4422,5.4381,5.435,5.4344,5.3737,5.3225,5.3295,5.3336,5.3336,5.3378,5.3526,5.374,5.3924,5.4262,5.4877,5.563,5.6441,5.7332,5.817,5.9008,5.9784,6.0512,6.0627,6.0723,6.0742,6.0762,6.08,6.08,6.08,6.08,6.08,6.08,6.08,6.08,6.08,6.08,6.08,6.08,6.08,6.08,6.08,6.0862,6.0888,6.1079,6.1215,6.1281,6.1343,6.1387,6.1385,6.1385,6.1397,6.1388,6.1307,6.1275,6.13,6.1449,6.1505,2.8213,2.8291,2.8193,2.8213,2.8291,2.8301,2.8301,2.8301,2.8301,2.8301,2.8301,2.8301,2.8495,2.8794,2.9807,3.0721,3.1735,3.3365,3.5078,3.6263,3.637,3.6282,3.5994,3.595,3.6013,3.6238,3.637,3.7665,3.9434,4.0232,4.1351,4.2996,4.325,4.3344,4.3344,4.3329,4.3771,4.4796,4.5706,4.6609,4.7523,4.8513,4.9018,4.9018,4.9018,4.9052,4.9266,4.9729,5.0137,5.0803,5.2036,5.2893,5.3164,5.3206,5.328,5.3537,5.4026,5.4459,5.4477,5.4576,5.4436,5.4418,5.3812,5.3206,5.3206,5.3206,5.3206,5.3206,5.3314,5.3484,5.372,5.4152,5.48,5.5636,5.6629,5.7509,5.8167,5.8915,5.9509,5.9763,6.0071,6.0258,6.0272,6.0537,6.0657,6.0738,6.0757,6.0757,6.0742,6.0681,6.07,6.0638,6.08,6.08,6.08,6.08,6.08,6.08,6.08,6.08,6.085,6.0891,6.1053,6.1169,6.1248,6.1264,6.1244,6.1322,6.1334,6.1305,6.1295,6.1333,6.1375,6.1514,6.1543,2.8301,2.8301,2.8301,2.8301,2.8301,2.8301,2.8301,2.8301,2.8301,2.8301,2.8301,2.8301,2.8301,2.8291,2.9006,2.9608,3.0824,3.3155,3.5078,3.6168,3.637,3.637,3.637,3.637,3.637,3.637,3.6452,3.7507,3.8738,3.9711,4.0845,4.2467,4.2996,4.3265,4.3344,4.3344,4.3551,4.4266,4.5473,4.6468,4.6984,4.8306,4.9018,4.9018,4.9018,4.9018,4.9052,4.93,4.9511,4.9808,5.0643,5.1958,5.3017,5.3243,5.3542,5.4283,5.4651,5.5163,5.5401,5.5493,5.5416,5.4932,5.4197,5.3647,5.3335,5.3206,5.3206,5.3206,5.3206,5.3314,5.3521,5.4078,5.4741,5.5591,5.6559,5.7371,5.803,5.8845,5.9454,5.9562,5.9748,5.9904,6.002,6.0132,6.0122,6.0046,6.0038,6.0049,6.0123,6.0123,6.0378,6.0455,6.07,6.08,6.08,6.08,6.08,6.08,6.08,6.08,6.0804,6.0843,6.09,6.0997,6.11,6.1092,6.1077,6.1169,6.1206,6.1111,6.1123,6.1289,6.1386,6.1393,6.142,2.8301,2.8301,2.8301,2.8301,2.8301,2.8301,2.8301,2.8301,2.8301,2.8504,2.8495,2.8388,2.8495,2.8698,2.8804,2.9513,3.1235,3.2744,3.4666,3.6263,3.637,3.637,3.637,3.637,3.637,3.637,3.637,3.7163,3.8198,3.9271,4.0589,4.167,4.2805,4.325,4.3344,4.3344,4.3329,4.366,4.5223,4.6191,4.6588,4.8015,4.894,4.9018,4.9018,4.9018,4.9018,4.9052,4.9124,4.9152,4.9046,5.0407,5.2185,5.3555,5.4062,5.552,5.5619,5.5893,5.609,5.63,5.6033,5.5464,5.462,5.3922,5.3371,5.3206,5.3206,5.3206,5.3225,5.3298,5.3427,5.4234,5.4987,5.5772,5.6536,5.7244,5.7939,5.8735,5.914,5.9362,5.9337,5.9414,5.942,5.9412,5.9398,5.9367,5.9381,5.94,5.9528,5.9641,5.9903,6.0064,6.0236,6.0389,6.0417,6.0311,6.0338,6.0475,6.0546,6.0545,6.0526,6.0374,6.0393,6.0777,6.0885,6.0894,6.0935,6.0997,6.0995,6.0877,6.0949,6.1099,6.1192,6.1227,6.1238,2.8301,2.8301,2.8301,2.8291,2.8301,2.8301,2.8301,2.8301,2.8301,2.9006,2.9713,2.891,2.9006,2.9702,3.0016,3.1338,3.2955,3.3464,3.4252,3.6061,3.637,3.637,3.637,3.637,3.637,3.637,3.6452,3.6964,3.803,3.9271,4.0404,4.1587,4.2725,4.3265,4.3344,4.3344,4.3329,4.3708,4.5204,4.6191,4.671,4.795,4.9001,4.9018,4.9018,4.9018,4.9018,4.9063,4.9256,4.9705,4.9299,4.9993,5.1543,5.3608,5.4998,5.5564,5.5985,5.6118,5.6127,5.5916,5.5438,5.4675,5.4087,5.3555,5.328,5.3206,5.3206,5.3243,5.3298,5.35,5.4161,5.4895,5.5702,5.6492,5.7189,5.7758,5.7969,5.8231,5.8388,5.8585,5.8729,5.8858,5.8799,5.884,5.8934,5.9009,5.9065,5.9158,5.9303,5.9383,5.954,5.9628,5.9692,5.9857,5.9971,5.9777,5.9696,5.9868,5.9924,5.9979,5.9893,5.9722,5.9817,6.0018,6.0489,6.0789,6.0804,6.0877,6.0699,6.0546,6.0699,6.093,6.0776,6.0689,6.0935,2.87,2.8398,2.9006,2.89,2.8398,2.8301,2.8301,2.8301,2.8291,2.8996,2.9807,2.9713,3.011,3.1019,3.1327,3.2543,3.3662,3.3871,3.4557,3.6168,3.637,3.637,3.637,3.637,3.637,3.637,3.6452,3.6628,3.7322,3.9108,4.0145,4.0916,4.2386,4.3265,4.3344,4.3344,4.363,4.4236,4.5442,4.6452,4.6968,4.837,4.894,4.9018,4.9018,4.9018,4.9018,4.9018,4.9168,4.9462,4.9896,4.9993,5.0924,5.267,5.486,5.5449,5.567,5.5962,5.6154,5.6246,5.5907,5.517,5.4564,5.3995,5.3463,5.3206,5.3206,5.328,5.3708,5.3965,5.4344,5.5464,5.6308,5.6804,5.7519,5.7923,5.7978,5.7978,5.7978,5.7978,5.8208,5.8381,5.8275,5.8336,5.8479,5.8623,5.8704,5.8854,5.9038,5.9097,5.9115,5.908,5.9121,5.9438,5.9513,5.9345,5.9139,5.9287,5.9378,5.9408,5.9425,5.9303,5.9074,5.9009,5.9587,6.0346,6.0652,6.066,6.043,6.0218,6.0475,6.0581,6.0265,6.0194,6.0348,2.9456,2.8675,2.9776,2.9503,2.8398,2.8301,2.8495,2.8698,2.8804,2.9713,3.0927,3.0927,3.1429,3.2342,3.2644,3.3143,3.4581,3.4581,3.5174,3.6168,3.637,3.637,3.637,3.637,3.637,3.637,3.637,3.637,3.6977,3.8841,3.9711,4.0575,4.2222,4.3344,4.3344,4.3344,4.3927,4.4754,4.5714,4.6689,4.782,4.8576,4.9018,4.9018,4.9018,4.9018,4.9018,4.9018,4.9321,4.965,5.0109,5.0397,5.036,5.2191,5.3981,5.4936,5.4867,5.5568,5.6091,5.6264,5.5705,5.5115,5.5097,5.4344,5.3702,5.3206,5.3225,5.3335,5.3897,5.4467,5.484,5.5941,5.673,5.7189,5.7629,5.7978,5.7978,5.7978,5.7978,5.7978,5.7978,5.7969,5.8013,5.8058,5.8252,5.8252,5.8344,5.8301,5.8486,5.8577,5.8553,5.8449,5.8563,5.8966,5.9081,5.8966,5.8796,5.87,5.8793,5.8838,5.8953,5.897,5.8758,5.8577,5.9026,5.9739,6.0082,6.0283,5.9823,5.9681,6.0122,6.0207,5.9887,5.9513,5.94,3.0554,2.9455,3.0046,2.9503,2.8504,2.8504,2.9112,3.0016,3.0005,3.1531,3.3464,3.2644,3.2844,3.3662,3.2944,3.3946,3.5162,3.5174,3.5271,3.6263,3.637,3.637,3.637,3.637,3.637,3.637,3.637,3.637,3.707,3.893,3.9899,4.0504,4.2044,4.3344,4.3344,4.3344,4.3864,4.4812,4.5769,4.7101,4.8467,4.8923,4.9001,4.9018,4.9018,4.9018,4.9018,4.9035,4.9467,5.0506,4.9778,5.0562,5.23,5.3112,5.3481,5.4083,5.4746,5.5645,5.5705,5.5491,5.4964,5.4587,5.4129,5.3494,5.3054,5.303,5.3072,5.3243,5.397,5.4779,5.5445,5.6318,5.707,5.7492,5.785,5.7978,5.7978,5.7978,5.7978,5.7978,5.7978,5.7978,5.7987,5.8006,5.8024,5.7978,5.7978,5.7978,5.8024,5.8168,5.8257,5.8168,5.8168,5.8516,5.8684,5.8563,5.8484,5.8264,5.832,5.8394,5.8489,5.8576,5.8622,5.8578,5.8915,5.9215,5.9682,5.9644,5.9084,5.9022,5.9278,5.9416,5.9478,5.9047,5.8369,3.1953,3.0732,3.1739,3.1482,3.0596,3.0514,3.0927,3.1316,3.1429,3.2543,3.4068,3.3859,3.4264,3.5066,3.4751,3.5246,3.6156,3.5763,3.5775,3.6263,3.637,3.637,3.637,3.637,3.637,3.637,3.6452,3.6896,3.7678,3.8917,4.0159,4.1,4.2386,4.3344,4.3344,4.3344,4.4266,4.5545,4.6968,4.8161,4.8798,4.9018,4.9018,4.9018,4.9018,4.9018,4.9018,4.9018,4.9463,5.0427,5.0159,5.0725,5.2059,5.2895,5.3501,5.3534,5.3957,5.4557,5.4891,5.504,5.4583,5.41,5.3717,5.3505,5.2596,5.2516,5.293,5.3236,5.4393,5.5349,5.6206,5.6978,5.7474,5.7886,5.7867,5.7932,5.7932,5.7978,5.7978,5.7978,5.7997,5.7969,5.7969,5.7978,5.7932,5.7867,5.7932,5.7978,5.7978,5.8024,5.8051,5.8024,5.8024,5.8097,5.8186,5.8168,5.8213,5.8113,5.8113,5.8123,5.8097,5.8143,5.8263,5.8235,5.8323,5.8732,5.9229,5.9157,5.8777,5.8529,5.8327,5.8399,5.8389,5.74,5.6922,3.3029,3.2222,3.3172,3.3006,3.2163,3.2275,3.2543,3.2844,3.2844,3.3662,3.4569,3.4969,3.5463,3.6156,3.6263,3.6263,3.637,3.637,3.637,3.637,3.637,3.637,3.637,3.637,3.637,3.637,3.637,3.7256,3.8482,3.9536,4.049,4.1587,4.2629,4.325,4.3344,4.3409,4.419,4.6048,4.7588,4.85,4.8956,4.9001,4.9018,4.9018,4.9018,4.9018,4.9018,4.9277,4.9683,5.0355,5.0875,5.1298,5.2177,5.3041,5.3484,5.3518,5.3636,5.3798,5.4224,5.446,5.4345,5.3958,5.3706,5.3534,5.2763,5.256,5.3123,5.4026,5.5459,5.6316,5.683,5.7483,5.7656,5.7671,5.7613,5.7726,5.766,5.7431,5.7613,5.8005,5.7977,5.7985,5.7995,5.7969,5.7932,5.7774,5.7821,5.7895,5.7867,5.7802,5.7849,5.7849,5.7923,5.796,5.7987,5.7969,5.7997,5.795,5.795,5.7978,5.7978,5.7978,5.8052,5.8033,5.7847,5.7831,5.8072,5.8307,5.8471,5.7978,5.7556,5.7363,5.6976,5.6032,5.5727,3.3383,3.3717,3.3537,3.2881,3.1813,3.2152,3.3132,3.4166,3.4276,3.4969,3.5966,3.6156,3.6168,3.6358,3.637,3.637,3.637,3.637,3.637,3.637,3.637,3.637,3.637,3.637,3.637,3.6465,3.6653,3.79,3.9271,3.9885,4.0746,4.1601,4.2805,4.317,4.3409,4.3551,4.4403,4.608,4.7386,4.8294,4.8786,4.9018,4.9018,4.9018,4.9018,4.9018,4.9069,4.962,5.0362,5.1048,5.1166,5.1911,5.279,5.3264,5.3518,5.3501,5.3501,5.3582,5.3777,5.3863,5.353,5.3387,5.328,5.3495,5.3564,5.4715,5.5328,5.5477,5.6813,5.7363,5.7491,5.7437,5.8037,5.7637,5.7506,5.7243,5.6984,5.6403,5.6721,5.7656,5.7934,5.7855,5.7442,5.7315,5.7431,5.7333,5.7379,5.7501,5.7419,5.7358,5.7558,5.7653,5.7776,5.7877,5.7977,5.792,5.7698,5.771,5.7788,5.7894,5.7997,5.7997,5.7978,5.7546,5.7351,5.7075,5.6881,5.7143,5.7255,5.7072,5.6707,5.6223,5.5824,5.5164,5.5102,3.3206,3.347,3.3649,3.3857,3.397,3.4186,3.4763,3.5534,3.5667,3.5858,3.637,3.637,3.637,3.637,3.637,3.637,3.637,3.637,3.637,3.637,3.637,3.637,3.637,3.637,3.637,3.6559,3.7253,3.8395,3.9738,4.049,4.1616,4.2548,4.3076,4.325,4.3409,4.3849,4.4989,4.604,4.7147,4.8018,4.8769,4.9018,4.9018,4.9018,4.9018,4.9289,4.9661,4.9927,5.0784,5.1423,5.1437,5.2283,5.3213,5.345,5.3518,5.3518,5.3518,5.3496,5.3601,5.3725,5.3887,5.3199,5.2708,5.2664,5.4055,5.4703,5.5935,5.6871,5.8079,5.8566,5.9087,5.9216,5.9219,5.8127,5.7403,5.7029,5.6381,5.5808,5.5925,5.6917,5.7403,5.7586,5.7012,5.6438,5.6703,5.6876,5.6982,5.6974,5.6876,5.6773,5.6845,5.6989,5.7115,5.7379,5.7478,5.7445,5.7291,5.7387,5.7515,5.7759,5.7847,5.7997,5.7857,5.7351,5.6725,5.6292,5.6075,5.6112,5.6184,5.625,5.5619,5.4724,5.4402,5.4453,5.4724,3.3081,3.3131,3.3495,3.4198,3.5052,3.5403,3.5755,3.6107,3.6295,3.637,3.637,3.637,3.637,3.637,3.637,3.637,3.637,3.637,3.637,3.637,3.637,3.637,3.637,3.637,3.6465,3.676,3.7782,3.8922,3.9913,4.1085,4.2111,4.29,4.3344,4.3344,4.3551,4.4282,4.5211,4.6166,4.714,4.8018,4.8866,4.9018,4.9018,4.9069,4.9232,4.9588,5.0135,5.0551,5.1292,5.1913,5.2215,5.2536,5.3129,5.3518,5.3518,5.3518,5.3518,5.3518,5.3619,5.3821,5.402,5.3386,5.2802,5.3014,5.3914,5.4817,5.6265,5.7765,5.8956,5.9806,6.0095,5.9488,5.8895,5.7743,5.7423,5.7007,5.5948,5.5314,5.5643,5.6159,5.629,5.6122,5.6223,5.5695,5.5857,5.6017,5.5914,5.6041,5.6206,5.6088,5.5941,5.6093,5.6204,5.6546,5.6918,5.6202,5.5724,5.6492,5.6722,5.7434,5.768,5.7872,5.7641,5.691,5.6195,5.5501,5.5196,5.5189,5.5448,5.5665,5.5115,5.4701,5.5008,5.5195,5.4819,3.3081,3.3081,3.3106,3.3445,3.4085,3.509,3.5529,3.5705,3.6157,3.637,3.637,3.637,3.637,3.637,3.637,3.637,3.637,3.637,3.637,3.637,3.637,3.637,3.637,3.637,3.6546,3.6709,3.7887,3.9135,4.0073,4.1351,4.2371,4.2981,4.3344,4.3344,4.3394,4.4282,4.5285,4.6198,4.712,4.8067,4.8774,4.9018,4.9018,4.9086,4.9554,4.9961,5.0456,5.1326,5.2,5.2403,5.2942,5.3213,5.3433,5.3518,5.3518,5.3518,5.3518,5.3518,5.3534,5.3551,5.3567,5.3566,5.3144,5.4,5.5265,5.623,5.7007,5.853,5.9653,5.9743,5.9367,5.8805,5.8355,5.7718,5.7423,5.6676,5.5626,5.4701,5.4938,5.5113,5.4426,5.3975,5.4598,5.4881,5.5038,5.5079,5.4913,5.4989,5.5252,5.5269,5.5015,5.5044,5.5208,5.5268,5.5331,5.4453,5.4171,5.5067,5.5996,5.6832,5.756,5.7919,5.7455,5.6599,5.585,5.5206,5.4664,5.4261,5.5103,5.5951,5.5703,5.5482,5.582,5.5786,5.5331,3.3081,3.3081,3.3081,3.3181,3.3445,3.4135,3.4839,3.5567,3.6094,3.637,3.637,3.637,3.637,3.637,3.637,3.637,3.637,3.637,3.637,3.637,3.637,3.637,3.637,3.6452,3.6815,3.7678,3.8738,3.9784,4.1085,4.2029,4.2725,4.325,4.3344,4.3344,4.3551,4.4297,4.53,4.623,4.7109,4.8046,4.8883,4.9018,4.9018,4.9052,4.9791,5.0367,5.0845,5.1916,5.2505,5.2893,5.345,5.3484,5.3518,5.3518,5.3518,5.3518,5.3518,5.3518,5.3518,5.3518,5.3518,5.3653,5.4008,5.4804,5.6245,5.715,5.8184,5.8991,5.9614,5.9701,5.9831,5.985,5.9334,5.8032,5.7318,5.624,5.5255,5.4258,5.3866,5.3997,5.3577,5.3437,5.3764,5.3701,5.3798,5.3804,5.3625,5.3885,5.4166,5.4106,5.4,5.4,5.4102,5.4068,5.3861,5.3634,5.4192,5.5351,5.5968,5.6498,5.7135,5.7745,5.7553,5.6798,5.586,5.5024,5.4958,5.5094,5.5791,5.6299,5.6193,5.6038,5.6089,5.597,5.5615,3.3081,3.3081,3.3081,3.3081,3.3169,3.3671,3.4525,3.5516,3.6107,3.637,3.637,3.637,3.637,3.637,3.637,3.637,3.637,3.637,3.637,3.637,3.637,3.637,3.637,3.6452,3.707,3.8121,3.9346,4.0404,4.1518,4.2725,4.325,4.3265,4.3344,4.3344,4.363,4.4282,4.53,4.6221,4.7147,4.8034,4.8702,4.9035,4.9154,4.9554,5.013,5.0854,5.1572,5.2318,5.296,5.3332,5.3518,5.3518,5.3518,5.3518,5.3518,5.3518,5.3518,5.3518,5.3518,5.3518,5.3619,5.3957,5.438,5.5145,5.623,5.6707,5.7818,5.8648,5.9094,5.9284,5.9469,5.9689,5.9357,5.8008,5.7426,5.6404,5.569,5.4804,5.3957,5.3907,5.3416,5.3247,5.2791,5.2653,5.2476,5.2479,5.2367,5.2756,5.3145,5.3163,5.3315,5.3501,5.3568,5.37,5.3732,5.3601,5.4328,5.561,5.6008,5.6171,5.6863,5.7439,5.7258,5.7208,5.6707,5.6258,5.5936,5.6072,5.6481,5.6718,5.6748,5.663,5.6461,5.6359,5.6241,3.3081,3.3081,3.3081,3.3081,3.3169,3.3658,3.4512,3.5449,3.6119,3.637,3.637,3.637,3.637,3.637,3.637,3.637,3.637,3.637,3.637,3.637,3.637,3.637,3.637,3.6452,3.7335,3.8302,3.9448,4.0575,4.1684,4.2725,4.325,4.3344,4.3344,4.3344,4.363,4.4066,4.5005,4.5857,4.6762,4.7701,4.8459,4.8769,4.9169,4.975,5.0612,5.1376,5.2094,5.2825,5.3247,5.3518,5.3518,5.3518,5.3518,5.3518,5.3518,5.3518,5.3518,5.3518,5.3518,5.3518,5.3873,5.4279,5.4617,5.5074,5.5771,5.649,5.7378,5.7959,5.8307,5.8167,5.8107,5.8524,5.8806,5.817,5.7826,5.7158,5.6602,5.5818,5.4869,5.4244,5.3399,5.2724,5.1529,5.1191,5.1693,5.1727,5.1828,5.2132,5.2421,5.2606,5.2893,5.3501,5.3501,5.3501,5.3518,5.3518,5.4245,5.5466,5.5536,5.5758,5.6472,5.7326,5.7423,5.7607,5.7751,5.7492,5.6884,5.6697,5.685,5.7053,5.7239,5.7289,5.7154,5.7323,5.7323,3.3081,3.3081,3.3081,3.3081,3.3169,3.3671,3.4311,3.5027,3.5918,3.637,3.637,3.637,3.637,3.637,3.637,3.637,3.6465,3.637,3.637,3.6465,3.6452,3.6465,3.6465,3.664,3.7691,3.8827,3.9972,4.093,4.2467,4.3344,4.3344,4.3344,4.3344,4.3344,4.3409,4.363,4.4343,4.5206,4.6157,4.721,4.7932,4.8196,4.9002,5.0038,5.0803,5.1583,5.2399,5.3095,5.345,5.3518,5.3518,5.3518,5.3518,5.3518,5.3518,5.3518,5.3518,5.3518,5.3518,5.3518,5.3856,5.46,5.504,5.5767,5.6359,5.69,5.734,5.7679,5.7881,5.7881,5.7881,5.814,5.8268,5.8114,5.7754,5.7375,5.6867,5.6461,5.5547,5.4329,5.3501,5.1865,5.0654,5.077,5.1237,5.1254,5.1341,5.171,5.2016,5.2236,5.264,5.3281,5.3518,5.3518,5.3518,5.3518,5.4346,5.5057,5.5327,5.5852,5.7009,5.7671,5.7853,5.7881,5.7881,5.7797,5.756,5.7442,5.734,5.7509,5.7679,5.778,5.7881,5.7881,5.7881,3.3081,3.3081,3.3081,3.3081,3.3169,3.3658,3.4211,3.4826,3.5655,3.6132,3.6358,3.637,3.637,3.637,3.6465,3.6628,3.707,3.6628,3.6628,3.715,3.6628,3.6452,3.6452,3.6977,3.8211,3.9448,4.0575,4.1518,4.29,4.3344,4.3344,4.3344,4.3344,4.3344,4.3344,4.3409,4.3615,4.4479,4.5498,4.656,4.7272,4.7935,4.912,5.0231,5.0997,5.1708,5.2621,5.3331,5.345,5.3518,5.3518,5.3518,5.3518,5.3518,5.3518,5.3518,5.3518,5.3518,5.3518,5.3518,5.4093,5.482,5.548,5.6207,5.6917,5.7526,5.7695,5.7881,5.7881,5.7881,5.7881,5.7881,5.7937,5.792,5.7649,5.7289,5.707,5.6867,5.5837,5.4568,5.2993,5.129,5.0534,5.0764,5.0947,5.1116,5.1319,5.162,5.193,5.2253,5.2758,5.3315,5.3484,5.3518,5.3518,5.3602,5.4313,5.5108,5.5767,5.6444,5.7509,5.7881,5.7881,5.7881,5.7881,5.7797,5.7729,5.778,5.7763,5.7881,5.7881,5.7881,5.7881,5.7881,5.7881,3.3265,3.3316,3.3253,3.3313,3.3316,3.3857,3.4275,3.4778,3.5319,3.5818,3.6282,3.637,3.6452,3.6709,3.6534,3.7243,3.7415,3.707,3.6977,3.8017,3.723,3.6803,3.707,3.7769,3.8965,4.0017,4.0986,4.1932,4.29,4.3344,4.3344,4.3344,4.3344,4.3344,4.3344,4.3344,4.3488,4.3786,4.4996,4.6199,4.7118,4.8247,4.9506,5.0702,5.1374,5.1914,5.3011,5.3501,5.3518,5.3518,5.3518,5.3518,5.3518,5.3518,5.3518,5.3518,5.3518,5.3518,5.3585,5.367,5.4465,5.5175,5.5801,5.6579,5.7323,5.7746,5.7865,5.7881,5.7881,5.7881,5.7881,5.7881,5.7881,5.7881,5.7729,5.7577,5.7492,5.7074,5.6111,5.472,5.2889,5.1319,5.0832,5.1031,5.12,5.1282,5.142,5.1705,5.2162,5.2522,5.2825,5.3366,5.3467,5.3518,5.3518,5.3704,5.4262,5.5006,5.575,5.644,5.7077,5.7521,5.7881,5.7881,5.7881,5.7881,5.7848,5.7881,5.7881,5.7881,5.7881,5.7881,5.7881,5.7881,5.7881,3.4341,3.4324,3.4276,3.4358,3.4371,3.4405,3.4809,3.5284,3.5009,3.5558,3.6232,3.6439,3.6883,3.7402,3.6709,3.7428,3.8751,3.7599,3.7335,3.7939,3.7848,3.7678,3.7939,3.8917,3.9889,4.0591,4.1472,4.2275,4.3076,4.3344,4.3344,4.3344,4.3344,4.3344,4.3344,4.3344,4.3344,4.3423,4.4374,4.5313,4.5968,4.72,4.8393,5.004,5.1112,5.2352,5.3213,5.3518,5.3518,5.3518,5.3518,5.3518,5.3518,5.3518,5.3518,5.3518,5.3518,5.3518,5.3653,5.3957,5.4735,5.5513,5.6207,5.6985,5.7543,5.7763,5.7881,5.7881,5.7881,5.7881,5.7881,5.7881,5.7881,5.7881,5.7865,5.7865,5.7848,5.7077,5.6231,5.4737,5.2952,5.1973,5.1386,5.1268,5.142,5.1609,5.1781,5.2101,5.2756,5.3146,5.3095,5.3484,5.3484,5.3518,5.3518,5.3653,5.4126,5.4634,5.538,5.6035,5.6735,5.7386,5.7881,5.7881,5.7881,5.7881,5.7881,5.7881,5.7881,5.7881,5.7881,5.7881,5.7881,5.7881,5.7881,3.5371,3.5352,3.5318,3.5359,3.5359,3.5359,3.5463,3.5476,3.5399,3.5955,3.6673,3.6582,3.707,3.7848,3.6883,3.8211,3.9798,3.8211,3.8725,3.9244,3.9081,3.8917,3.936,4.0045,4.0435,4.1136,4.2024,4.282,4.325,4.3344,4.3344,4.3344,4.3344,4.3344,4.3344,4.3344,4.3344,4.3344,4.3927,4.4527,4.5304,4.6957,4.8695,5.0376,5.1613,5.2689,5.3196,5.3518,5.3518,5.3518,5.3518,5.3518,5.3518,5.3518,5.3518,5.3518,5.3518,5.3518,5.3704,5.4211,5.4938,5.5666,5.641,5.7103,5.7679,5.7881,5.7881,5.7881,5.7881,5.7881,5.7881,5.7881,5.7881,5.7881,5.7814,5.7763,5.715,5.6305,5.5943,5.54,5.3717,5.2367,5.1978,5.1922,5.216,5.2587,5.264,5.2606,5.3213,5.3433,5.3433,5.3348,5.328,5.3433,5.3518,5.3619,5.3873,5.4465,5.4957,5.6021,5.6947,5.7437,5.7881,5.7881,5.7881,5.7881,5.7881,5.7881,5.7881,5.7881,5.7881,5.7881,5.7881,5.7881,5.7915,3.629,3.6198,3.6355,3.6355,3.6355,3.6434,3.6209,3.5972,3.6273,3.6722,3.7101,3.7037,3.7573,3.7848,3.7586,3.9495,4.019,3.9169,3.9944,4.0561,4.039,4.0218,4.0476,4.1155,4.1569,4.198,4.2666,4.2981,4.3265,4.3344,4.3344,4.3344,4.3344,4.3344,4.3344,4.3344,4.3344,4.3404,4.3889,4.4616,4.6069,4.7732,4.9335,5.0727,5.1997,5.279,5.3298,5.3518,5.3518,5.3518,5.3518,5.3518,5.3518,5.3518,5.3518,5.3518,5.3518,5.3518,5.3687,5.4329,5.5023,5.5716,5.6444,5.7137,5.7746,5.7881,5.7881,5.7881,5.7881,5.7881,5.7881,5.7881,5.7881,5.7865,5.778,5.7611,5.6727,5.5774,5.56,5.5536,5.4245,5.2791,5.2638,5.2649,5.2855,5.3315,5.3484,5.3501,5.3433,5.3348,5.3348,5.311,5.287,5.3025,5.3348,5.3518,5.3653,5.4093,5.4686,5.5953,5.707,5.7577,5.7881,5.7881,5.7881,5.7881,5.7881,5.7881,5.7881,5.7881,5.7881,5.7881,5.7881,5.7898,5.8039,3.7021,3.629,3.7098,3.751,3.751,3.751,3.7423,3.74,3.7538,3.733,3.7279,3.8647,3.9871,4.0901,3.9711,4.0661,4.1932,4.0561,4.0476,4.1253,4.1435,4.1337,4.1504,4.2208,4.279,4.2966,4.3046,4.3235,4.3344,4.3344,4.3344,4.3344,4.3344,4.3344,4.3344,4.3344,4.3344,4.3449,4.4033,4.4919,4.6564,4.8095,4.9245,5.0813,5.2471,5.3079,5.3484,5.3501,5.3518,5.3518,5.3518,5.3518,5.3518,5.3518,5.3518,5.3518,5.3518,5.3551,5.3923,5.4736,5.5448,5.5902,5.6681,5.7543,5.7881,5.7881,5.7881,5.7881,5.7881,5.7881,5.7881,5.7881,5.7881,5.7881,5.7831,5.7442,5.6761,5.593,5.5359,5.4787,5.3822,5.323,5.3213,5.3112,5.2977,5.3247,5.3163,5.318,5.2992,5.3043,5.3179,5.2786,5.2387,5.2853,5.3264,5.3264,5.3382,5.3754,5.4329,5.5441,5.6554,5.7611,5.7881,5.7865,5.7881,5.7881,5.7881,5.7881,5.7881,5.7881,5.7881,5.7881,5.7881,5.7898,5.8039]},{"header":{"parameterUnit":"m.s-1","parameterCategory":1,"la1":31.0,"la2":29.5877,"lo1":-88.7671,"lo2":-86.6584,"dx":0.0162,"dy":0.0185,"nx":115,"ny":88,"refTime":"2022-12-23T06:00:00:Z","depth":0,"parameterNumber":3,"parameterNumberName":"V-component_of_WINDS"},"data":[0.0,0.0,0.0,0.0,0.0,0.0,0.0,0.0,0.0,0.0,0.0,0.0,0.0,0.0,0.0,0.0,0.0,0.0,0.0,0.0,0.0,0.0,0.0,0.0,0.0,0.0,0.0,0.0,0.0,0.0,0.0,0.0,0.0,0.0,0.0,0.0,0.0,0.0,0.0,0.0,0.0,0.0,0.0,0.0,0.0,0.0,0.0,0.0,0.0,0.0,0.0,0.0,0.0,0.0,0.0,0.0,0.0,0.0,0.0,0.0,0.0,0.0,0.0,0.0,0.0,0.0,0.0,0.0,0.0,0.0,0.0,0.0,0.0,0.0,0.0,0.0,0.0,0.0,0.0,0.0,0.0,0.0,0.0,0.0,0.0,0.0,0.0,0.0,0.0,0.0,0.0,0.0,0.0,0.0,0.0,0.0,0.0,0.0,0.0,0.0,0.0,0.0,0.0,0.0,0.0,0.0,0.0,0.0,0.0,0.0,0.0,0.0,0.0,0.0,0.0,0.0,0.0,0.0,0.0,0.0,0.0,0.0,0.0,0.0,0.0,0.0,0.0,0.0,0.0,0.0,0.0,0.0,0.0,0.0,0.0,0.0,0.0,0.0,0.0,0.0,0.0,0.0,0.0,0.0,0.0,0.0,0.0,0.0,0.0,0.0,0.0,0.0,0.0,0.0,0.0,0.0,0.0,0.0,0.0,0.0,0.0,0.0,0.0,0.0,0.0,0.0,0.0,0.0,0.0,0.0,0.0,0.0,0.0,0.0,0.0,0.0,0.0,0.0,0.0,0.0,0.0,0.0,0.0,0.0,0.0,0.0,0.0,0.0,0.0,0.0,0.0,0.0,0.0,0.0,0.0,0.0,0.0,0.0,0.0,0.0,0.0,0.0,0.0,0.0,0.0,0.0,0.0,0.0,0.0,0.0,0.0,0.0,0.0,0.0,0.0,0.0,0.0,0.0,0.0,0.0,0.0,0.0,0.0,0.0,0.0,0.0,0.0,0.0,0.0,0.0,0.0,0.0,0.0,0.0,0.0,0.0,0.0,0.0,0.0,0.0,0.0,0.0,0.0,0.0,0.0,0.0,0.0,0.0,0.0,0.0,0.0,0.0,0.0,0.0,0.0,0.0,0.0,0.0,0.0,0.0,0.0,0.0,0.0,0.0,0.0,0.0,0.0,0.0,0.0,0.0,0.0,0.0,0.0,0.0,0.0,0.0,0.0,0.0,0.0,0.0,0.0,0.0,0.0,0.0,0.0,0.0,0.0,0.0,0.0,0.0,0.0,0.0,0.0,0.0,0.0,0.0,0.0,0.0,0.0,0.0,0.0,0.0,0.0,0.0,0.0,0.0,0.0,0.0,0.0,0.0,0.0,0.0,0.0,0.0,0.0,0.0,0.0,0.0,0.0,0.0,0.0,0.0,0.0,0.0,0.0,0.0,0.0,0.0,0.0,0.0,0.0,0.0,0.0,0.0,0.0,0.0,0.0,0.0,0.0,0.0,0.0,0.0,0.0,0.0,0.0,0.0,0.0,0.0,0.0,0.0,0.0,0.0,0.0,0.0,0.0,0.0,0.0,0.0,0.0,0.0,0.0,0.0,0.0,0.0,0.0,0.0,0.0,0.0,0.0,0.0,0.0,0.0,0.0,0.0,0.0,0.0,0.0,0.0,0.0,0.0,0.0,0.0,0.0,0.0,0.0,0.0,0.0,0.0,0.0,0.0,0.0,0.0,0.0,0.0,0.0,0.0,0.0,0.0,0.0,0.0,0.0,0.0,0.0,0.0,0.0,0.0,0.0,0.0,0.0,0.0,0.0,0.0,0.0,0.0,0.0,0.0,0.0,0.0,0.0,0.0,0.0,0.0,0.0,0.0,0.0,0.0,0.0,0.0,0.0,0.0,0.0,0.0,0.0,0.0,0.0,0.0,0.0,0.0,0.0,0.0,0.0,0.0,0.0,0.0,0.0,0.0,0.0,0.0,0.0,0.0,0.0,0.0,0.0,0.0,0.0,0.0,0.0,0.0,0.0,0.0,0.0,0.0,0.0,0.0,0.0,0.0,0.0,0.0,0.0,0.0,0.0,0.0,0.0,0.0,0.0,0.0,0.0,0.0,0.0,0.0,0.0,0.0,0.0,0.0,0.0,0.0,0.0,0.0,0.0,0.0,0.0,0.0,0.0,0.0,0.0,0.0,0.0,0.0,0.0,0.0,0.0,0.0,0.0,0.0,0.0,0.0,0.0,0.0,0.0,0.0,0.0,0.0,0.0,0.0,0.0,0.0,0.0,0.0,0.0,0.0,0.0,0.0,0.0,0.0,0.0,0.0,0.0,0.0,0.0,0.0,0.0,0.0,0.0,0.0,0.0,0.0,0.0,0.0,0.0,0.0,0.0,0.0,0.0,0.0,0.0,0.0,0.0,0.0,0.0,0.0,0.0,0.0,0.0,0.0,0.0,0.0,0.0,0.0,0.0,0.0,0.0,0.0,0.0,0.0,0.0,0.0,0.0,0.0,0.0,0.0,0.0,0.0,0.0,0.0,0.0,0.0,0.0,0.0,0.0,0.0,0.0,0.0,0.0,0.0,0.0,0.0,0.0,0.0,0.0,0.0,0.0,0.0,0.0,0.0,0.0,0.0,0.0,0.0,0.0,0.0,0.0,0.0,0.0,0.0,0.0,0.0,0.0,0.0,0.0,0.0,0.0,0.0,0.0,0.0,0.0,0.0,0.0,0.0,0.0,0.0,0.0,0.0,0.0,0.0,0.0,0.0,0.0,0.0,0.0,0.0,0.0,0.0,0.0,0.0,0.0,0.0,0.0,0.0,0.0,0.0,0.0,0.0,0.0,0.0,0.0,0.0,0.0,0.0,0.0,0.0,0.0,0.0,0.0,0.0,0.0,0.0,0.0,0.0,0.0,0.0,0.0,0.0,0.0,0.0,0.0,0.0,0.0,0.0,0.0,0.0,0.0,0.0,0.0,0.0,0.0,0.0,0.0,0.0,0.0,0.0,0.0,0.0,0.0,0.0,0.0,0.0,0.0,0.0,0.0,0.0,0.0,0.0,0.0,0.0,0.0,0.0,0.0,0.0,0.0,0.0,0.0,0.0,0.0,0.0,0.0,0.0,0.0,0.0,0.0,0.0,0.0,0.0,0.0,0.0,0.0,0.0,0.0,0.0,0.0,0.0,0.0,0.0,0.0,0.0,0.0,0.0,0.0,0.0,0.0,0.0,0.0,0.0,0.0,0.0,0.0,0.0,0.0,0.0,0.0,0.0,0.0,0.0,0.0,0.0,0.0,0.0,0.0,0.0,0.0,0.0,0.0,0.0,0.0,0.0,0.0,0.0,0.0,0.0,0.0,0.0,0.0,0.0,0.0,0.0,0.0,0.0,0.0,0.0,0.0,0.0,0.0,0.0,0.0,0.0,0.0,0.0,0.0,0.0,0.0,0.0,0.0,0.0,0.0,0.0,0.0,0.0,0.0,0.0,0.0,0.0,0.0,0.0,0.0,0.0,0.0,0.0,0.0,0.0,0.0,0.0,0.0,0.0,0.0,0.0,0.0,0.0,0.0,0.0,0.0,0.0,0.0,0.0,0.0,0.0,0.0,0.0,0.0,0.0,0.0,0.0,0.0,0.0,0.0,0.0,0.0,0.0,0.0,0.0,0.0,0.0,0.0,0.0,0.0,0.0,0.0,0.0,0.0,0.0,0.0,0.0,0.0,0.0,0.0,0.0,0.0,0.0,0.0,0.0,0.0,0.0,0.0,0.0,0.0,0.0,0.0,0.0,0.0,0.0,0.0,0.0,0.0,0.0,0.0,0.0,0.0,0.0,0.0,0.0,0.0,0.0,0.0,0.0,0.0,0.0,0.0,0.0,0.0,0.0,0.0,0.0,0.0,0.0,0.0,0.0,0.0,0.0,0.0,0.0,0.0,0.0,0.0,0.0,0.0,0.0,0.0,0.0,0.0,0.0,0.0,0.0,0.0,0.0,0.0,0.0,0.0,0.0,0.0,0.0,0.0,0.0,0.0,0.0,0.0,0.0,0.0,0.0,0.0,0.0,0.0,0.0,0.0,0.0,0.0,0.0,0.0,0.0,0.0,0.0,0.0,0.0,0.0,0.0,0.0,0.0,0.0,0.0,0.0,0.0,0.0,0.0,0.0,0.0,0.0,0.0,0.0,0.0,0.0,0.0,0.0,0.0,0.0,0.0,0.0,0.0,0.0,0.0,0.0,0.0,0.0,0.0,0.0,0.0,0.2561,0.0,0.0,0.0,0.346,0.0,0.0,0.0,0.0,0.0,0.0,0.0,0.0,0.0,0.0,0.0,0.0,0.0,0.0,0.0,0.0,0.0,0.0,0.0,0.0,0.0,0.0,0.0,0.0,0.0,0.0,0.0,0.0,0.0,0.0,0.0,0.0,0.0,0.0,0.0,0.0,0.0,0.0,0.0,0.0,0.0,0.0,0.0,0.0,0.0,0.0,0.0,0.0,0.0,0.0,0.0,0.0,0.0,0.0,0.0,0.0,0.0,0.0,0.0,0.0,0.0,0.0,0.0,0.0,0.0,0.0,0.0,0.0,0.0,0.0,0.0,0.0,0.0,0.0,0.0,0.0,0.0,0.0,0.0,0.0,0.0,0.0,0.0,0.0,0.0,0.0,0.0,0.0,0.0,0.0,0.0,0.0,0.0,0.0,0.0,0.0,0.0,0.0,0.0,0.0,0.0,0.0,0.0,0.0,0.0,0.0,0.0,0.0,0.0,0.0,0.2842,0.2712,0.3278,0.3438,0.3147,0.0,0.0,0.0,0.0,0.0,0.0,0.0,0.0,0.0,0.0,0.0,0.0,0.0,0.0,0.0,0.0,0.0,0.0,0.0,0.0,0.0,0.0,0.0,0.0,0.0,0.0,0.0,0.0,0.0,0.0,0.0,0.0,0.0,0.0,0.0,0.0,0.0,0.0,0.0,0.0,0.0,0.0,0.0,0.0,0.0,0.0,0.0,0.0,0.0,0.0,0.0,0.0,0.0,0.0,0.0,0.0,0.0,0.0,0.0,0.0,0.0,0.0,0.0,0.0,0.0,0.0,0.0,0.0,0.0,0.0,0.0,0.0,0.0,0.0,0.0,0.0,0.0,0.0,0.0,0.0,0.0,0.0,0.0,0.0,0.0,0.0,0.0,0.0,0.0,0.0,0.0,0.0,0.0,0.0,0.0,0.0,0.0,0.0,0.0,0.0,0.0,0.0,0.0,0.0,0.0,0.0,0.0,0.0,0.0,0.0,0.0,0.0,0.3744,0.3783,0.3322,0.0,0.0,0.0,0.0,0.0,0.0,0.0,0.0,0.0,0.0,0.0,0.0,0.0,0.0,0.0,0.0,0.0,0.0,0.0,0.0,0.0,0.0,0.0,0.0,0.0,0.0,0.0,0.0,0.0,0.0,0.0,0.0,0.0,0.0,0.0,0.0,0.0,0.0,0.0,0.0,0.0,0.0,0.0,0.0,0.0,0.0,0.0,0.0,0.0,0.0,0.0,0.0,0.0,0.0,0.0,0.0,0.0,0.0,0.0,0.0,0.0,0.0,0.0,0.0,0.0,0.0,0.0,0.0,0.0,0.0,0.0,0.0,0.0,0.0,0.0,0.0,0.0,0.0,0.0,0.0,0.0,0.0,0.0,0.0,0.0,0.0,0.0,0.0,0.0,0.0,0.0,0.0,0.0,0.0,0.0,0.0,0.0,0.0,0.0,0.0,0.0,0.0,0.0,0.0,0.0,0.0,0.0,0.0,0.0,0.0,0.3251,0.3878,0.3991,0.0,0.4963,0.0,0.0,0.0,0.0,0.0,0.0,0.0,0.0,0.0,0.0,0.0,0.0,0.0,0.0,0.0,0.0,0.0,0.0,0.0,0.0,0.0,0.0,0.0,0.0,0.0,0.0,0.0,0.0,0.0,0.0,0.0,0.0,0.0,0.0,0.0,0.0,0.0,0.0,0.0,0.0,0.0,0.0,0.0,0.0,0.0,0.0,0.0,0.0,0.0,0.0,0.0,0.0,0.0,0.0,0.0,0.0,0.0,0.0,0.0,0.0,0.0,0.0,0.0,0.0,0.0,0.0,0.0,0.0,0.0,0.0,0.0,0.0,0.0,0.0,0.0,0.0,0.0,0.0,0.0,0.0,0.0,0.0,0.0,0.0,0.0,0.0,0.0,0.0,0.0,0.0,0.0,0.0,0.0,0.0,0.0,0.0,0.0,0.0,0.0,0.0,0.0,0.0,0.0,0.0,0.0,0.0,0.0,0.0,0.0,0.0,0.3294,0.4099,0.5524,0.5762,0.0,0.0,0.0,0.0,0.0,0.0,0.0,0.0,0.0,0.0,0.0,0.0,0.0,0.0,0.0,0.0,0.0,0.0,0.0,0.0,0.0,0.0,0.0,0.0,0.0,0.0,0.0,0.0,0.0,0.0,0.0,0.0,0.0,0.0,0.0,0.0,0.0,0.0,0.0,0.0,0.0,0.0,0.0,0.0,0.0,0.0,0.0,0.0,0.0,0.0,0.0,0.0,0.0,0.0,0.0,0.0,0.0,0.0,0.0,0.0,0.0,0.0,0.0,0.0,0.0,0.0,0.0,0.0,0.0,0.0,0.0,0.0,0.0,0.0,0.0,0.0,0.0,0.0,0.0,0.0,0.0,0.0,0.0,0.0,0.0,0.0,0.0,0.0,0.0,0.0,0.0,0.0,0.0,0.0,0.0,0.0,0.0,0.0,0.0,0.0,0.0,0.0,0.0,0.0,0.0,0.0,0.0,0.0,0.0,0.0,0.3061,0.3529,0.4373,0.6023,0.6068,0.4352,0.0,0.0,0.0,0.0,0.0,0.0,0.0,0.0,0.0,0.0,0.0,0.0,0.0,0.0,0.0,0.0,0.0,0.0,0.0,0.0,0.0,0.0,0.0,0.0,0.0,0.0,0.0,0.0,0.0,0.0,0.0,0.0,0.0,0.0,0.0,0.0,0.0,0.0,0.0,0.0,0.0,0.0,0.0,0.0,0.0,0.0,0.0,0.0,0.0,0.0,0.0,0.0,0.0,0.0,0.0,0.0,0.0,0.0,0.0,0.0,0.0,0.0,0.0,0.0,0.0,0.0,0.0,0.0,0.0,0.0,0.0,0.0,0.0,0.0,0.0,0.0,0.0,0.0,0.0,0.0,0.0,0.0,0.0,0.0,0.0,0.0,0.0,0.0,0.0,0.0,0.0,0.0,0.0,0.0,0.0,0.0,0.0,0.0,0.0,0.0,0.0,0.0,0.0,0.0,0.0,0.0,0.0,0.0,0.3694,0.3738,0.4041,0.4638,0.4609,0.4591,0.0,0.0,0.0,0.0,0.0,0.0,0.0,0.0,0.0,0.0,0.0,0.0,0.0,0.0,0.0,0.0,0.0,0.0,0.0,0.0,0.0,0.0,0.0,0.0,0.0,0.0,0.0,0.0,0.0,0.0,0.0,0.0,0.0,0.0,0.0,0.0,0.0,0.0,0.0,0.0,0.0,0.0,0.0,0.0,0.0,0.0,0.0,0.0,0.0,0.0,0.0,0.0,0.0,0.0,0.0,0.0,0.0,0.0,0.0,0.0,0.0,0.0,0.0,0.0,0.0,0.0,0.0,0.0,0.0,0.0,0.0,0.0,0.0,0.0,0.0,0.0,0.0,0.0,0.0,0.0,0.0,0.0,0.0,0.0,0.0,0.0,0.0,0.0,0.0,0.0,0.0,0.0,0.0,0.0,0.0,0.0,0.0,0.0,0.0,0.0,0.0,0.0,0.0,0.0,0.0,0.0,0.0,0.0,0.0,0.3248,0.4054,0.4322,0.4052,0.4291,0.479,0.0,0.0,0.0,0.0,0.0,0.0,0.0,0.0,0.0,0.0,0.0,0.0,0.0,0.0,0.0,0.0,0.0,0.0,0.0,0.0,0.0,0.0,0.0,0.0,0.0,0.0,0.0,0.0,0.0,0.0,0.0,0.0,0.0,0.0,0.0,0.0,0.0,0.0,0.0,0.0,0.0,0.0,0.0,0.0,0.0,0.0,0.0,0.0,0.0,0.0,0.0,0.0,0.0,0.0,0.0,0.0,0.0,0.0,0.0,0.0,0.0,0.0,0.0,0.0,0.0,0.0,0.0,0.0,0.0,0.0,0.0,0.0,0.0,0.0,0.0,0.0,0.0,0.0,0.0,0.0,0.0,0.0,0.0,0.0,0.0,0.0,0.0,0.0,0.0,0.0,0.0,0.0,0.0,0.0,0.0,0.0,0.0,0.0,0.0,0.0,0.0,0.0,0.0,0.0,0.0,0.0,0.0,0.0,0.0,0.3341,0.4368,0.4699,0.4332,0.4333,0.4871,0.0,0.0,0.0,0.0,0.0,0.0,0.0,0.0,0.0,0.0,0.0,0.0,0.0,0.0,0.0,0.0,0.0,0.0,0.0,0.0,0.0,0.0,0.0,0.0,0.0,0.0,0.0,0.0,0.0,0.0,0.0,0.0,0.0,0.0,0.0,0.0,0.0,0.0,0.0,0.0,0.0,0.0,0.0,0.0,0.0,0.0,0.0,0.0,0.0,0.0,0.0,0.0,0.0,0.0,0.0,0.0,0.0,0.0,0.0,0.0,0.0,0.0,0.0,0.0,0.0,0.0,0.0,0.0,0.0,0.0,0.0,0.0,0.0,0.0,0.0,0.0,0.0,0.0,0.0,0.0,0.0,0.0,0.0,0.0,0.0,0.0,0.0,0.0,0.0,0.0,0.0,0.0,0.0,0.0,0.0,0.0,0.0,0.0,0.0,0.0,0.0,0.0,0.0,0.0,0.0,0.0,0.0,0.0,0.3205,0.4137,0.465,0.5137,0.5698,0.4702,0.4764,0.0,0.0,0.0,0.0,0.0,0.0,0.0,0.0,0.0,0.0,0.0,0.0,0.0,0.0,0.0,0.0,0.0,0.0,0.0,0.0,0.0,0.0,0.0,0.0,0.0,0.0,0.0,0.0,0.0,0.0,0.0,0.0,0.0,0.0,0.0,0.0,0.0,0.0,0.0,0.0,0.0,0.0,0.0,0.0,0.0,0.0,0.0,0.0,0.0,0.0,0.0,0.0,0.0,0.0,0.0,0.0,0.0,0.0,0.0,0.0,0.0,0.0,0.0,0.0,0.0,0.0,0.0,0.0,0.0,0.0,0.0,0.0,0.0,0.0,0.0,0.0,0.0,0.0,0.0,0.0,0.0,0.0,0.0,0.0,0.0,0.0,0.0,0.0,0.0,0.0,0.0,0.0,0.0,0.0,0.0,0.0,0.0,0.0,0.0,0.0,0.0,0.0,0.0,0.0,0.0,0.0,0.0,0.0,0.0,0.3938,0.4746,0.5144,0.5139,0.6151,0.659,0.0,0.0,0.0,0.0,0.0,0.0,0.0,0.0,0.0,0.0,0.0,0.0,0.0,0.0,0.0,0.0,0.0,0.0,0.0,0.0,0.0,0.0,0.0,0.0,0.0,0.0,0.0,0.0,0.0,0.0,0.0,0.0,0.0,0.0,0.0,0.0,0.0,0.0,0.0,0.0,0.0,0.0,0.0,0.0,0.0,0.0,0.0,0.0,0.0,0.0,0.0,0.0,0.0,0.0,0.0,0.0,0.0,0.0,0.0,0.0,0.0,0.0,0.0,0.0,0.0,0.0,0.0,0.0,0.0,0.0,0.0,0.0,0.0,0.0,0.0,0.0,0.0,0.0,0.0,0.0,0.0,0.0,0.0,0.0,0.0,0.0,0.0,0.0,0.0,0.0,0.0,0.0,0.0,0.0,0.0,0.0,0.0,0.0,0.0,0.0,0.0,0.0,0.0,0.0,0.0,0.0,0.0,0.0,0.0,0.4213,0.496,0.5354,0.5351,0.6392,0.6886,0.6713,0.0,0.0,0.0,0.0,0.0,0.0,0.0,0.0,0.0,0.0,0.0,0.0,0.0,0.0,0.0,0.0,0.0,0.0,0.0,0.0,0.0,0.0,0.0,0.0,0.0,0.0,0.0,0.0,0.0,0.0,0.0,0.0,0.0,0.0,0.0,0.0,0.0,0.0,0.0,0.0,0.0,0.0,0.0,0.0,0.0,0.0,0.0,0.0,0.0,0.0,0.0,0.0,0.0,0.0,0.0,0.0,0.0,0.0,0.0,0.0,0.0,0.0,0.0,0.0,0.0,0.0,0.0,0.0,0.0,0.0,0.0,0.0,0.0,0.0,0.0,0.0,0.0,0.0,0.0,0.0,0.0,0.0,0.0,0.0,0.0,0.0,0.0,0.0,0.0,0.0,0.0,0.0,0.0,0.0,0.0,0.0,0.0,0.0,0.0,0.0,0.0,0.0,0.0,0.0,0.0,0.0,0.0,0.0,0.4683,0.5155,0.5618,0.6136,0.5668,0.5939,0.0,0.0,0.0,0.0,0.0,0.0,0.0,0.0,0.0,0.0,0.0,0.0,0.0,0.0,0.0,0.0,0.0,0.0,0.0,0.0,0.0,0.0,0.0,0.0,0.0,0.0,0.0,0.0,0.0,0.0,0.0,0.0,0.0,0.0,0.0,0.0,0.0,0.0,0.0,0.0,0.0,0.0,0.0,0.0,0.0,0.0,0.0,0.0,0.0,0.0,0.0,0.0,0.0,0.0,0.0,0.0,0.0,0.0,0.0,0.0,0.0,0.0,0.0,0.0,0.0,0.0,0.0,0.0,0.0,0.0,0.0,0.0,0.0,0.0,0.0,0.0,0.0,0.0,0.0,0.0,0.0,0.0,0.0,0.0,0.0,0.0,0.0,0.0,0.0,0.0,0.0,0.0,0.0,0.0,0.0,0.0,0.0,0.0,0.0,0.0,0.0,0.0,0.0,0.0,0.0,0.0,0.0,0.0,0.0,0.3747,0.4944,0.5599,0.5621,0.5498,0.5779,0.0,0.0,0.0,0.0,0.0,0.0,0.0,0.0,0.0,0.0,0.0,0.0,0.0,0.0,0.0,0.0,0.0,0.0,0.0,0.0,0.0,0.0,0.0,0.0,0.0,0.0,0.0,0.0,0.0,0.0,0.0,0.0,0.0,0.0,0.0,0.0,0.0,0.0,0.0,0.0,0.0,0.0,0.0,0.0,0.0,0.0,0.0,0.0,0.0,0.0,0.0,0.0,0.0,0.0,0.0,0.0,0.0,0.0,0.0,0.0,0.0,0.0,0.0,0.0,0.0,0.0,0.0,0.0,0.0,0.0,0.0,0.0,0.0,0.0,0.0,0.0,0.0,0.0,0.0,0.0,0.0,0.0,0.0,0.0,0.0,0.0,0.0,0.0,0.0,0.0,0.0,0.0,0.0,0.0,0.0,0.0,0.0,0.0,0.0,0.0,0.0,0.0,0.0,0.0,0.0,0.0,0.0,0.0,0.3143,0.3247,0.5,0.583,0.5644,0.5592,0.5719,0.0,0.0,0.0,0.0,0.0,0.0,0.0,0.0,0.0,0.0,0.0,0.0,0.0,0.0,0.0,0.0,0.0,0.0,0.0,0.0,0.0,0.0,0.0,0.0,0.0,0.0,0.0,0.0,0.0,0.0,0.0,0.0,0.0,0.0,0.0,0.0,0.0,0.0,0.0,0.0,0.0,0.0,0.0,0.0,0.0,0.0,0.0,0.0,0.0,0.0,0.0,0.0,0.0,0.0,0.0,0.0,0.0,0.0,0.0,0.0,0.0,0.0,0.0,0.0,0.0,0.0,0.0,0.0,0.0,0.0,0.0,0.0,0.0,0.0,0.0,0.0,0.0,0.0,0.0,0.0,0.0,0.0,0.0,0.0,0.0,0.0,0.0,0.0,0.0,0.0,0.0,0.0,0.0,0.0,0.0,0.0,0.0,0.0,0.0,0.0,0.0,0.0,0.0,0.0,0.0,0.0,0.0,0.0,0.2098,0.314,0.5179,0.6218,0.602,0.5828,0.5762,0.0,0.0,0.0,0.0,0.0,0.0,0.0,0.0,0.0,0.0,0.0,0.0,0.0,0.0,0.0,0.0,0.0,0.0,0.0,0.0,0.0,0.0,0.0,0.0,0.0,0.0,0.0,0.0,0.0,0.0,0.0,0.0,0.0,0.0,0.0,0.0,0.0,0.0,0.0,0.0,0.0,0.0,0.0,0.0,0.0,0.0,0.0,0.0,0.0,0.0,0.0,0.0,0.0,0.0,0.0,0.0,0.0,0.0,0.0,0.0,0.0,0.0,0.0,0.0,0.0,0.0,0.0,0.0,0.0,0.0,0.0,0.0,0.0,0.0,0.0,0.0,0.0,0.0,0.0,0.0,0.0,0.0,0.0,0.0,0.0,0.0,0.0,0.0,0.0,0.0,0.0,0.0,0.0,0.0,0.0,0.0,0.0,0.0,0.0,0.0,0.0,0.0,0.0,0.0,0.0,0.0,0.0,0.0,0.3546,0.3144,0.5176,0.62,0.6027,0.5641,0.5907,0.0,0.0,0.0,0.0,0.0,0.0,0.0,0.0,0.0,0.0,0.0,0.0,0.0,0.0,0.0,0.0,0.0,0.0,0.0,0.0,0.0,0.0,0.0,0.0,0.0,0.0,0.0,0.0,0.0,0.0,0.0,0.0,0.0,0.0,0.0,0.0,0.0,0.0,0.0,0.0,0.0,0.0,0.0,0.0,0.0,0.0,0.0,0.0,0.7204,0.0,0.0,0.0,0.0,0.0,0.0,0.0,0.0,0.0,0.0,0.0,0.0,0.0,0.0,0.0,0.0,0.0,0.0,0.0,0.0,0.0,0.0,0.0,0.0,0.0,0.0,0.0,0.0,0.0,0.0,0.0,0.0,0.0,0.0,0.0,0.0,0.0,0.0,0.0,0.0,0.0,0.0,0.0,0.0,0.0,0.0,0.0,0.0,0.0,0.0,0.0,0.0,0.0,0.0,0.0,0.0,0.0,0.0,0.0,0.4506,0.4606,0.5733,0.6235,0.6135,0.5909,0.6073,0.0,0.0,0.0,0.0,0.0,0.0,0.0,0.0,0.0,0.0,0.0,0.0,0.0,0.0,0.0,0.0,0.0,0.0,0.0,0.0,0.0,0.0,0.0,0.0,0.0,0.0,0.0,0.0,0.0,0.0,0.0,0.0,0.0,0.0,0.0,0.0,0.0,0.0,0.0,0.0,0.0,0.0,0.0,0.0,0.0,0.0,0.0,0.0,0.0,0.0,0.0,0.0,0.0,0.0,0.0,0.0,0.0,0.0,0.0,0.0,0.0,0.0,0.0,0.0,0.0,0.0,0.0,0.0,0.0,0.0,0.0,0.0,0.0,0.0,0.0,0.0,0.0,0.0,0.0,0.0,0.0,0.0,0.0,0.0,0.0,0.0,0.0,0.0,0.0,0.0,0.0,0.0,0.0,0.0,0.0,0.0,0.0,0.0,0.0,0.0,0.0,0.0,0.0,0.0,0.0,0.0,0.0,0.3114,0.4435,0.5752,0.6146,0.6281,0.6261,0.6261,0.635,0.6328,0.0,0.0,0.0,0.0,0.0,0.0,0.0,0.0,0.0,0.0,0.0,0.0,0.0,0.0,0.0,0.0,0.0,0.0,0.0,0.0,0.0,0.0,0.0,0.0,0.0,0.0,0.0,0.0,0.0,0.0,0.0,0.0,0.0,0.0,0.0,0.0,0.0,0.0,0.6046,0.6055,0.0,0.0,0.0,0.0,0.0,0.0,0.0,0.0,0.8721,0.0,0.0,0.0,0.0,0.0,0.0,0.0,0.0,0.0,0.0,0.0,0.0,0.0,0.0,0.0,0.0,0.0,0.0,0.0,0.0,0.0,0.0,0.0,0.0,0.0,0.0,0.0,0.0,0.0,0.0,0.0,0.0,0.0,0.0,0.0,0.0,0.0,0.0,0.0,0.0,0.0,0.0,0.0,0.0,0.0,0.0,0.0,0.0,0.0,0.0,0.0,0.0,0.0,0.0,0.0,0.0,0.0372,0.0598,0.1687,0.3616,0.5384,0.6274,0.6261,0.6261,0.6467,0.6959,0.0,0.0,0.0,0.0,0.0,0.0,0.0,0.0,0.0,0.0,0.0,0.0,0.0,0.0,0.0,0.0,0.0,0.0,0.0,0.0,0.0,0.0,0.0,0.0,0.0,0.0,0.0,0.0,0.0,0.0,0.0,0.0,0.0,0.0,0.0,0.0,0.0,0.0,0.0,0.5837,0.6173,0.0,0.0,0.0,0.0,0.0,0.0,0.0,0.0,0.9261,0.0,0.0,0.0,0.0,0.0,0.0,0.0,0.0,0.0,0.0,0.0,0.0,0.0,0.0,0.0,0.0,0.0,0.0,0.0,0.0,0.0,0.0,0.0,0.0,0.0,0.0,0.0,0.0,0.0,0.0,0.0,0.0,0.0,0.0,0.0,0.0,0.0,0.0,0.0,0.0,0.0,0.0,0.0,0.0,0.0,0.0,0.0,0.0,0.0,0.0,0.0,0.0,0.0,0.0,0.0,0.2945,0.1063,0.0472,0.156,0.4634,0.625,0.6304,0.6308,0.6408,0.0,0.0,0.0,0.0,0.0,0.0,0.0,0.0,0.0,0.0,0.0,0.0,0.0,0.0,0.0,0.0,0.0,0.0,0.0,0.0,0.0,0.0,0.0,0.0,0.0,0.0,0.0,0.0,0.0,0.0,0.0,0.0,0.0,0.0,0.0,0.0,0.0,0.0,0.0,0.0,0.6211,0.6443,0.71,0.0,0.0,0.0,0.0,0.0,0.0,0.989,0.9896,0.0,0.0,0.0,0.0,0.0,0.0,0.0,0.0,0.0,0.0,0.0,0.0,0.0,0.0,0.0,0.0,0.0,0.0,0.0,0.0,0.0,0.0,0.0,0.0,0.0,0.0,0.0,0.0,0.0,0.0,0.0,0.0,0.0,0.0,0.0,0.0,0.0,0.0,0.0,0.0,0.0,0.0,0.0,0.0,0.0,0.0,0.0,0.0,0.0,0.0,0.0,0.0,0.0,0.0,0.0,0.5397,0.2758,0.0884,0.0168,0.3304,0.5252,0.5675,0.6116,0.6261,0.0,0.0,0.0,0.0,0.0,0.0,0.0,0.0,0.0,0.0,0.0,0.0,0.0,0.0,0.0,0.0,0.0,0.0,0.0,0.0,0.0,0.0,0.0,0.0,0.0,0.0,0.0,0.0,0.0,0.0,0.0,0.0,0.0,0.0,0.0,0.0,0.0,0.0,0.0,0.0,0.0,0.6715,0.7146,0.8533,0.0,0.0,0.0,0.0,1.0594,1.043,0.0,0.0,0.0,0.0,0.0,0.0,0.0,0.0,0.0,0.0,0.0,0.0,0.0,0.0,0.0,0.0,0.0,0.0,0.0,0.0,0.0,0.0,0.0,0.0,0.0,0.0,0.0,0.0,0.0,0.0,0.0,0.0,0.0,0.0,0.0,0.0,0.0,0.0,0.0,0.0,0.0,0.0,0.0,0.0,0.0,0.0,0.0,0.0,0.0,0.0,0.0,0.0,0.0,0.0,0.0,0.0,0.4664,0.531,0.3734,0.0257,0.0,0.1582,0.3396,0.5311,0.6271,0.0,0.0,0.0,0.0,0.0,0.0,0.0,0.0,0.0,0.0,0.0,0.0,0.0,0.0,0.0,0.0,0.0,0.0,0.0,0.0,0.0,0.0,0.0,0.0,0.0,0.0,0.0,0.0,0.0,0.0,0.0,0.0,0.0,0.0,0.0,0.0,0.0,0.0,0.0,0.0,0.0,0.6761,0.7864,0.8762,0.9145,0.0,0.0,1.1735,1.0221,1.0683,0.0,0.0,0.0,0.0,0.0,0.0,0.0,0.0,0.0,0.0,0.0,0.0,0.0,0.0,0.0,0.0,0.0,0.0,0.0,0.0,0.0,0.0,0.0,0.0,0.0,0.0,0.0,0.0,0.0,0.0,0.0,0.0,0.0,0.0,0.0,0.0,0.0,0.0,0.0,0.0,0.0,0.0,0.0,0.0,0.0,0.0,0.0,0.0,0.0,0.0,0.0,0.0,0.0,0.0,0.0,0.2659,0.438,0.3344,0.1823,0.0,0.0,0.0399,0.1318,0.2261,0.3829,0.0,0.0,0.0,0.0,0.0,0.0,0.0,0.0,0.0,0.0,0.0,0.0,0.0,0.0,0.0,0.0,0.0,0.0,0.0,0.0,0.0,0.0,0.0,0.0,0.0,0.0,0.0,0.0,0.0,0.0,0.0,0.0,0.0,0.0,0.0,0.0,0.0,0.0,0.0,0.0,0.0,0.0,0.7929,0.8844,0.0,0.0,0.0,1.2249,1.1395,0.0,0.0,0.0,0.0,0.0,0.0,0.0,0.0,0.0,0.0,0.0,0.0,0.0,0.0,0.0,0.0,0.0,0.0,0.0,0.0,0.0,0.0,0.0,0.0,0.0,0.0,0.0,0.0,0.0,0.0,0.0,0.0,0.0,0.0,0.0,0.0,0.0,0.0,0.0,0.0,0.0,0.0,0.0,0.0,0.0,0.0,0.0,0.0,0.0,0.0,0.0,0.0,0.0,0.0,0.0,0.0,0.0,0.154,0.055,0.0,0.0,0.0,0.0,0.0,0.0,0.0,0.0,0.0,0.0,0.0,0.0,0.0,0.0,0.0,0.0,0.0,0.0,0.0,0.0,0.0,0.0,0.0,0.0,0.0,0.0,0.0,0.0,0.0,0.0,0.0,0.0,0.0,0.3073,0.0,0.0,0.0,0.0,0.0,0.0,0.0,0.0,0.0,0.0,0.0,0.0,0.0,0.0,0.8103,0.7697,0.864,0.9218,0.0,0.0,1.233,1.1974,1.2038,1.2244,0.0,0.0,0.0,0.0,0.0,0.0,0.0,0.0,0.0,0.0,0.0,0.0,0.0,0.0,0.0,0.0,0.0,0.0,0.0,0.0,0.0,0.0,0.0,0.0,0.0,0.0,0.0,0.0,0.0,0.0,0.0,0.0,0.0,0.0,0.0,0.0,0.0,0.0,0.0,0.0,0.0,0.0,0.0,0.0,0.0,0.0,0.0,0.0,0.0,0.0,0.0,0.0,0.0,0.0,-0.6491,-0.6231,-0.2136,0.0,0.0,0.0,0.0,0.0,0.0,0.2534,0.0,0.0,0.0,0.0,0.0,0.0,0.0,0.0,0.0,0.0,0.0,0.0,0.0,0.0,0.0,0.0,0.0,0.0,0.0,0.0,0.0,0.0,0.0,0.0,0.0,0.0,0.0,0.0,0.0,0.0,0.0,0.0,0.0,0.0,0.0,0.0,0.0,0.0,0.0,0.0,0.0,0.875,0.7529,0.7886,0.818,0.0,0.9969,1.1443,1.094,1.1904,1.2791,1.2848,0.0,0.0,0.0,0.0,0.0,0.0,0.0,0.0,0.0,0.0,0.0,0.0,0.0,0.0,0.0,0.0,0.0,0.0,0.0,0.0,0.0,0.0,0.0,0.0,0.0,0.0,0.0,0.0,0.0,0.0,0.0,0.0,0.0,0.0,0.0,0.0,0.0,0.0,0.0,0.0,0.0,0.0,0.0,0.0,0.0,0.0,0.0,0.0,0.0,0.0,0.0,0.0,0.0,-0.6762,-0.7036,-0.5167,-0.2765,0.0,0.0,0.0,0.0,0.0,0.2406,0.0,0.0,0.0,0.0,0.0,0.0,0.0,0.0,0.0,0.0,0.0,0.0,0.0,0.0,0.0,0.0,0.0,0.0,0.0,0.0,0.0,0.0,0.0,0.0,0.0,0.0,0.0,0.0,0.4356,0.4481,0.4307,0.0,0.0,0.0,0.0,0.0,0.0,0.0,0.0,0.0,0.0,0.7509,0.7731,0.7936,0.0,0.0,0.9997,1.142,1.1294,1.2378,1.3239,1.3134,1.3279,0.0,0.0,0.0,0.0,0.0,0.0,0.0,0.0,0.0,0.0,0.0,0.0,0.0,0.0,0.0,0.0,0.0,0.0,0.0,0.0,0.0,0.0,0.0,0.0,0.0,0.0,0.0,0.0,0.0,0.0,0.0,0.0,0.0,0.0,0.0,0.0,0.0,0.0,0.0,0.0,0.0,0.0,0.0,0.0,0.0,0.0,0.0,0.0,0.0,0.0,0.0,0.0,-0.5995,-0.6945,-0.6875,-0.5236,-0.2051,-0.0672,0.0,0.0,0.0,0.1539,0.0,0.0,0.0,0.0,0.0,0.0,0.0,0.0,0.0,0.0,0.0,0.0,0.0,0.0,0.0,0.0,0.0,0.0,0.0,0.0,0.0,0.0,0.0,0.0,0.0,0.0,0.0,0.0,0.4594,0.4721,0.4385,0.0,0.0,0.0,0.0,0.0,0.0,0.0,0.0,0.0,0.0,0.667,0.7458,0.7901,0.832,0.8638,1.0468,1.1845,1.2103,1.292,1.3607,1.3487,0.0,0.0,0.0,0.0,0.0,0.0,0.0,0.0,0.0,0.0,0.0,0.0,0.0,0.0,0.0,0.0,0.0,0.0,0.0,0.0,0.0,0.0,0.0,0.0,0.0,0.0,0.0,-0.3628,0.0,0.0,-0.274,0.0,0.0,0.0,0.0,0.0,0.0,0.0,0.0,0.0,0.0,0.0,0.0,0.0,0.0,0.0,0.0,0.0,0.0,0.0,0.0,0.0,0.0,-0.4711,-0.6676,-0.6983,-0.6868,-0.6523,-0.2351,0.0,0.0,0.0,0.0,0.0,0.0,0.0,0.0,0.0,0.0,0.0,0.0,0.0,0.0,0.0,0.0,0.0,0.0,0.0,0.0,0.0,0.0,0.0,0.0,0.0,0.0,0.0,0.0,0.0,0.0,0.0,0.3724,0.4273,0.4809,0.0,0.0,0.0,0.0,0.0,0.0,0.0,0.0,0.0,0.6458,0.6621,0.6631,0.6558,0.7789,0.8853,0.9658,1.1149,1.2481,1.3244,1.3566,1.3741,0.0,0.0,0.0,0.0,0.0,0.0,0.0,0.0,0.0,0.0,0.0,0.0,0.0,0.0,0.0,0.0,0.0,0.0,0.0,0.0,0.0,0.0,0.0,0.0,0.0,0.0,0.0,-0.7192,-0.8167,0.0,0.0,0.0,0.0,0.0,0.0,0.0,0.0,0.0,0.0,0.0,-0.9554,-1.023,0.0,0.0,0.0,0.0,0.0,0.0,0.0,0.0,0.0,0.0,0.0,0.0,-0.4743,-0.6819,-0.679,-0.6834,-0.6944,-0.5552,-0.3194,0.0,0.0,0.0,0.0,0.0,0.0,0.0,0.0,0.0,0.0,0.0,0.0,0.0,0.0,0.0,0.0,0.0,0.0,0.0,0.0,0.0,0.0,0.0,0.0,0.0,0.0,0.0,0.0,0.0,0.4714,0.0,0.0,0.0,0.0,0.0,0.0,0.0,0.0,0.0,0.0,0.5686,0.5843,0.6311,0.6569,0.6661,0.6676,0.7109,0.7975,0.0,0.0,0.0,0.0,0.0,0.0,0.0,0.0,0.0,0.0,0.0,0.0,0.0,0.0,1.4589,1.5631,1.6144,1.6767,1.8135,0.0,0.0,0.0,0.0,0.0,0.0,0.0,0.0,0.0,0.0,0.0,0.0,0.0,0.0,-0.9733,-1.0508,-0.9382,0.0,0.0,0.0,0.0,0.0,0.0,0.0,0.0,-1.1107,-1.1595,-1.155,-1.2166,-1.2067,-1.1352,-1.1064,-0.9695,0.0,0.0,0.0,0.0,0.0,0.0,0.0,0.0,-0.5607,-0.7059,-0.6932,-0.6949,-0.7191,-0.7309,-0.5912,-0.2767,-0.0917,0.0,0.0,0.0,0.1359,0.0,0.0,0.0,0.0,0.0,0.0,0.0,0.0,0.0,0.0,0.0,0.0,0.0,0.0,0.0,0.0,0.0,0.0,0.0,0.0,0.0,0.0,0.0,0.5264,0.0,0.0,0.0,0.0,0.0,0.0,0.0,0.0,0.0,0.5881,0.5761,0.5866,0.6407,0.6615,0.6749,0.6804,0.0,0.0,0.0,0.0,0.0,0.0,0.0,1.2271,1.1696,1.2392,1.3162,1.3418,1.3811,1.4176,1.4376,0.0,0.0,1.5218,1.5856,1.6324,1.6234,1.623,1.697,1.9025,1.9114,1.9133,0.0,0.0,0.0,0.0,-1.0,0.0,0.0,0.0,-1.019,-1.0798,0.0,-0.9762,0.0,0.0,0.0,0.0,-0.9508,-1.0609,0.0,0.0,-1.3082,-1.3968,-1.4489,-1.4242,-1.4255,-1.4422,-1.3108,-1.2271,-1.181,-0.9648,0.0,0.0,0.0,0.0,0.0,0.0,-0.7311,-0.7135,-0.7271,-0.7413,-0.7377,-0.7791,-0.7813,-0.7254,-0.2549,0.0,0.0,0.0,0.0,0.0,0.3916,0.0,0.0,0.0,0.0,0.0,0.0,0.0,0.0,0.0,0.0,0.0,0.0,0.0,0.0,0.0,0.0,0.0,0.0,0.0,0.0,0.4854,0.0,0.0,0.0,0.0,0.0,0.0,0.0,0.0,0.0,0.5747,0.6562,0.5731,0.5586,0.6566,0.0,0.0,0.0,0.0,0.8599,0.7389,0.9457,1.1106,1.0895,1.1064,1.1069,1.1043,0.0,0.0,1.3067,1.3658,1.4226,1.4923,1.4867,1.4579,1.4215,1.5013,1.5354,1.4467,1.6141,1.7605,1.7458,1.8628,2.0098,-1.5348,0.0,0.0,0.0,0.0,-1.2513,-1.3145,-1.395,-1.474,-1.5249,-1.5409,-1.5063,0.0,0.0,0.0,0.0,0.0,0.0,-1.2282,-1.3763,-1.3924,-1.4376,-1.513,-1.485,-1.4756,-1.4836,-1.4612,-1.4287,-1.3724,-1.3291,-1.1538,-0.8602,0.0,0.0,0.0,0.0,-0.8329,-0.719,-0.7336,-0.7489,-0.7533,-0.7846,-0.7027,-0.5106,-0.1723,0.0,0.0,0.0,0.0,0.0,0.1166,0.0,0.0,0.0,0.0,0.0,0.0,0.0,0.0,0.0,0.0,0.0,0.0,0.0,0.0,0.0,0.0,0.0,0.0,0.0,0.4989,0.467,0.4874,0.0,0.0,0.0,0.0,0.0,0.0,0.0,0.0,0.0,0.6368,0.3519,0.2426,0.0,0.0,0.7052,0.6995,0.7556,0.7987,0.7798,0.8303,0.0,0.8641,0.9678,1.0319,0.9859,1.0542,1.1516,1.2933,1.2692,1.2963,1.5147,1.5244,1.4993,1.4851,1.4967,1.5055,1.4886,1.5371,1.5691,1.5305,1.7055,1.9613,-1.8688,-1.714,-1.5157,-1.4564,-1.5033,-1.564,-1.6512,-1.7406,-1.7977,-1.8136,-1.7803,-1.7406,-1.6635,-1.5731,-1.5731,0.0,0.0,0.0,-1.4961,-1.6139,-1.6159,-1.6507,-1.7051,-1.6425,-1.623,-1.6289,-1.5212,-1.4747,-1.487,-1.4592,-1.3374,-1.1257,0.0,-0.9892,-0.8865,-0.9187,-0.8839,-0.7945,-0.7653,-0.753,-0.7689,-0.7926,-0.7208,-0.5548,-0.1962,0.0,0.0,0.0,0.0,0.0,0.0,0.1197,0.0,0.0,0.0,0.0,0.0,0.0,0.0,0.0,0.0,0.0,0.0,0.3915,0.4089,0.0,0.0,0.0,0.5159,0.5113,0.3433,0.2771,0.0,0.0,0.0,0.0,0.0,0.0,0.0,0.3819,0.5154,0.6329,0.619,0.2622,0.0719,0.2495,0.5537,0.7564,0.7164,0.0,0.7706,0.7962,0.7822,0.7665,0.7611,0.8501,0.9224,0.9287,0.971,1.0597,1.2054,1.2551,1.3668,1.5517,1.5994,1.5738,1.5558,1.5598,1.5651,1.5638,1.5447,1.5116,1.4539,1.6876,1.9913,-2.1281,-2.1043,-1.8062,-1.7602,-1.8766,-1.9219,-1.9577,-1.9779,-2.0208,-1.9782,-1.8751,-1.7723,-1.7626,-1.8263,-1.8297,0.0,-1.8238,-1.859,-1.8679,-1.8721,-1.915,-1.9502,-1.9737,-1.8699,-1.8249,-1.8376,-1.553,-1.4603,-1.5523,-1.4484,-1.3826,-1.3802,-1.3115,-1.213,-1.0732,-0.991,-0.9354,-0.9087,-0.827,-0.778,-0.7828,-0.7888,-0.7975,-0.7885,-0.2965,0.0,0.0,0.0,0.0,0.0,0.0,0.0,0.0,0.0,0.0,0.0,0.0,0.0,0.0,0.0,0.0,0.0,0.0,0.0,0.0,0.0,0.0,0.3901,0.4984,0.0,0.0871,0.0178,0.0,0.0,0.0,0.4378,0.6337,0.6824,0.674,0.5925,0.0,0.0,0.5749,0.2446,0.0,0.0,0.457,0.7706,0.7311,0.7647,0.7902,0.8041,0.794,0.7807,0.7726,0.7787,0.816,0.9009,0.9226,0.9609,1.0631,1.2547,1.4637,1.6547,1.674,1.6653,1.648,1.6567,1.6747,1.6734,1.6244,1.5704,1.5422,1.7584,2.044,-2.2041,-2.2203,-2.105,-2.0814,-2.1091,-2.1197,-2.1293,-2.138,-2.1486,-2.1358,-2.1099,-2.0838,-2.0782,-2.0976,-2.0395,-2.017,-2.0196,-1.9787,-1.9644,-1.9912,-2.0004,-2.0238,-2.0495,-2.0215,-2.0178,-2.0087,-1.8405,-1.7477,-1.7238,-1.5994,-1.5058,-1.4708,-1.4495,-1.3471,-1.1701,-1.1989,-1.1288,-0.9451,-0.9272,-0.8887,-0.798,-0.8028,-0.7959,-0.7975,-0.48,-0.2079,0.0,0.0,0.0,0.0,0.0,0.0,0.0,0.2161,0.0,0.0,0.0,0.0,0.0,0.0,0.0,0.0,0.0,0.5147,0.5122,0.0,0.6384,0.0,0.2867,0.2394,0.4552,0.1929,0.0,0.0,0.3136,0.3327,0.1869,0.4933,0.5689,0.188,0.1491,0.1498,0.1545,0.0581,0.0,0.0,0.0,0.3543,0.7664,0.8302,0.8197,0.8357,0.8313,0.8163,0.8136,0.8031,0.8082,0.8435,0.8524,0.8614,0.874,0.9232,1.1248,1.6087,1.7347,1.7231,1.6867,1.6961,1.7121,1.7281,1.6935,1.6444,1.6313,1.774,2.0131,-2.357,-2.3412,-2.3441,-2.3228,-2.2725,-2.2734,-2.2734,-2.2744,-2.293,-2.3018,-2.2998,-2.2822,-2.2466,-2.1957,-2.2155,-2.224,-2.2189,-2.2025,-2.1951,-2.2158,-2.2348,-2.2546,-2.2658,-2.2241,-2.2136,-2.2045,-2.0496,-1.933,-1.855,-1.8177,-1.7196,-1.5644,-1.6181,-1.5511,-1.3663,-1.3379,-1.2579,-1.1462,-1.0455,-0.9604,-0.8916,-0.8333,-0.8016,-0.7962,-0.6595,-0.5041,-0.3558,-0.1289,0.0,0.0,0.0,0.0,0.0,0.1615,0.4393,0.0,0.0,0.0,0.0,0.0,0.0,0.0,0.0,0.0,0.0,0.0,0.7305,0.6578,0.2568,0.0922,0.323,0.141,0.0,0.0,0.1352,0.1643,0.0193,0.2297,0.2953,0.0,0.0,0.0,0.0,0.0,0.0,0.0,0.0,0.12,0.4294,0.567,0.6883,0.8348,0.8584,0.847,0.8453,0.8248,0.8211,0.8313,0.8353,0.8384,0.8243,0.8236,0.9549,1.3077,1.5793,1.7255,1.6509,1.6873,1.7408,1.7482,1.7445,1.7203,1.7191,1.8102,1.9934,-2.5344,-2.4673,-2.5306,-2.5052,-2.4297,-2.4356,-2.4187,-2.3887,-2.4258,-2.4424,-2.4394,-2.4023,-2.3305,-2.2382,-2.3463,-2.3955,-2.3975,-2.4394,-2.459,-2.4609,-2.498,-2.5156,-2.5156,-2.4303,-2.3984,-2.3863,-2.229,-2.0942,-1.9729,-2.05,-1.9492,-1.7002,-1.7993,-1.7757,-1.6205,-1.4593,-1.3803,-1.3866,-1.138,-1.0031,-1.0036,-0.8777,-0.8031,-0.8078,-0.7744,-0.7635,-0.7899,-0.3555,-0.0902,-0.0617,0.0,0.0,0.0,0.0,0.2331,0.0,0.8453,0.0,0.0,0.0,0.0,0.0,0.0,0.0,0.0,0.6486,0.7292,0.7931,0.3165,0.0,0.0,0.0,0.0,0.0,0.0,-0.0292,-0.099,-0.0495,0.0,0.0,0.0,0.0,0.0,0.0,0.0,0.0,0.0,0.0,0.0,0.2165,0.4748,0.8216,0.8737,0.8663,0.8591,0.8472,0.8486,0.8567,0.8608,0.857,0.8555,0.8508,0.8725,0.9428,1.3398,1.6505,1.5565,1.6662,1.7655,1.7729,1.788,1.7918,1.7833,1.8526,1.9156,-2.6523,-2.6642,-2.636,-2.6642,-2.7119,-2.7512,-2.6403,-2.4307,-2.4385,-2.4424,-2.4414,-2.4326,-2.4103,-2.404,-2.4575,-2.4834,-2.4853,-2.5283,-2.5478,-2.5488,-2.5576,-2.5605,-2.5605,-2.5441,-2.5285,-2.5226,-2.3854,-2.2938,-2.2514,-2.1531,-2.072,-1.999,-1.9795,-1.9193,-1.8133,0.0,0.0,0.0,-1.1415,-1.0113,-1.0121,-0.9046,-0.8428,-0.8381,-0.5981,0.0,-0.8085,-0.7586,-0.615,-0.3722,-0.138,0.0,0.0,0.0,0.0,0.0,0.0,0.0,0.0,0.0,0.0,0.0,0.7597,0.7397,0.6744,0.3556,0.3329,0.7412,0.3154,0.0,0.0,0.0,0.0,0.0,0.0,-0.1883,-0.6317,-0.3007,0.0,0.0,0.0,0.0,0.0,0.0,0.0,0.0,0.0,0.0,0.0,0.0,0.0,0.7686,0.8575,0.8736,0.8719,0.8893,0.9062,0.891,0.8835,0.8855,0.8862,0.8859,0.8852,0.9027,1.1778,1.4489,1.5482,1.6952,1.7915,1.827,1.8306,1.8372,1.8151,1.8401,1.8666,-2.8433,-2.8063,-2.8337,-2.8368,0.0,-2.8836,-2.8167,-2.6854,-2.6238,-2.5605,-2.5068,-2.5059,-2.5059,-2.5078,-2.5303,-2.5391,-2.541,-2.5635,-2.5732,-2.5732,-2.5732,-2.5732,-2.5732,-2.5732,-2.5732,-2.5635,-2.5068,-2.4248,-2.351,-2.3483,-2.2584,-2.102,-2.1234,-2.0392,-1.8491,-1.7522,-1.6334,-1.4854,-1.2718,-1.1839,-1.2164,-0.9796,-0.8506,-0.8548,-0.7029,0.0,0.0,0.0,0.0,0.0,0.0,0.0,0.0,0.0,0.0,0.0,0.282,0.3869,0.262,0.5866,0.7999,0.7935,0.5541,0.3892,0.3592,0.1391,0.1115,0.3684,0.1534,-0.1237,-0.4096,-0.4423,-0.3814,-0.2472,-0.2245,-0.3522,-0.592,-0.5422,-0.3777,-0.2501,-0.2254,-0.1732,0.0,0.0,0.0,0.0,0.0,0.0,0.0,0.0,0.0,0.4211,0.7334,0.8826,0.8863,0.9208,0.949,0.9,0.898,0.9018,0.895,0.8937,0.8967,0.9174,1.0478,1.1893,1.3506,1.5555,1.706,1.7426,1.8158,1.8877,1.8803,1.8692,1.8585,-3.0226,-2.9424,-3.0205,-3.0095,-2.9424,-2.9747,-2.9784,-2.9681,-2.8412,0.0,0.0,-2.6264,-2.6274,-2.6137,-2.6274,-2.6197,-2.6014,-2.6014,-2.5917,-2.5732,-2.5732,-2.5732,-2.5732,-2.5732,-2.5732,-2.5732,-2.5732,-2.5128,-2.4097,-2.5128,-2.4431,-2.229,-2.2703,-2.1716,-1.9036,-1.7409,-1.6532,-1.6116,-1.4282,-1.3734,-1.4295,-1.1307,-0.9451,-0.9081,-0.8766,-0.8568,-0.8608,-0.8838,-0.8821,-0.8719,-0.8855,-0.664,-0.1895,-0.1579,-0.1504,-0.1562,-0.0599,0.0,0.0,0.4124,0.6155,0.5114,0.1972,0.0,0.0,0.0,0.0,0.0,0.0,-0.2467,-0.8331,-0.8894,-0.7936,-0.5473,-0.5302,-0.5289,-0.5458,-0.7385,-0.7736,-0.5824,-0.5337,-0.4512,-0.2294,0.0,0.0,0.0,0.0,0.0,0.0,0.0,0.0,0.0,0.4038,0.7169,0.806,0.9069,0.9327,0.9142,0.9121,0.9117,0.9022,0.8964,0.9035,0.9373,0.9494,1.0255,1.1525,1.3944,1.5796,1.6331,1.7765,1.9146,1.9376,1.9201,1.892,-3.1192,-3.1028,-3.119,-3.1419,-3.1782,-3.1759,-3.1515,-3.0843,-2.9681,-2.8642,-2.7903,-2.8571,-2.8457,-2.7903,-2.8571,-2.8319,-2.741,-2.7315,-2.6754,-2.5732,-2.5732,-2.5732,-2.5732,-2.5732,-2.5732,-2.5732,-2.5732,-2.5635,-2.543,-2.5635,-2.5401,-2.5091,-2.4899,-2.3617,-2.1424,-1.9107,-1.7772,-1.7728,-1.5325,-1.4252,-1.4826,-1.4155,-1.2803,-1.087,-0.9479,-0.8832,-0.8823,-0.8899,-0.8899,-0.8826,-0.8906,-0.8455,-0.7689,-0.7375,-0.7413,-0.7351,-0.2902,0.0,0.0,0.0732,-0.1055,-0.573,-0.2582,0.0,0.0,0.0,0.0,0.0,0.0,-0.2414,-0.8039,-0.8856,-0.8742,-0.8288,-0.8279,-0.8276,-0.8152,-0.8488,-0.8682,-0.8175,-0.8546,-0.8513,-0.7355,-0.3487,0.0,0.0,0.0,0.0,0.0,0.0,0.0,0.0,0.06,0.2278,0.4691,0.7423,0.853,0.9357,0.9252,0.9171,0.8917,0.8943,0.9117,0.9669,0.9768,1.0339,1.1778,1.3433,1.5105,1.656,1.744,1.8301,1.9607,1.9878,1.9918,-3.2675,-3.2645,-3.2402,-3.2453,-3.2679,-3.2679,-3.2561,-3.2227,-3.1689,-3.0427,-2.8965,-2.9259,-2.9942,-3.0778,-2.9828,-2.9131,-2.8588,-2.8588,-2.8319,-2.7652,-2.7254,-2.7254,-2.7767,-2.8166,-2.7799,-2.6764,-2.6754,-2.639,-2.5732,-2.5732,-2.5732,-2.5606,-2.4689,-2.3777,-2.285,-2.0906,-1.966,-1.9294,-1.6827,-1.5737,-1.6207,-1.6243,-1.4979,-1.2403,-1.0167,-0.8869,-0.8933,-0.8937,-0.8937,-0.8937,-0.9042,-0.9052,-0.8944,-0.8999,-0.913,-0.9213,-0.6521,-0.415,-0.2549,-0.2466,-0.356,-0.6275,-0.5494,-0.4088,-0.2518,-0.0876,0.0,0.0,0.0,-0.1778,-0.6051,-0.7994,-0.8903,-0.8863,-0.8866,-0.9001,-0.9059,-0.9079,-0.9049,-0.9189,-0.9303,-0.9373,-0.9446,-0.6968,-0.4395,-0.3003,-0.1387,0.0,0.0,0.0,0.0,0.0,0.0,0.0,0.0,0.3093,0.5371,0.8505,0.9232,0.9101,0.9027,0.8974,0.9384,0.994,1.0143,1.0305,1.117,1.2394,1.3829,1.4651,1.6809,1.8039,1.8939,1.9901,2.0579,-3.434,-3.4313,-3.3688,-3.3313,-3.3081,-3.3081,-3.3081,-3.3081,-3.3081,-3.1965,-3.0418,-3.0226,-3.1333,-3.2786,-3.107,-3.0045,-2.9863,-2.9772,-2.967,-2.9385,-2.8976,-2.8987,-2.9418,-3.0228,-2.9665,-2.8164,-2.8049,-2.7484,-2.6658,-2.6562,-2.638,-2.5954,-2.4496,-2.3824,-2.3864,-2.2336,-2.1315,-2.0716,-1.8268,-1.7071,-1.7255,-1.7463,-1.638,-1.3804,-1.1259,-0.9745,-0.9372,-0.9047,-0.8937,-0.8947,-0.912,-0.9164,-0.9055,-0.9205,-0.9473,-0.9672,-0.9356,-0.7993,-0.5841,-0.5492,-0.5486,-0.5484,-0.7575,-0.7865,-0.5706,-0.3358,-0.168,-0.1232,0.0,-0.3246,-0.5601,-0.7668,-0.9039,-0.8994,-0.9028,-0.91,-0.9188,-0.9201,-0.9295,-0.9314,-0.9402,-0.9488,-0.9546,-0.9569,-0.8506,-0.6096,-0.2636,0.0,0.0,0.0,0.0,0.0,0.0,0.0,0.0,0.0,0.0,0.6449,0.8277,0.8797,0.894,0.9124,0.9561,1.0201,1.0344,1.0348,1.0465,1.1322,1.2345,1.3164,1.5433,1.7725,1.8979,2.0035,2.0856,-3.5943,-3.5812,-3.4939,-3.3953,-3.324,-3.3167,-3.3154,-3.3154,-3.3167,-3.2995,-3.2698,-3.2785,-3.2835,-3.3095,-3.2847,-3.2064,-3.1045,-3.1045,-3.0485,-2.9704,-3.0091,-3.0068,-2.9612,-3.032,-3.0125,-2.9338,-2.9223,-2.9143,-2.8855,-2.8947,-2.8505,-2.7348,-2.5739,-2.4759,-2.4287,-2.3367,-2.2619,-2.215,-1.9067,-1.7569,-1.7528,-1.7582,-1.6836,-1.5304,-1.3685,-1.2281,-1.1,-0.9588,-0.8937,-0.8947,-0.9086,-0.9215,-0.932,-0.9361,-0.9496,-0.9741,-0.9507,-0.9069,-0.848,-0.8485,-0.8406,-0.8507,-0.8641,-0.8768,-0.8412,-0.8091,-0.6847,-0.5154,-0.6517,-0.7771,-0.8425,-0.8997,-0.9298,-0.9147,-0.9259,-0.9374,-0.9361,-0.9361,-0.9384,-0.9222,-0.9501,-0.9586,-0.9503,-0.9694,-0.9579,-0.8945,-0.451,0.0,0.0,0.0,0.0,0.0,0.0,0.0,0.0,0.0,0.0,0.0,0.5424,0.7829,0.8469,0.9026,0.9279,1.0362,1.0678,1.0588,1.0514,1.0732,1.1286,1.2657,1.4619,1.7016,1.9717,2.0829,2.0783,-3.7175,-3.7035,-3.5987,-3.5359,-3.4952,-3.4952,-3.4952,-3.4952,-3.4952,-3.4568,-3.4108,-3.4037,-3.3713,-3.3167,-3.3081,-3.2797,-3.2339,-3.2326,-3.2064,-3.1613,-3.191,-3.1898,-3.1637,-3.191,-3.152,-3.0508,-3.0496,-3.0135,-2.9487,-2.9396,-2.8773,-2.7662,-2.6919,-2.6094,-2.5215,-2.4775,-2.4165,-2.3223,-2.2663,-2.1599,-2.0033,-1.8401,-1.6929,-1.5524,-1.4883,-1.3911,-1.2507,-1.1755,-1.1156,-1.0385,-1.0435,-1.0219,-0.9494,-0.9547,-0.9693,-0.9802,-0.9642,-0.9309,-0.8964,-0.901,-0.9052,-0.896,-0.896,-0.8964,-0.896,-0.8953,-0.8552,-0.7722,-0.8249,-0.8967,-0.9127,-0.9242,-0.9327,-0.9303,-0.9354,-0.9429,-0.951,-0.9517,-0.9561,-0.955,-0.9666,-0.9676,-0.9664,-0.9697,-0.9836,-0.9622,-0.7004,-0.5529,-0.5548,-0.2586,0.0,0.0,0.0,0.0,0.0,0.0,0.0,0.0,0.1915,0.4099,0.7911,0.8852,0.9306,1.0534,1.0622,1.0697,1.0643,1.0629,1.1048,1.2173,1.3218,1.5371,1.8816,1.9565,1.9941,-3.8234,-3.8069,-3.7084,-3.6448,-3.6198,-3.6198,-3.6198,-3.6198,-3.6198,-3.5814,-3.5116,-3.5129,-3.4498,-3.3556,-3.324,-3.3081,-3.3081,-3.3081,-3.3081,-3.3081,-3.3081,-3.3081,-3.3081,-3.3081,-3.2612,-3.1865,-3.1777,-3.1323,-3.0418,-3.0045,-2.9396,-2.868,-2.8215,-2.7494,-2.639,-2.6197,-2.5596,-2.4412,-2.4904,-2.4181,-2.208,-1.9517,-1.766,-1.658,-1.6193,-1.5339,-1.3911,-1.3712,-1.3163,-1.2029,-1.1663,-1.0858,-0.9507,-0.9659,-0.9819,-0.9808,-0.969,-0.9517,-0.9168,-0.9198,-0.911,-0.9011,-0.8967,-0.8957,-0.9015,-0.9144,-0.9228,-0.9121,-0.9149,-0.9198,-0.9279,-0.9378,-0.9456,-0.9445,-0.9473,-0.9551,-0.9652,-0.9669,-0.9703,-0.9802,-0.9795,-0.9819,-0.9819,-0.9822,-0.9829,-0.9717,-0.9721,-0.9741,-0.9413,-0.5808,0.0,0.0,0.0,0.0,0.0,0.0,0.0,0.0,0.0,0.2001,0.6225,0.7243,0.9392,1.0602,1.0687,1.0714,1.0694,1.0707,1.0989,1.1523,1.2568,1.4259,1.7147,1.7636,1.8774,-3.9337,-3.9177,-3.8144,-3.7175,-3.6198,-3.6277,-3.6277,-3.6434,-3.6277,-3.6198,-3.6132,-3.6119,-3.5588,-3.4594,-3.3713,-3.3167,-3.3081,-3.3081,-3.3081,-3.3081,-3.3081,-3.3081,-3.3081,-3.3081,-3.3081,-3.2884,-3.2797,-3.2797,-3.2711,-3.1689,-3.1134,-3.0944,-2.9897,-2.8713,-2.7662,-2.7494,-2.687,-2.5625,-2.4603,-2.3818,-2.3384,-2.0947,-1.9517,-1.9317,-1.8092,-1.6712,-1.5446,-1.4843,-1.4315,-1.3588,-1.2466,-1.0982,-0.9644,-0.9666,-0.9819,-0.9808,-0.9693,-0.9612,-0.9665,-0.9439,-0.915,-0.9123,-0.9022,-0.8998,-0.9113,-0.9218,-0.93,-0.9364,-0.9608,-0.9659,-0.9452,-0.9523,-0.9602,-0.9608,-0.9713,-0.9778,-0.9798,-0.9788,-0.9808,-0.9819,-0.9819,-0.9819,-0.9819,-0.9819,-0.9822,-0.9825,-0.9825,-0.9849,-0.9777,-0.9617,-0.6906,-0.2644,0.0,0.0,0.0,0.0,0.0,0.0,0.0,0.0,0.0,0.5127,0.0,1.069,1.0711,1.0721,1.0721,1.0993,1.1405,1.1935,1.2305,1.4002,1.5623,1.5959,1.6958,-3.9935,-3.9337,-3.9017,-3.8605,-3.8294,-3.8219,-3.8279,-3.8294,-3.8204,-3.7814,-3.7266,-3.7266,-3.6618,-3.5654,-3.5265,-3.4332,-3.3154,-3.3081,-3.3081,-3.3081,-3.3081,-3.3081,-3.3081,-3.3081,-3.3081,-3.3081,-3.3081,-3.3081,-3.3068,-3.2612,-3.1965,-3.1294,-3.1219,-3.021,-2.8678,-2.846,-2.7795,-2.6614,-2.5781,-2.5296,-2.4843,-2.3185,-2.2274,-2.2064,-1.916,-1.7411,-1.6823,-1.6927,-1.6861,-1.6604,-1.5421,-1.3161,-1.013,-0.9761,-0.9819,-0.9815,-0.9774,-0.9707,-0.9727,-0.9538,-0.9256,-0.9157,-0.911,-0.9089,-0.9178,-0.9344,-0.9493,-0.9554,-0.9696,-0.9747,-0.9713,-0.9717,-0.9744,-0.9754,-0.9788,-0.9819,-0.9819,-0.9819,-0.9819,-0.9819,-0.9819,-0.9819,-0.9836,-0.9822,-0.9819,-0.9832,-1.0159,-1.0225,-1.0019,-1.0266,-0.9203,-0.7287,-0.4867,-0.2569,0.0,0.0,0.0,0.0,0.0,0.0,0.0,0.0,0.0,0.0,1.0731,1.0721,1.0721,1.0721,1.1269,1.1398,1.1901,1.2712,1.3958,1.4146,1.5399,-4.0774,-4.0324,-4.0255,-4.0255,-4.02,-3.9935,-3.9793,-3.9809,-3.9538,-3.9017,-3.8397,-3.8308,-3.7738,-3.6852,-3.6682,-3.5828,-3.4249,-3.4108,-3.394,-3.3628,-3.3641,-3.3484,-3.3167,-3.3081,-3.3081,-3.3081,-3.3081,-3.3156,-3.3332,-3.3345,-3.2959,-3.241,-3.2647,-3.2008,-3.0502,-3.0263,-2.9458,-2.8056,-2.7352,-2.6695,-2.5849,-2.4467,-2.3755,-2.3353,-2.0527,-1.8576,-1.8464,-1.8258,-1.8277,-1.8222,-1.7224,-1.4707,-1.1117,-1.0061,-0.9819,-0.9819,-0.9819,-0.9785,-0.9796,-0.9614,-0.9337,-0.9235,-0.9181,-0.9167,-0.9235,-0.9466,-0.9608,-0.9686,-0.9754,-0.9819,-0.9819,-0.9819,-0.9819,-0.9819,-0.9819,-0.9819,-0.9819,-0.9819,-0.9819,-0.9819,-0.9819,-0.9859,-0.9814,-0.9794,-0.9808,-0.9954,-1.045,-1.0517,-1.0294,-1.0273,-1.0513,-1.0412,-0.8474,-0.6421,-0.4467,0.0,0.0,0.0,0.0,0.0,0.0,0.0,0.0,0.0,1.0738,1.0724,1.0721,1.0721,1.0721,1.0721,1.0982,1.1652,1.2192,1.2441,1.3447,-4.1949,-4.1869,-4.1981,-4.1788,-4.1674,-4.1013,-4.0675,-4.0523,-3.9849,-3.9508,-3.9203,-3.9379,-3.8767,-3.7979,-3.7829,-3.719,-3.6369,-3.6212,-3.5668,-3.4746,-3.465,-3.4191,-3.3386,-3.3471,-3.3398,-3.3265,-3.323,-3.342,-3.3809,-3.3884,-3.4047,-3.446,-3.4177,-3.3715,-3.3338,-3.2664,-3.1649,-2.9732,-2.8708,-2.7693,-2.6427,-2.4799,-2.4163,-2.4242,-2.2182,-2.0741,-2.0279,-1.8833,-1.8377,-1.8592,-1.7526,-1.5189,-1.2658,-1.1016,-0.9937,-0.9926,-0.9812,-0.994,-0.9781,-0.9537,-0.9381,-0.9364,-0.9249,-0.9239,-0.9381,-0.9534,-0.968,-0.9774,-0.9808,-0.9819,-0.9819,-0.9819,-0.9819,-0.9819,-0.9819,-0.9819,-0.9819,-0.9819,-0.9825,-0.9836,-0.9846,-0.9834,-0.989,-0.988,-0.9972,-1.0192,-1.0517,-1.0672,-1.0428,-1.0537,-1.063,-1.0555,-1.0064,-0.8913,-0.8427,0.0,0.0,0.0,0.0,0.0,0.0,0.0,0.0,0.6441,1.007,1.0329,1.0741,1.0741,1.0721,1.0721,1.0721,1.0721,1.1115,1.1505,1.1215,-4.235,-4.1997,-4.1981,-4.1981,-4.1997,-4.1674,-4.1401,-4.1065,-4.1103,-4.0557,-3.9657,-4.0002,-3.9748,-3.909,-3.887,-3.8708,-3.8368,-3.8368,-3.742,-3.6015,-3.5762,-3.5507,-3.5265,-3.5183,-3.4884,-3.4373,-3.4612,-3.4401,-3.4123,-3.4286,-3.4575,-3.4738,-3.4857,-3.4421,-3.3708,-3.4438,-3.3586,-3.003,-2.9474,-2.85,-2.6947,-2.6256,-2.6044,-2.5945,-2.4607,-2.3106,-2.1797,-1.9957,-1.9108,-1.9192,-1.8774,-1.7603,-1.5644,-1.3999,-1.2158,-1.0299,-1.1218,-1.1246,-0.9971,-0.9652,-0.9549,-0.9597,-0.9511,-0.9398,-0.9527,-0.9786,-0.9885,-0.9937,-0.9819,-0.9819,-0.9819,-0.9819,-0.9819,-0.9819,-0.9819,-0.9822,-0.9836,-0.9829,-0.9751,-0.9834,-0.9978,-1.0198,-1.0215,-1.0092,-1.0236,-1.0297,-1.0503,-1.0558,-1.0579,-1.0544,-1.0646,-1.0673,-1.0727,-1.0738,-0.994,-0.9407,-0.7655,-0.416,0.0,0.0,0.0,0.0,0.0,0.3759,0.751,0.9933,1.0349,1.0478,1.0187,1.0585,1.0721,1.0721,1.0721,1.0707,1.0687,-4.3912,-4.3722,-4.3477,-4.3526,-4.3739,-4.3488,-4.2895,-4.2398,-4.2638,-4.2164,-4.1471,-4.1758,-4.1519,-4.0807,-4.0679,-4.0477,-4.0127,-4.0157,-3.94,-3.8067,-3.7056,-3.6618,-3.6304,-3.6494,-3.6314,-3.5774,-3.5817,-3.5673,-3.5225,-3.5019,-3.514,-3.5378,-3.5549,-3.5419,-3.4688,-3.5645,-3.4445,-3.1138,-3.0507,-2.9408,-2.7677,-2.71,-2.71,-2.7001,-2.5681,-2.4836,-2.4367,-2.1376,-1.938,-1.9361,-1.9401,-1.8635,-1.7085,-1.6497,-1.4898,-1.2583,-1.226,-1.2543,-1.1638,-1.1204,-1.0988,-1.1192,-1.1253,-1.135,-1.1366,-1.1515,-1.1611,-1.1615,-1.114,-1.066,-1.0657,-1.0061,-0.9819,-0.9819,-0.9819,-0.9846,-0.9883,-0.9781,-0.9824,-0.9921,-1.0235,-1.0362,-1.0378,-1.0378,-1.0395,-1.0439,-1.0651,-1.0709,-1.0595,-1.0656,-1.07,-1.0721,-1.0721,-1.0731,-1.0738,-1.0611,-1.0622,-0.7381,0.0,0.0,0.0,0.0,0.0,0.0,0.4021,0.7641,0.8454,0.8845,0.8967,0.964,1.0724,1.0721,1.0721,1.0721,1.0707,-4.6295,-4.6667,-4.6058,-4.5976,-4.6439,-4.5768,-4.5049,-4.4456,-4.435,-4.4445,-4.4508,-4.415,-4.3611,-4.2942,-4.2519,-4.2031,-4.155,-4.1235,-4.116,-4.0408,-3.9186,-3.7782,-3.7282,-3.7643,-3.7698,-3.7344,-3.7077,-3.6967,-3.6888,-3.6198,-3.583,-3.6288,-3.6245,-3.6345,-3.62,-3.637,-3.4969,-3.2431,-3.1794,-3.0306,-2.7885,-2.7353,-2.7314,-2.7666,-2.6069,-2.5891,-2.6746,-2.2448,-1.9462,-1.9441,-1.9359,-1.8765,-1.78,-1.8642,-1.7683,-1.4929,-1.3946,-1.4356,-1.444,-1.3771,-1.3315,-1.3883,-1.3946,-1.4392,-1.3986,-1.3902,-1.4004,-1.4009,-1.3048,-1.2209,-1.1968,-1.1016,-1.0179,-0.9825,-0.9846,-0.991,-0.9898,-0.9918,-0.9972,-1.0158,-1.038,-1.0656,-1.0494,-1.0431,-1.0451,-1.0643,-1.0687,-1.0687,-1.0694,-1.0704,-1.0714,-1.0721,-1.0721,-1.0721,-1.0731,-1.0731,-1.0738,-0.9525,-0.6702,0.0,0.0,0.0,0.0,0.0,0.1074,0.4423,0.6702,0.71,0.8579,1.0073,1.0611,1.0727,1.0727,1.0738,1.0469,-4.6667,-4.6752,-4.6583,-4.6616,-4.6786,-4.6514,-4.6387,-4.6176,-4.6129,-4.6633,-4.7168,-4.5909,-4.4772,-4.3822,-4.3192,-4.2679,-4.2352,-4.1791,-4.1384,-4.1339,-4.0844,-4.0379,-4.0094,-4.0174,-3.9824,-3.9261,-3.9222,-3.8725,-3.7453,-3.7312,-3.6983,-3.6452,-3.637,-3.637,-3.637,-3.637,-3.4957,-3.2721,-3.2241,-3.0826,-2.8595,-2.8008,-2.8018,-2.8086,-2.7515,-2.7492,-2.7744,-2.2599,-1.9469,-1.9455,-1.9366,-1.9243,-1.8765,-1.9127,-1.8887,-1.8058,-1.7768,-1.7903,-1.7976,-1.6463,-1.5178,-1.4799,-1.4917,-1.4458,-1.4503,-1.4564,-1.4604,-1.4485,-1.4123,-1.3627,-1.2888,-1.2072,-1.1133,-1.0075,-1.0162,-1.0129,-1.0059,-1.0154,-1.0133,-1.0243,-1.0548,-1.0668,-1.0643,-1.0555,-1.0663,-1.0704,-1.0721,-1.0721,-1.0721,-1.0721,-1.0721,-1.0721,-1.0721,-1.0721,-1.0721,-1.0721,-1.0721,-1.0591,-0.9519,0.0,0.0,0.0,0.0,0.0,0.0,0.268,0.4562,0.5505,0.7796,0.9413,1.0089,0.981,1.0505,1.0655,1.0235,-4.7445,-4.7682,-4.7394,-4.7445,-4.7699,-4.7716,-4.7733,-4.7716,-4.775,-4.8129,-4.8579,-4.763,-4.6482,-4.5567,-4.511,-4.4362,-4.3603,-4.3059,-4.2652,-4.2222,-4.2207,-4.1816,-4.1535,-4.1608,-4.152,-4.0989,-4.0973,-3.9981,-3.8654,-3.8233,-3.7481,-3.6628,-3.637,-3.637,-3.637,-3.6358,-3.5355,-3.3453,-3.2655,-3.1224,-2.9313,-2.8601,-2.8291,-2.8291,-2.8301,-2.832,-2.7725,-2.4915,-2.2453,-2.0823,-1.9815,-1.9366,-1.9366,-1.9366,-1.9366,-1.9379,-1.9553,-1.976,-1.984,-1.8481,-1.7481,-1.7113,-1.6727,-1.6511,-1.6698,-1.6621,-1.6626,-1.6744,-1.6026,-1.5408,-1.4672,-1.3865,-1.2848,-1.234,-1.2127,-1.1619,-1.0392,-1.028,-1.0293,-1.0407,-1.0595,-1.0747,-1.0714,-1.0717,-1.0721,-1.0721,-1.0721,-1.0721,-1.0721,-1.0721,-1.0721,-1.0721,-1.0721,-1.0721,-1.0721,-1.0721,-1.0721,-1.0588,-1.0591,-1.0741,-0.8989,-0.6036,0.0,0.0,0.0,0.0537,0.2281,0.3758,0.4967,0.6443,0.7796,0.9018,0.9433,0.9172,0.8898,-4.8409,-4.8934,-4.8291,-4.8409,-4.89,-4.8984,-4.8849,-4.8951,-4.8866,-4.8917,-4.8968,-4.9001,-4.8216,-4.7721,-4.7094,-4.6544,-4.5149,-4.4654,-4.3929,-4.3386,-4.309,-4.2671,-4.1985,-4.2273,-4.2376,-4.2261,-4.1962,-4.1001,-3.9792,-3.8725,-3.7678,-3.6722,-3.637,-3.637,-3.637,-3.637,-3.5667,-3.4264,-3.2855,-3.1633,-3.012,-2.9006,-2.8291,-2.8301,-2.8301,-2.8291,-2.8269,-2.7506,-2.6095,-2.2266,-2.0371,-1.9482,-1.9366,-1.9366,-1.9366,-1.9542,-1.9744,-2.0057,-2.0077,-1.9793,-1.9648,-1.9378,-1.9161,-1.9372,-1.9004,-1.8887,-1.8887,-1.8771,-1.804,-1.7202,-1.6615,-1.5688,-1.509,-1.4776,-1.4991,-1.4029,-1.1703,-1.0537,-1.0407,-1.067,-1.069,-1.0707,-1.0711,-1.0714,-1.0721,-1.0721,-1.0721,-1.0721,-1.0721,-1.0721,-1.0721,-1.0721,-1.0721,-1.0721,-1.0721,-1.0721,-1.0721,-1.0721,-1.0721,-1.0595,-1.0326,-0.8584,-0.8603,-0.766,-0.5637,-0.268,0.0402,0.1607,0.1876,0.1473,0.1605,0.4822,0.7663,0.673,0.6193,-4.8866,-4.9001,-4.8832,-4.8866,-4.9001,-4.9018,-4.9018,-4.9018,-4.9018,-4.9018,-4.9018,-4.9018,-4.8861,-4.8639,-4.7933,-4.7306,-4.6609,-4.5504,-4.4297,-4.3409,-4.3344,-4.324,-4.2895,-4.3034,-4.3109,-4.2996,-4.2962,-4.1831,-4.0304,-3.9536,-3.8392,-3.6722,-3.6452,-3.637,-3.637,-3.6358,-3.5763,-3.4374,-3.3055,-3.1735,-3.0421,-2.9006,-2.8301,-2.8301,-2.8301,-2.832,-2.8301,-2.8279,-2.7222,-2.4778,-2.182,-2.004,-1.9482,-1.9366,-1.9392,-1.9486,-1.9797,-2.0091,-2.0098,-1.9999,-1.9813,-1.9806,-1.9586,-1.9366,-1.9366,-1.9366,-1.9366,-1.9366,-1.901,-1.8286,-1.7455,-1.8382,-1.7542,-1.6348,-1.664,-1.6762,-1.4637,-1.2254,-1.1164,-1.1076,-1.1133,-1.0761,-1.0899,-1.1083,-1.0969,-1.0846,-1.085,-1.085,-1.0711,-1.0836,-1.084,-1.0965,-1.0721,-1.0721,-1.0721,-1.0721,-1.0721,-1.0721,-1.0721,-1.0721,-1.0319,-1.019,-0.9806,-0.9825,-0.9701,-0.6439,-0.2808,-0.3214,-0.3349,-0.4152,-0.4286,-0.1338,0.1205,0.1879,0.0,-4.9018,-4.9018,-4.9018,-4.9018,-4.9018,-4.9018,-4.9018,-4.9018,-4.9018,-4.9018,-4.9018,-4.9018,-4.9018,-4.9001,-4.8513,-4.808,-4.7239,-4.5634,-4.4297,-4.3488,-4.3344,-4.3344,-4.3344,-4.3344,-4.3344,-4.3344,-4.325,-4.2208,-4.1,-4.0059,-3.893,-3.7243,-3.6722,-3.6465,-3.637,-3.637,-3.6061,-3.5211,-3.3802,-3.2386,-3.1246,-2.9313,-2.8301,-2.8301,-2.8301,-2.8301,-2.832,-2.832,-2.787,-2.6763,-2.4837,-2.2055,-1.9822,-1.9379,-1.9356,-1.949,-1.9622,-2.0214,-2.0301,-2.0335,-2.0033,-1.9993,-1.9726,-1.9526,-1.9412,-1.9366,-1.9366,-1.9366,-1.9366,-1.901,-1.8298,-1.9017,-1.8715,-1.8331,-1.8514,-1.8918,-1.788,-1.5218,-1.3453,-1.4025,-1.5313,-1.4936,-1.4548,-1.2919,-1.2779,-1.3312,-1.4137,-1.4002,-1.1279,-1.1279,-1.119,-1.1205,-1.084,-1.0721,-1.0721,-1.0721,-1.0721,-1.0721,-1.0721,-1.0721,-1.0585,-1.0591,-1.0601,-1.0618,-1.0362,-0.9813,-0.7229,-0.7917,-0.7786,-0.791,-0.7505,-0.6577,-0.5371,-0.3352,-0.0804,-4.9018,-4.9018,-4.9018,-4.9018,-4.9018,-4.9018,-4.9018,-4.9018,-4.9018,-4.8877,-4.8861,-4.8923,-4.8861,-4.8719,-4.8656,-4.8161,-4.6968,-4.5905,-4.4571,-4.3409,-4.3344,-4.3344,-4.3344,-4.3344,-4.3344,-4.3344,-4.3344,-4.2563,-4.1504,-4.049,-3.9197,-3.8017,-3.6883,-3.6452,-3.637,-3.637,-3.6358,-3.5991,-3.4233,-3.2948,-3.1869,-2.9713,-2.8398,-2.8301,-2.8301,-2.8301,-2.8301,-2.832,-2.8077,-2.795,-2.8174,-2.527,-2.1616,-1.9492,-1.941,-1.9389,-1.9696,-2.0206,-2.0693,-2.0631,-2.0394,-2.0187,-1.988,-1.9626,-1.9426,-1.9366,-1.9366,-1.9366,-1.9372,-1.9399,-1.9446,-1.974,-2.0013,-2.0024,-2.0438,-2.0835,-2.0517,-1.8378,-1.7378,-1.7866,-1.8283,-1.8165,-1.6758,-1.5365,-1.55,-1.5769,-1.6608,-1.6613,-1.3743,-1.2405,-1.2869,-1.2767,-1.2804,-1.2836,-1.2704,-1.2545,-1.2413,-1.2029,-1.1769,-1.1358,-1.1354,-1.1735,-1.1739,-1.0853,-1.0462,-1.0054,-0.9924,-0.9661,-0.9797,-1.0734,-1.0199,-0.8859,-0.8192,-0.7925,-0.5492,-4.9018,-4.9018,-4.9018,-4.9001,-4.9018,-4.9018,-4.9018,-4.9018,-4.9018,-4.8513,-4.8015,-4.8593,-4.8513,-4.7998,-4.7803,-4.69,-4.5778,-4.5431,-4.484,-4.3551,-4.3344,-4.3344,-4.3344,-4.3344,-4.3344,-4.3344,-4.325,-4.271,-4.1684,-4.049,-3.936,-3.8107,-3.6977,-3.6465,-3.637,-3.637,-3.6358,-3.587,-3.4064,-3.2645,-3.1655,-2.9817,-2.8291,-2.8301,-2.8301,-2.8301,-2.8301,-2.8184,-2.7726,-2.6707,-2.7609,-2.6164,-2.3625,-2.1117,-2.0154,-1.9676,-2.0239,-2.0842,-2.0985,-2.0767,-2.0315,-1.99,-1.9686,-1.9492,-1.9392,-1.9366,-1.9366,-1.9379,-1.9399,-1.9472,-1.9713,-1.998,-2.0274,-2.0561,-2.0815,-2.1022,-2.0956,-2.0335,-1.982,-2.0029,-2.0509,-2.0554,-1.8822,-1.7429,-1.7178,-1.692,-1.7076,-1.7523,-1.6307,-1.5634,-1.5954,-1.5699,-1.5298,-1.5202,-1.5231,-1.5043,-1.4884,-1.4511,-1.411,-1.2886,-1.3004,-1.324,-1.2988,-1.3168,-1.1758,-1.0445,-1.0585,-1.0734,-1.1387,-1.1769,-1.1387,-1.0881,-1.017,-0.9612,-0.9924,-4.8241,-4.894,-4.8513,-4.8576,-4.894,-4.9018,-4.9018,-4.9018,-4.9001,-4.8497,-4.7933,-4.8015,-4.7721,-4.7088,-4.6884,-4.6048,-4.5285,-4.5153,-4.4631,-4.3488,-4.3344,-4.3344,-4.3344,-4.3344,-4.3344,-4.3344,-4.325,-4.3076,-4.2371,-4.0675,-3.9623,-3.8827,-3.7335,-3.6465,-3.637,-3.637,-3.5966,-3.5187,-3.3779,-3.2375,-3.1235,-2.9207,-2.8398,-2.8301,-2.8301,-2.8301,-2.8301,-2.8301,-2.796,-2.7276,-2.6391,-2.6164,-2.5807,-2.5405,-2.3712,-2.1285,-2.1091,-2.1202,-2.1135,-2.089,-2.0625,-2.008,-1.986,-1.9653,-1.9459,-1.9366,-1.9366,-1.9392,-1.9415,-1.9508,-1.978,-2.0187,-2.0494,-2.0675,-2.0935,-2.1082,-2.1102,-2.1102,-2.1102,-2.1102,-2.1042,-2.0674,-2.0208,-1.9236,-1.886,-1.8343,-1.7948,-1.7993,-1.8191,-1.8068,-1.8073,-1.7922,-1.7372,-1.6623,-1.6644,-1.6737,-1.6818,-1.6581,-1.6328,-1.5226,-1.4679,-1.4923,-1.6105,-1.706,-1.4995,-1.2277,-1.1104,-1.138,-1.2157,-1.3075,-1.3269,-1.3153,-1.1987,-1.1428,-1.1867,-4.7139,-4.8438,-4.7884,-4.8144,-4.894,-4.9018,-4.8861,-4.8719,-4.8656,-4.8015,-4.7172,-4.7172,-4.6815,-4.6189,-4.5977,-4.5618,-4.4662,-4.4662,-4.422,-4.3488,-4.3344,-4.3344,-4.3344,-4.3344,-4.3344,-4.3344,-4.3344,-4.3344,-4.2725,-4.093,-4.0059,-3.9183,-3.752,-3.637,-3.637,-3.637,-3.5571,-3.4652,-3.3673,-3.2239,-3.0172,-2.89,-2.8301,-2.8301,-2.8301,-2.8301,-2.8301,-2.8301,-2.8047,-2.738,-2.6364,-2.5679,-2.7629,-2.9679,-2.8401,-2.4173,-2.3149,-2.2734,-2.1954,-2.0897,-2.0551,-2.006,-2.0054,-1.978,-1.9546,-1.9366,-1.9372,-1.9412,-1.9351,-1.9556,-1.996,-2.0361,-2.0648,-2.0815,-2.0975,-2.1102,-2.1102,-2.1102,-2.1102,-2.1102,-2.1102,-2.0956,-2.0543,-2.0417,-1.9916,-1.9916,-1.9522,-1.9649,-1.9711,-1.9316,-1.945,-1.9699,-1.917,-1.8028,-1.7781,-1.8028,-1.8116,-1.8227,-1.8256,-1.7708,-1.7044,-1.677,-1.8104,-1.9316,-1.7625,-1.5033,-1.3595,-1.2676,-1.4362,-1.5574,-1.5969,-1.557,-1.4516,-1.415,-1.4535,-4.5944,-4.691,-4.7391,-4.8144,-4.8877,-4.8877,-4.845,-4.7803,-4.7786,-4.6747,-4.5431,-4.5977,-4.5834,-4.5285,-4.5762,-4.5048,-4.4205,-4.422,-4.4143,-4.3409,-4.3344,-4.3344,-4.3344,-4.3344,-4.3344,-4.3344,-4.3344,-4.3344,-4.2644,-4.0845,-3.9899,-3.9285,-3.7691,-3.637,-3.637,-3.637,-3.5679,-3.4385,-3.3101,-3.1176,-2.9122,-2.8388,-2.8291,-2.8301,-2.8301,-2.8301,-2.8301,-2.831,-2.7987,-2.728,-2.7592,-2.6885,-2.6505,-2.8988,-3.0412,-2.9979,-2.9416,-2.82,-2.4366,-2.1719,-2.0414,-2.0138,-1.9969,-1.9603,-1.9836,-1.9564,-1.9448,-1.9379,-1.9377,-1.9668,-2.018,-2.0637,-2.0913,-2.1067,-2.1056,-2.1102,-2.1102,-2.1102,-2.1102,-2.1102,-2.1102,-2.1102,-2.0963,-2.0969,-2.0976,-2.1102,-2.1102,-2.1102,-2.0976,-2.0456,-2.0202,-2.0456,-2.0456,-1.9437,-1.8926,-1.917,-1.9285,-1.9636,-1.9655,-1.968,-1.9145,-1.875,-1.9615,-2.017,-1.8717,-1.712,-1.5019,-1.5009,-1.7082,-1.8045,-1.8406,-1.8024,-1.7196,-1.7211,-1.7706,-4.3778,-4.5777,-4.5539,-4.6237,-4.734,-4.744,-4.7172,-4.6867,-4.6815,-4.6048,-4.5005,-4.5138,-4.4856,-4.4282,-4.4479,-4.4113,-4.3472,-4.3771,-4.3786,-4.3409,-4.3344,-4.3344,-4.3344,-4.3344,-4.3344,-4.3344,-4.325,-4.282,-4.2029,-4.0831,-3.9637,-3.8738,-3.7335,-3.637,-3.637,-3.637,-3.5054,-3.3243,-3.1235,-2.9513,-2.8601,-2.8301,-2.8301,-2.8301,-2.8301,-2.8301,-2.8301,-2.8301,-2.8271,-2.7952,-2.8668,-2.8699,-2.8266,-2.9623,-3.0889,-3.0908,-3.0839,-2.7798,-2.2737,-2.099,-2.0816,-2.1038,-2.116,-2.1482,-2.1384,-2.0422,-2.0053,-2.0836,-1.9932,-1.9872,-2.0318,-2.0879,-2.1061,-2.1069,-2.1348,-2.1229,-2.1229,-2.1102,-2.1102,-2.1102,-2.1109,-2.1242,-2.1242,-2.1102,-2.1229,-2.1348,-2.1229,-2.1102,-2.1102,-2.0976,-2.0843,-2.0976,-2.0976,-2.0716,-2.0462,-2.0456,-2.0329,-2.0436,-2.0436,-2.0583,-2.0716,-2.0876,-2.1062,-2.1196,-2.0367,-1.8518,-1.6426,-1.6684,-1.811,-1.9584,-2.0942,-2.068,-2.0533,-2.2034,-2.2136,-4.1709,-4.3945,-4.3821,-4.4605,-4.5933,-4.6093,-4.6048,-4.5834,-4.5834,-4.5285,-4.4646,-4.4358,-4.3989,-4.3472,-4.3409,-4.3409,-4.3344,-4.3344,-4.3344,-4.3344,-4.3344,-4.3344,-4.3344,-4.3344,-4.3344,-4.3344,-4.3344,-4.2482,-4.1267,-4.0232,-3.9271,-3.8107,-3.7057,-3.6452,-3.637,-3.6263,-3.515,-3.2543,-3.0463,-2.9142,-2.8408,-2.8291,-2.8301,-2.8301,-2.8301,-2.8301,-2.8301,-2.8594,-2.8829,-2.9072,-2.9225,-2.9468,-2.9821,-3.0316,-3.0879,-3.0898,-3.0967,-2.8454,-2.4284,-2.2142,-2.1957,-2.2488,-2.2935,-2.3138,-2.2805,-2.1369,-2.0259,-2.1281,-2.0597,-2.0358,-2.0544,-2.0922,-2.1413,-2.1706,-2.1971,-2.1727,-2.1846,-2.2334,-2.1971,-2.1256,-2.1389,-2.1536,-2.1396,-2.1242,-2.1229,-2.1601,-2.1475,-2.1215,-2.1348,-2.1468,-2.1342,-2.1342,-2.1082,-2.1096,-2.1249,-2.1242,-2.1109,-2.1235,-2.1235,-2.1102,-2.1102,-2.1102,-2.1129,-2.1122,-2.1628,-2.1335,-2.0138,-1.9509,-1.9139,-2.1102,-2.2817,-2.3761,-2.4479,-2.5831,-2.5838,-3.9961,-4.0902,-4.2925,-4.4235,-4.5224,-4.5917,-4.5602,-4.493,-4.4871,-4.4358,-4.363,-4.3472,-4.3488,-4.3329,-4.3344,-4.3344,-4.3344,-4.3344,-4.3344,-4.3344,-4.3344,-4.3344,-4.3344,-4.3344,-4.3344,-4.3265,-4.3105,-4.1908,-4.049,-3.9885,-3.9006,-3.8121,-3.6883,-3.6546,-3.6263,-3.6061,-3.4848,-3.2566,-3.092,-2.9595,-2.8737,-2.8301,-2.8301,-2.8301,-2.8301,-2.8301,-2.833,-2.8937,-2.937,-2.9473,-2.9541,-2.9971,-3.0478,-3.0752,-3.0898,-3.0889,-3.0889,-2.8941,-2.652,-2.526,-2.4819,-2.4895,-2.4986,-2.4662,-2.3848,-2.3507,-2.2495,-2.1157,-2.0819,-2.0737,-2.0783,-2.1047,-2.1844,-2.2559,-2.2943,-2.3128,-2.3604,-2.4525,-2.3931,-2.2132,-2.1949,-2.2644,-2.2627,-2.2577,-2.2334,-2.2584,-2.1596,-2.1213,-2.2041,-2.2305,-2.195,-2.1699,-2.1315,-2.1209,-2.1389,-2.1655,-2.2293,-2.2153,-2.1894,-2.1502,-2.1109,-2.1109,-2.1102,-2.2523,-2.3171,-2.3641,-2.3852,-2.2798,-2.2409,-2.3494,-2.4804,-2.6068,-2.6776,-2.7504,-2.7323,-3.9574,-3.9888,-4.1185,-4.2373,-4.3479,-4.3756,-4.3899,-4.3881,-4.3849,-4.3693,-4.3344,-4.3344,-4.3344,-4.3344,-4.3344,-4.3344,-4.3344,-4.3344,-4.3344,-4.3344,-4.3344,-4.3344,-4.3344,-4.3344,-4.3344,-4.3185,-4.2666,-4.1535,-4.0087,-3.9271,-3.8134,-3.715,-3.6628,-3.6452,-3.6263,-3.5667,-3.4056,-3.2689,-3.1354,-3.0151,-2.8727,-2.8301,-2.8301,-2.8301,-2.8301,-2.8457,-2.8672,-2.9263,-2.9616,-2.9839,-2.9697,-3.0185,-3.0723,-3.0859,-3.0898,-3.0898,-3.0898,-3.0267,-2.9559,-2.8716,-2.8201,-2.7106,-2.7292,-2.7124,-2.5494,-2.5074,-2.4032,-2.2689,-2.1283,-2.1027,-2.1652,-2.1699,-2.2141,-2.3337,-2.4071,-2.4354,-2.525,-2.6172,-2.5782,-2.3867,-2.4071,-2.4741,-2.4642,-2.4394,-2.3923,-2.3559,-2.2302,-2.1728,-2.2835,-2.3807,-2.3837,-2.3025,-2.2498,-2.2892,-2.3223,-2.3355,-2.3731,-2.3186,-2.2656,-2.2027,-2.1628,-2.1109,-2.1488,-2.3171,-2.4812,-2.521,-2.5407,-2.5277,-2.5309,-2.5635,-2.6977,-2.8792,-2.9231,-2.9259,-2.8792,-3.9424,-3.9484,-3.9918,-4.0756,-4.1773,-4.2192,-4.2611,-4.303,-4.3254,-4.3344,-4.3344,-4.3344,-4.3344,-4.3344,-4.3344,-4.3344,-4.3344,-4.3344,-4.3344,-4.3344,-4.3344,-4.3344,-4.3344,-4.3344,-4.3265,-4.304,-4.2146,-4.1015,-3.9913,-3.8649,-3.7586,-3.6803,-3.637,-3.637,-3.6061,-3.5066,-3.3761,-3.2476,-3.1647,-3.0297,-2.8641,-2.8301,-2.8301,-2.833,-2.8281,-2.8486,-2.8945,-2.9628,-3.0063,-3.0123,-3.0146,-3.0332,-3.0674,-3.0898,-3.0898,-3.0898,-3.0898,-3.0898,-3.0957,-3.0761,-3.0252,-2.9137,-2.9268,-2.9085,-2.8066,-2.6884,-2.579,-2.4818,-2.2779,-2.162,-2.2918,-2.3134,-2.4094,-2.5408,-2.5117,-2.5381,-2.6836,-2.7729,-2.6839,-2.5741,-2.6248,-2.6469,-2.6068,-2.5676,-2.5603,-2.5676,-2.6222,-2.5245,-2.4731,-2.5709,-2.6533,-2.5415,-2.4147,-2.4734,-2.5342,-2.6207,-2.6579,-2.471,-2.4077,-2.2914,-2.2286,-2.1782,-2.3288,-2.6537,-2.7712,-2.722,-2.722,-2.7366,-2.7194,-2.715,-2.8844,-3.0634,-3.0806,-3.0752,-3.0543,-3.9424,-3.9424,-3.9454,-3.9858,-4.0621,-4.1818,-4.2342,-4.2551,-4.309,-4.3344,-4.3344,-4.3344,-4.3344,-4.3344,-4.3344,-4.3344,-4.3344,-4.3344,-4.3344,-4.3344,-4.3344,-4.3344,-4.3344,-4.3344,-4.317,-4.2981,-4.1893,-4.0703,-3.9724,-3.8392,-3.7322,-3.6709,-3.637,-3.637,-3.625,-3.5066,-3.3662,-3.2499,-3.2233,-3.0622,-2.8874,-2.8301,-2.8301,-2.834,-2.8466,-2.87,-2.9131,-3.0083,-3.0478,-3.0407,-3.0566,-3.0723,-3.085,-3.0898,-3.0898,-3.0898,-3.0898,-3.0898,-3.0908,-3.0918,-3.0616,-3.0461,-3.0529,-3.0087,-2.9231,-2.8342,-2.7651,-2.652,-2.4253,-2.429,-2.4742,-2.5417,-2.6902,-2.7068,-2.6777,-2.7033,-2.8496,-2.9085,-2.8295,-2.7779,-2.7881,-2.7948,-2.737,-2.7064,-2.7142,-2.7762,-2.9352,-2.9084,-2.7547,-2.7556,-2.8487,-2.8046,-2.6481,-2.6807,-2.7738,-2.9259,-2.9412,-2.7305,-2.5815,-2.4859,-2.3695,-2.2961,-2.5431,-2.9463,-3.0167,-2.9508,-2.9526,-2.9615,-2.9453,-2.9437,-3.056,-3.1871,-3.2066,-3.2046,-3.1624,-3.9424,-3.9424,-3.9424,-3.9544,-3.9858,-4.0681,-4.1519,-4.2387,-4.3015,-4.3344,-4.3344,-4.3344,-4.3344,-4.3344,-4.3344,-4.3344,-4.3344,-4.3344,-4.3344,-4.3344,-4.3344,-4.3344,-4.3344,-4.325,-4.2915,-4.2029,-4.1,-3.9958,-3.8649,-3.7678,-3.6977,-3.6452,-3.637,-3.637,-3.6061,-3.5078,-3.3674,-3.2521,-3.2075,-3.1052,-2.8651,-2.8301,-2.8301,-2.832,-2.8602,-2.8933,-2.9355,-3.0428,-3.0774,-3.0692,-3.0859,-3.0879,-3.0898,-3.0898,-3.0898,-3.0898,-3.0898,-3.0898,-3.0898,-3.0898,-3.0898,-3.0976,-3.1025,-3.0691,-2.9592,-2.9119,-2.8535,-2.7665,-2.5612,-2.5804,-2.6482,-2.9352,-3.0723,-2.9409,-2.9047,-2.9433,-3.0157,-3.0386,-3.0167,-2.9931,-3.0004,-2.9773,-2.9343,-2.8553,-2.8454,-2.8608,-2.9878,-3.0332,-2.9257,-2.953,-3.0087,-3.0087,-2.9375,-2.9356,-2.9855,-3.0499,-3.0504,-2.8814,-2.7905,-2.7403,-2.6189,-2.5258,-2.7144,-3.0999,-3.1443,-3.1608,-3.1252,-3.1012,-3.1565,-3.2015,-3.228,-3.2353,-3.2383,-3.2314,-3.2109,-3.9424,-3.9424,-3.9424,-3.9424,-3.9529,-4.0127,-4.1145,-4.2327,-4.303,-4.3344,-4.3344,-4.3344,-4.3344,-4.3344,-4.3344,-4.3344,-4.3344,-4.3344,-4.3344,-4.3344,-4.3344,-4.3344,-4.3344,-4.325,-4.2644,-4.1601,-4.039,-3.936,-3.8211,-3.6977,-3.6452,-3.6465,-3.637,-3.637,-3.5966,-3.5066,-3.3674,-3.2364,-3.1354,-3.0015,-2.8688,-2.831,-2.8379,-2.8466,-2.8797,-2.9065,-2.9775,-3.0358,-3.0886,-3.0946,-3.0898,-3.0898,-3.0898,-3.0898,-3.0898,-3.0898,-3.0898,-3.0898,-3.0898,-3.0898,-3.0957,-3.1152,-3.1396,-3.12,-3.0531,-3.047,-3.0419,-2.9401,-2.7399,-2.796,-2.9812,-3.2916,-3.1894,-3.052,-3.0534,-3.0784,-3.1347,-3.1482,-3.1152,-3.1123,-3.084,-3.0897,-3.0633,-3.0246,-2.969,-2.9843,-3.0234,-3.0459,-3.0684,-3.0848,-3.0937,-3.0889,-3.0772,-3.0382,-3.0246,-3.0635,-3.0581,-3.0037,-2.9623,-2.9397,-2.9759,-2.9109,-3.0766,-3.1874,-3.2247,-3.248,-3.2295,-3.2373,-3.2445,-3.2581,-3.2764,-3.2695,-3.2598,-3.2539,-3.2471,-3.9424,-3.9424,-3.9424,-3.9424,-3.9529,-4.0113,-4.113,-4.2434,-4.3045,-4.3344,-4.3344,-4.3344,-4.3344,-4.3344,-4.3344,-4.3344,-4.3344,-4.3344,-4.3344,-4.3344,-4.3344,-4.3344,-4.3344,-4.325,-4.2386,-4.1435,-4.0318,-3.9183,-3.803,-3.6977,-3.6452,-3.637,-3.637,-3.637,-3.5966,-3.5367,-3.4068,-3.271,-3.0804,-2.9662,-2.883,-2.8727,-2.8818,-2.8868,-2.8781,-2.9215,-2.9925,-3.0652,-3.0897,-3.0898,-3.0898,-3.0898,-3.0898,-3.0898,-3.0898,-3.0898,-3.0898,-3.0898,-3.0898,-3.0898,-3.1103,-3.1338,-3.1533,-3.1797,-3.1876,-3.1798,-3.1969,-3.2292,-3.133,-3.2077,-3.3379,-3.2441,-3.1598,-3.1256,-3.1234,-3.1683,-3.2351,-3.2226,-3.1838,-3.1476,-3.1141,-3.0902,-3.0353,-3.0004,-2.9996,-3.0015,-3.0074,-3.025,-3.0571,-3.0833,-3.0846,-3.0889,-3.0889,-3.0889,-3.0898,-3.0898,-3.1161,-3.0746,-3.1102,-3.1066,-3.1788,-3.2104,-3.2488,-3.2758,-3.3175,-3.3193,-3.2842,-3.2734,-3.2822,-3.2939,-3.3047,-3.3076,-3.2998,-3.3096,-3.3096,-3.9424,-3.9424,-3.9424,-3.9424,-3.9529,-4.0127,-4.0891,-4.1743,-4.2806,-4.3344,-4.3344,-4.3344,-4.3344,-4.3344,-4.3344,-4.3344,-4.3265,-4.3344,-4.3344,-4.3265,-4.325,-4.3265,-4.3265,-4.309,-4.2044,-4.0916,-3.9798,-3.8841,-3.7243,-3.637,-3.637,-3.637,-3.637,-3.637,-3.6263,-3.5966,-3.4957,-3.3604,-3.1427,-3.0221,-2.9661,-2.9679,-2.9444,-2.9035,-2.9036,-2.9482,-3.0101,-3.0654,-3.0859,-3.0898,-3.0898,-3.0898,-3.0898,-3.0898,-3.0898,-3.0898,-3.0898,-3.0898,-3.0898,-3.0898,-3.1094,-3.1523,-3.1777,-3.2197,-3.2539,-3.2851,-3.3105,-3.3301,-3.3418,-3.3418,-3.3418,-3.2727,-3.2298,-3.2213,-3.2178,-3.2296,-3.2832,-3.2598,-3.207,-3.1367,-3.1044,-3.0399,-2.9838,-2.9757,-2.9731,-2.9741,-2.9941,-3.0005,-3.0335,-3.0616,-3.0853,-3.0917,-3.0898,-3.0898,-3.0898,-3.0898,-3.1377,-3.1787,-3.1943,-3.2246,-3.2584,-3.2961,-3.3233,-3.3418,-3.3418,-3.3369,-3.3232,-3.3164,-3.3105,-3.3203,-3.3301,-3.3359,-3.3418,-3.3418,-3.3418,-3.9424,-3.9424,-3.9424,-3.9424,-3.9529,-4.0113,-4.0771,-4.1504,-4.2491,-4.306,-4.3329,-4.3344,-4.3344,-4.3344,-4.3265,-4.3076,-4.2644,-4.3076,-4.3076,-4.2548,-4.3076,-4.325,-4.325,-4.2725,-4.1518,-4.0318,-3.9183,-3.8211,-3.6803,-3.637,-3.637,-3.637,-3.637,-3.637,-3.637,-3.6263,-3.5953,-3.4751,-3.3208,-3.1702,-3.0845,-3.0245,-2.9514,-2.9441,-2.9443,-2.9853,-3.0381,-3.0791,-3.0859,-3.0898,-3.0898,-3.0898,-3.0898,-3.0898,-3.0898,-3.0898,-3.0898,-3.0898,-3.0898,-3.0898,-3.123,-3.165,-3.2031,-3.2451,-3.2861,-3.3213,-3.331,-3.3418,-3.3418,-3.3418,-3.3418,-3.3418,-3.3282,-3.3272,-3.3116,-3.3076,-3.2949,-3.2832,-3.2075,-3.1188,-3.0596,-2.9912,-2.9618,-2.9456,-2.9414,-2.9512,-2.9629,-2.9653,-3.0133,-3.0626,-3.0768,-3.0937,-3.0879,-3.0898,-3.0898,-3.0947,-3.1357,-3.1816,-3.2197,-3.2588,-3.3203,-3.3418,-3.3418,-3.3418,-3.3418,-3.3369,-3.333,-3.3359,-3.335,-3.3418,-3.3418,-3.3418,-3.3418,-3.3418,-3.3418,-3.9294,-3.9354,-3.928,-3.9177,-3.9354,-3.9817,-4.0487,-4.1264,-4.1906,-4.2686,-4.324,-4.3344,-4.325,-4.2981,-4.3155,-4.2467,-4.229,-4.2644,-4.2725,-4.167,-4.2452,-4.29,-4.2644,-4.1947,-4.0703,-3.9669,-3.8725,-3.7756,-3.6803,-3.637,-3.637,-3.637,-3.637,-3.637,-3.637,-3.637,-3.6168,-3.5775,-3.4371,-3.2802,-3.1187,-2.9856,-2.9016,-2.9717,-2.9961,-3.0276,-3.076,-3.0889,-3.0898,-3.0898,-3.0898,-3.0898,-3.0898,-3.0898,-3.0898,-3.0898,-3.0898,-3.0898,-3.0937,-3.0986,-3.1445,-3.1855,-3.2217,-3.2666,-3.3096,-3.334,-3.3408,-3.3418,-3.3418,-3.3418,-3.3418,-3.3418,-3.3418,-3.3418,-3.333,-3.3242,-3.3193,-3.2786,-3.207,-3.1117,-3.0228,-2.9629,-2.9496,-2.9463,-2.956,-2.9458,-2.9687,-2.9702,-2.9964,-3.063,-3.0807,-3.0966,-3.0869,-3.0898,-3.0898,-3.1006,-3.1328,-3.1758,-3.2187,-3.275,-3.3286,-3.3377,-3.3418,-3.3418,-3.3418,-3.3418,-3.3398,-3.3418,-3.3418,-3.3418,-3.3418,-3.3418,-3.3418,-3.3418,-3.3418,-3.8646,-3.9312,-3.8573,-3.8159,-3.8173,-3.8379,-3.883,-3.9532,-4.0991,-4.219,-4.318,-4.3235,-4.2805,-4.2275,-4.2981,-4.2304,-4.1014,-4.2126,-4.2386,-4.1767,-4.185,-4.2029,-4.1767,-4.0831,-3.9715,-3.8857,-3.8002,-3.7402,-3.6628,-3.637,-3.637,-3.637,-3.637,-3.637,-3.637,-3.637,-3.637,-3.6275,-3.5138,-3.4146,-3.3092,-3.2288,-3.1879,-3.1117,-3.0711,-3.0378,-3.0723,-3.0898,-3.0898,-3.0898,-3.0898,-3.0898,-3.0898,-3.0898,-3.0898,-3.0898,-3.0898,-3.0898,-3.0976,-3.1152,-3.1601,-3.2051,-3.2451,-3.29,-3.3223,-3.335,-3.3418,-3.3418,-3.3418,-3.3418,-3.3418,-3.3418,-3.3418,-3.3418,-3.3408,-3.3408,-3.3398,-3.2622,-3.1976,-3.0969,-2.9959,-2.9705,-2.9668,-2.96,-2.9687,-2.9947,-3.0349,-3.0537,-3.0459,-3.0839,-3.0809,-3.0879,-3.0879,-3.0898,-3.0898,-3.0976,-3.125,-3.1543,-3.1813,-3.2515,-3.3253,-3.3299,-3.3418,-3.3418,-3.3418,-3.3418,-3.3418,-3.3418,-3.3418,-3.3418,-3.3418,-3.3418,-3.3418,-3.3418,-3.3418,-3.7437,-3.791,-3.738,-3.7098,-3.7098,-3.7098,-3.7699,-3.8885,-4.0187,-4.118,-4.2187,-4.2832,-4.2644,-4.185,-4.2805,-4.1518,-3.9972,-4.1518,-4.0986,-4.0462,-4.0646,-4.0831,-4.0404,-3.9697,-3.9047,-3.8193,-3.7508,-3.6896,-3.6452,-3.637,-3.637,-3.637,-3.637,-3.637,-3.637,-3.637,-3.637,-3.637,-3.5571,-3.5102,-3.445,-3.3186,-3.1774,-3.072,-3.0403,-3.042,-3.0713,-3.0898,-3.0898,-3.0898,-3.0898,-3.0898,-3.0898,-3.0898,-3.0898,-3.0898,-3.0898,-3.0898,-3.1006,-3.1299,-3.1719,-3.2139,-3.2568,-3.2969,-3.3301,-3.3418,-3.3418,-3.3418,-3.3418,-3.3418,-3.3418,-3.3418,-3.3418,-3.3418,-3.3379,-3.335,-3.3162,-3.2672,-3.1812,-3.1025,-3.0392,-3.0234,-3.001,-2.9676,-2.9812,-3.0361,-3.0853,-3.0833,-3.0878,-3.1005,-3.1005,-3.1112,-3.1228,-3.1005,-3.0898,-3.0957,-3.1103,-3.1287,-3.157,-3.2344,-3.3044,-3.3328,-3.3418,-3.3418,-3.3418,-3.3418,-3.3418,-3.3418,-3.3418,-3.3418,-3.3418,-3.3418,-3.3418,-3.3418,-3.3437,-3.6132,-3.6198,-3.6039,-3.6039,-3.6039,-3.596,-3.6847,-3.8239,-3.924,-4.0075,-4.1024,-4.2232,-4.2097,-4.185,-4.2111,-4.019,-3.9495,-4.0561,-3.977,-3.9169,-3.9346,-3.9522,-3.9258,-3.8545,-3.7924,-3.7469,-3.6926,-3.6709,-3.6465,-3.637,-3.637,-3.637,-3.637,-3.637,-3.637,-3.637,-3.637,-3.642,-3.6019,-3.5649,-3.4245,-3.2652,-3.143,-3.0631,-3.0172,-3.0478,-3.0771,-3.0898,-3.0898,-3.0898,-3.0898,-3.0898,-3.0898,-3.0898,-3.0898,-3.0898,-3.0898,-3.0898,-3.0996,-3.1367,-3.1768,-3.2168,-3.2588,-3.2988,-3.334,-3.3418,-3.3418,-3.3418,-3.3418,-3.3418,-3.3418,-3.3418,-3.3418,-3.3408,-3.3359,-3.3262,-3.2917,-3.269,-3.1939,-3.1102,-3.0847,-3.0633,-3.0391,-2.9939,-3.0209,-3.0781,-3.0879,-3.0889,-3.1005,-3.1112,-3.1112,-3.1441,-3.1767,-3.1546,-3.1112,-3.1054,-3.1133,-3.1073,-3.1414,-3.2305,-3.2949,-3.3242,-3.3418,-3.3418,-3.3418,-3.3418,-3.3418,-3.3418,-3.3418,-3.3418,-3.3418,-3.3418,-3.3418,-3.3428,-3.334,-3.544,-3.6132,-3.5359,-3.4979,-3.4979,-3.4979,-3.5358,-3.6117,-3.7702,-3.951,-4.0862,-4.0548,-3.9871,-3.8814,-4.0059,-3.9094,-3.7756,-3.9169,-3.9258,-3.8469,-3.8302,-3.8379,-3.8198,-3.7507,-3.6871,-3.6696,-3.6602,-3.6439,-3.637,-3.637,-3.637,-3.637,-3.637,-3.637,-3.637,-3.637,-3.637,-3.6458,-3.6459,-3.6052,-3.4298,-3.3055,-3.2749,-3.1906,-3.1062,-3.0954,-3.0879,-3.0889,-3.0898,-3.0898,-3.0898,-3.0898,-3.0898,-3.0898,-3.0898,-3.0898,-3.0898,-3.1074,-3.1133,-3.1443,-3.1852,-3.2275,-3.2725,-3.3223,-3.3418,-3.3418,-3.3418,-3.3418,-3.3418,-3.3418,-3.3418,-3.3418,-3.3418,-3.3418,-3.3389,-3.3164,-3.2936,-3.2617,-3.2123,-3.1472,-3.1074,-3.0888,-3.0723,-3.0664,-3.0895,-3.1208,-3.1004,-3.1014,-3.1371,-3.1401,-3.1325,-3.1717,-3.226,-3.1757,-3.1218,-3.1218,-3.1287,-3.1191,-3.1367,-3.2332,-3.2981,-3.3262,-3.3418,-3.3408,-3.3418,-3.3418,-3.3418,-3.3418,-3.3418,-3.3418,-3.3418,-3.3418,-3.3418,-3.3428,-3.334]}]]